GFSCGP_700_spd_000.txt.gz
Wind_Speed
34 33 34 27 18 17 12 26 26 31 28 25 22 15 11 11 11 13 11 8 7 5 4 8 8 9 10 11 11 8 4 6 9 6 3 4 8 11 14 17 17 17 16 20
30 39 39 25 21 20 18 16 27 27 28 29 24 19 13 12 11 7 4 8 8 11 11 9 7 5 7 8 8 5 5 6 7 7 8 10 10 11 13 15 17 15 14 15
33 45 36 28 26 21 19 19 25 33 29 26 22 22 23 18 15 16 15 10 7 9 13 12 9 7 8 9 10 8 8 8 7 9 13 16 17 17 12 9 9 11 14 16
25 38 39 32 29 23 24 18 25 31 31 21 32 17 31 27 27 27 24 22 17 14 13 13 12 13 11 10 9 8 8 8 8 9 11 15 19 23 23 17 12 10 8 10
33 36 39 32 30 20 22 14 21 15 31 41 36 11 34 35 36 35 32 27 24 21 20 12 14 14 13 12 10 8 8 7 6 8 11 14 20 24 27 24 19 16 14 13
31 31 31 36 26 22 19 25 18 14 32 15 33 34 21 43 37 32 32 29 30 26 23 22 14 17 18 16 15 12 11 8 6 4 7 12 15 20 23 26 25 22 18 16
29 31 31 30 30 24 29 27 12 4 7 8 34 28 28 24 32 31 29 24 28 28 29 28 23 23 23 21 18 16 16 12 7 6 0 3 7 13 18 23 26 27 24 21
34 32 36 34 38 32 25 30 17 7 3 7 18 15 29 30 25 24 30 21 19 20 27 27 28 25 25 21 21 20 18 17 13 9 6 5 6 10 16 21 25 28 29 25
14 30 30 35 33 30 33 35 26 23 8 4 19 30 31 34 20 28 29 27 27 25 28 25 29 30 27 25 22 20 22 21 20 16 13 12 13 11 12 16 22 26 29 29
34 28 33 32 30 32 34 30 27 20 7 4 7 10 20 24 22 30 30 29 27 30 32 28 26 21 22 22 19 19 19 25 25 25 23 21 22 19 15 18 21 24 28 29
40 32 32 27 32 33 36 33 33 28 21 7 3 12 13 20 19 28 28 28 27 25 30 25 23 23 23 29 29 24 22 23 25 26 27 25 26 25 21 19 20 23 27 29
43 23 41 37 24 21 31 37 29 25 13 11 14 18 11 12 18 25 26 22 20 26 31 22 24 24 25 26 26 26 27 25 25 26 27 23 27 28 25 21 20 22 25 27
40 41 31 26 27 27 41 30 33 25 18 23 8 4 13 19 23 20 20 19 17 13 18 19 24 26 25 30 29 29 30 30 29 29 25 26 28 27 26 24 21 22 25 24
44 42 42 30 27 19 43 36 31 31 32 25 21 12 23 24 23 23 26 23 22 14 9 13 18 20 20 28 31 28 26 27 28 27 26 26 26 27 26 25 20 21 24 21
51 42 39 31 33 32 38 44 41 35 33 33 29 21 29 29 28 27 28 24 24 21 16 15 18 21 24 25 29 31 34 24 30 28 29 26 25 26 25 23 20 22 22 19
57 40 41 39 32 25 25 38 37 33 33 30 27 27 23 26 28 31 31 27 21 22 21 14 16 22 23 26 28 22 27 23 26 30 32 29 28 24 24 19 19 21 19 16
41 50 35 38 31 18 14 11 25 22 24 27 24 34 31 31 35 35 32 24 19 22 24 15 17 21 27 31 31 29 29 27 31 31 32 32 28 29 17 16 18 17 15 17
17 46 40 22 25 5 11 31 19 9 16 18 23 34 41 32 33 37 34 29 20 23 16 10 11 16 24 28 31 33 33 31 32 32 30 29 26 19 15 15 16 16 19 20
4 34 21 19 28 15 15 10 13 17 1 7 10 15 30 28 23 35 28 24 22 21 18 9 11 15 17 19 25 27 29 30 34 33 31 27 25 19 14 13 16 19 20 20
3 5 30 19 15 5 13 7 6 4 8 9 8 18 24 26 32 32 29 23 18 13 11 10 16 18 18 18 20 21 21 25 30 30 27 24 21 17 12 13 17 19 18 19
7 5 4 18 8 7 5 8 11 6 8 2 10 17 16 18 19 17 15 17 18 19 15 20 25 17 24 22 18 19 19 24 24 24 22 18 17 12 9 14 19 18 19 27
5 6 8 4 4 5 6 7 13 13 14 16 17 21 17 15 24 22 18 12 8 16 27 26 23 24 28 28 20 16 18 21 24 22 16 25 25 21 24 14 19 20 29 31
4 5 17 7 11 15 12 14 20 19 20 20 20 21 22 20 17 15 17 16 17 17 17 21 25 26 27 27 20 20 22 23 26 25 24 32 34 29 30 10 21 32 32 29
5 4 12 12 16 18 19 18 13 14 16 19 22 18 19 11 11 15 20 17 22 25 29 33 27 30 31 26 25 23 20 24 28 28 30 23 33 42 12 15 17 28 32 30
12 17 16 26 21 20 15 19 19 15 14 10 11 15 17 21 18 11 10 24 32 36 34 35 25 28 31 28 25 20 23 29 30 26 20 20 23 15 16 15 19 23 27 30
20 21 26 26 26 24 24 23 17 17 18 14 16 11 13 23 33 31 35 27 31 34 28 16 21 28 29 27 27 32 37 35 33 32 24 21 13 14 11 16 21 23 25 25

GFSCGP_700_spd_003.txt.gz
Wind_Speed
36 36 39 31 23 13 39 33 31 23 26 29 26 21 11 8 8 12 19 19 17 15 13 15 14 13 12 12 11 9 8 10 7 5 5 5 7 10 13 15 15 16 17 18
37 43 40 31 25 21 26 14 27 24 31 33 27 22 13 9 5 11 13 14 14 14 15 13 11 11 11 11 11 10 8 5 4 6 9 10 9 7 8 11 12 14 15 15
42 44 38 35 31 27 19 19 16 18 31 29 22 20 23 19 15 16 15 9 9 11 15 14 11 10 10 11 10 8 8 8 11 12 13 15 16 16 13 10 10 12 12 14
35 41 41 37 35 29 25 20 16 12 25 27 29 16 30 27 25 25 23 20 15 13 13 15 14 12 10 11 13 12 10 10 11 12 10 10 13 18 21 18 15 12 9 9
29 37 52 43 40 33 27 21 17 18 23 31 35 15 28 31 32 29 28 23 22 18 15 13 14 12 11 12 11 13 14 13 12 13 12 10 9 13 17 20 22 21 16 13
35 18 44 52 42 32 26 24 22 23 21 18 38 33 25 32 31 22 28 25 25 22 21 19 14 14 13 13 15 16 17 15 12 9 7 7 10 7 12 16 22 24 23 19
33 33 31 36 48 37 33 26 6 3 3 6 35 31 32 23 27 23 17 15 14 24 25 23 22 20 19 19 17 16 17 16 13 12 9 6 1 4 8 14 17 21 25 25
25 27 38 35 37 36 36 31 18 7 5 9 14 17 44 33 29 22 20 17 14 16 20 20 21 23 20 15 15 18 20 16 16 16 14 11 7 5 7 10 13 18 21 23
27 38 35 41 34 33 34 33 28 29 8 4 13 20 31 30 20 24 23 29 22 22 21 18 21 22 25 21 18 16 17 21 21 22 20 16 14 12 10 12 15 18 19 21
30 11 36 38 36 34 35 30 18 13 6 5 8 10 12 17 23 22 26 28 26 22 25 24 23 20 21 16 19 23 21 20 24 25 25 22 20 19 17 18 17 20 22 22
42 31 27 29 40 38 34 35 33 27 22 7 4 15 21 15 21 21 21 19 27 20 19 20 20 21 16 15 19 21 27 24 23 28 29 29 28 25 23 23 20 21 21 22
48 36 40 37 33 32 30 35 37 30 10 14 16 21 15 16 14 22 20 22 22 18 15 18 20 21 19 22 23 20 26 31 28 26 27 30 33 31 29 27 22 24 22 22
47 45 30 32 39 34 34 31 30 40 35 27 15 16 16 15 14 15 18 24 19 22 23 18 21 24 24 20 25 26 24 24 31 31 30 31 36 26 26 24 24 24 21 20
46 45 45 32 32 32 28 32 30 39 33 25 30 20 17 17 21 20 21 25 21 21 20 19 17 18 21 22 27 29 28 28 29 31 35 33 31 23 24 24 25 24 19 20
47 45 44 49 49 32 23 22 27 40 38 33 29 26 24 20 20 21 24 26 23 22 26 22 16 14 15 21 26 29 28 32 32 33 40 36 29 26 26 25 23 21 18 19
33 45 49 47 45 46 38 33 31 40 38 37 36 31 27 21 22 26 28 28 29 27 24 24 16 16 18 18 23 22 26 22 26 27 35 39 33 29 28 26 22 18 17 16
5 46 43 40 39 35 27 23 26 38 44 39 35 30 30 19 26 27 29 29 31 28 24 22 21 14 14 18 24 28 26 25 27 28 33 45 30 29 28 29 22 18 14 12
19 24 44 42 35 9 24 21 22 25 31 24 18 19 18 23 27 28 33 31 33 28 24 23 16 13 10 13 16 19 26 30 32 32 35 41 32 25 25 22 22 19 15 12
18 14 32 30 28 15 17 24 22 20 9 15 20 31 30 30 31 34 35 35 34 26 20 20 12 5 8 9 10 14 19 23 29 32 36 39 22 24 23 20 22 19 12 14
5 13 28 25 18 5 20 20 26 22 20 19 19 15 13 16 20 27 37 35 27 22 22 19 11 8 10 11 16 19 19 24 26 28 30 27 23 23 19 19 18 16 18 16
10 8 3 10 9 7 23 16 22 16 13 17 30 24 21 19 19 27 26 22 21 18 17 16 15 17 16 21 27 23 18 21 21 24 28 31 30 30 28 30 32 24 18 17
5 4 7 4 6 5 20 20 18 18 22 17 19 20 20 19 20 20 20 21 19 15 15 18 17 17 21 26 28 24 21 17 22 24 25 27 29 30 32 29 30 27 28 33
3 3 6 4 21 25 19 23 24 24 25 22 20 24 21 21 21 22 20 20 20 24 22 25 23 27 30 32 29 29 24 23 26 25 26 28 29 34 30 29 30 32 34 35
25 24 12 19 27 29 29 29 26 24 22 21 21 24 26 26 27 24 30 20 16 17 24 28 29 27 31 29 29 35 28 26 24 23 24 25 31 31 32 37 28 33 28 16
21 22 17 23 28 27 24 21 19 14 9 9 14 13 14 14 18 20 24 24 26 32 39 40 37 35 38 28 27 31 31 30 25 22 29 32 35 32 9 8 19 23 22 18
20 27 32 30 21 14 17 18 15 11 15 18 18 17 19 32 30 24 24 21 24 29 25 28 34 37 25 20 23 27 27 19 20 24 29 33 27 32 26 13 14 23 18 19

GFSCGP_700_spd_006.txt.gz
Wind_Speed
35 37 41 34 24 18 29 32 40 36 27 34 29 23 16 9 7 12 27 24 22 19 15 16 15 14 12 13 13 10 8 7 8 5 4 4 5 6 7 9 11 13 14 15
36 44 39 31 24 20 25 34 41 31 28 27 32 26 18 15 7 5 8 18 19 19 24 22 21 18 15 13 12 11 8 4 5 9 9 8 6 4 4 5 5 7 9 10
38 41 37 31 27 23 25 37 35 35 33 24 27 26 27 21 14 14 14 14 15 16 15 17 18 14 15 14 12 10 8 10 12 13 14 15 15 14 13 11 10 9 9 9
31 35 36 34 29 27 25 31 33 17 18 28 29 12 32 28 24 23 21 22 20 18 18 18 17 15 15 16 16 14 14 14 13 12 11 11 13 15 17 19 20 19 16 13
25 36 30 33 36 31 27 31 30 20 16 17 22 14 30 30 32 30 27 25 22 22 20 18 17 16 14 16 17 19 18 16 16 16 13 10 9 10 12 14 17 19 19 19
26 18 35 33 34 33 31 19 17 11 11 9 25 30 31 34 34 25 27 28 25 24 23 21 20 17 17 16 17 20 20 19 17 16 14 12 10 7 6 7 11 13 15 21
24 30 25 25 34 31 33 25 3 1 4 6 15 22 32 27 30 31 21 16 21 24 27 25 23 21 20 18 16 16 19 18 16 15 13 12 10 7 3 2 6 10 14 17
25 18 34 27 28 35 37 35 14 6 5 6 11 17 32 17 29 20 20 16 19 21 21 29 25 23 20 17 15 15 17 19 17 16 17 15 14 11 8 5 7 11 13 16
22 23 29 37 29 31 31 30 28 24 10 3 8 20 29 26 22 24 32 28 24 22 22 24 25 26 23 21 17 13 13 16 21 20 21 20 18 16 14 11 10 12 14 15
31 12 32 29 34 32 33 31 19 12 5 5 7 11 26 22 21 23 25 22 25 27 22 24 24 23 21 17 18 20 18 17 18 21 24 25 23 22 21 19 16 16 17 17
42 36 23 27 42 46 39 30 27 15 13 7 4 9 18 13 14 18 25 16 21 23 21 17 22 20 17 14 18 19 21 22 23 23 25 29 30 29 28 25 23 20 22 21
23 40 41 38 22 43 45 39 36 29 13 9 14 24 11 19 25 23 14 16 19 20 20 16 16 19 21 22 21 21 22 24 21 27 29 32 35 34 33 31 27 26 25 23
23 28 35 38 43 38 35 44 39 37 32 30 16 22 25 23 20 18 17 19 18 20 22 21 21 21 22 24 25 24 24 22 23 29 33 33 35 36 34 35 32 31 25 23
23 34 35 36 42 36 36 36 27 28 28 27 33 30 33 26 26 18 19 21 20 23 24 20 20 24 25 25 22 22 22 22 26 30 34 37 36 35 35 40 26 28 23 24
13 36 42 48 47 40 31 38 36 36 34 29 34 39 36 25 25 20 24 20 23 25 26 21 17 21 22 21 17 13 16 22 23 24 26 30 34 40 39 42 30 27 22 25
16 26 37 48 47 48 36 25 34 33 30 27 34 36 35 30 24 22 24 23 23 21 18 22 19 24 19 17 16 15 20 21 21 24 23 25 33 39 46 43 33 26 25 26
20 15 38 37 44 45 40 49 46 37 33 36 35 37 37 32 24 22 20 23 23 20 19 24 21 24 19 19 20 23 26 28 30 28 27 29 27 33 45 41 25 29 33 29
22 20 24 42 24 7 39 44 40 37 34 30 33 37 42 31 25 19 21 23 24 23 23 25 25 19 18 20 19 17 17 21 26 30 31 30 34 35 39 46 35 35 32 23
16 16 18 17 25 13 23 25 32 36 32 29 27 29 24 21 17 17 21 27 33 29 28 26 22 20 17 14 11 9 7 12 17 21 24 28 31 33 37 39 24 30 30 26
25 15 15 12 10 8 20 26 26 28 22 21 20 20 23 26 22 17 23 30 38 40 34 31 25 22 16 10 9 7 11 17 20 19 25 24 27 32 32 28 24 31 32 29
16 13 12 10 6 9 23 31 33 20 15 19 20 22 17 19 20 19 18 16 25 34 31 26 23 23 14 12 12 10 11 19 25 23 24 27 31 30 26 28 30 34 35 25
42 15 3 2 3 2 20 30 26 27 18 11 10 18 23 18 17 14 16 23 29 30 27 27 25 15 15 16 15 20 28 32 29 30 29 29 30 29 28 27 33 30 28 30
29 25 10 2 7 5 11 20 32 27 28 24 16 17 19 21 23 28 28 28 26 23 27 27 23 21 24 31 27 35 28 28 29 31 29 30 28 26 23 23 28 35 32 35
24 29 9 9 22 31 35 35 31 27 28 31 25 20 25 24 23 22 23 23 26 24 21 20 30 30 29 29 30 34 38 33 30 32 27 27 23 21 27 32 35 40 36 40
29 29 25 16 22 24 24 25 26 26 24 17 14 19 23 20 17 10 11 15 19 23 24 29 33 35 42 40 42 40 39 27 28 33 27 29 29 29 30 30 37 31 29 21
26 28 31 32 26 24 10 11 12 13 10 2 6 10 14 14 13 21 18 16 22 26 26 20 23 24 27 34 33 28 24 20 19 20 18 15 14 17 16 23 23 28 32 18

GFSCGP_700_spd_009.txt.gz
Wind_Speed
31 34 39 35 32 24 23 26 24 25 25 26 26 24 25 12 14 17 25 25 23 20 17 19 19 19 18 16 15 13 11 9 12 10 10 10 10 12 12 13 13 13 13 14
28 36 37 34 28 28 21 27 24 20 24 20 26 29 27 23 16 13 11 25 26 25 25 24 23 22 20 16 15 13 12 9 10 10 9 7 6 5 5 5 6 6 7 6
28 24 33 32 33 31 26 26 26 24 25 29 16 22 31 31 23 21 15 13 26 27 26 27 28 25 22 19 17 15 13 12 14 16 14 13 11 11 11 10 9 7 7 6
25 32 27 34 32 34 29 25 25 27 19 23 20 25 21 29 30 26 20 18 18 24 24 24 25 23 22 19 20 20 18 17 16 16 16 17 16 16 16 16 16 17 17 15
19 27 28 35 36 33 24 25 24 29 23 19 16 12 21 22 24 27 29 24 19 19 20 20 19 18 17 21 22 22 21 20 18 16 15 15 14 14 13 11 11 12 14 16
21 16 21 30 34 32 26 24 22 25 18 15 21 20 17 21 22 21 27 31 26 21 21 21 22 22 22 22 23 23 21 19 18 17 16 16 13 12 9 8 7 8 9 10
22 27 18 24 26 35 33 23 11 11 9 10 19 18 28 19 21 11 18 25 30 28 26 26 26 26 25 22 21 21 21 19 19 18 16 16 15 12 10 6 2 1 4 8
25 22 34 23 34 29 39 33 23 16 10 15 21 16 22 24 22 18 17 16 20 31 31 29 28 27 26 22 21 21 21 23 21 19 16 17 17 15 13 9 6 6 7 10
19 27 25 31 27 30 32 36 33 23 10 9 13 18 18 20 17 18 16 18 14 19 24 30 32 30 27 23 18 16 20 21 23 21 21 20 21 20 18 15 12 11 12 13
22 9 29 25 31 29 28 29 25 22 18 17 12 10 14 14 19 17 20 15 17 23 23 24 27 34 31 24 21 20 19 19 19 23 24 24 25 25 24 22 19 17 17 17
27 24 14 23 31 37 26 23 20 21 22 14 15 22 20 21 18 18 17 19 23 21 25 27 24 26 24 21 22 23 25 23 22 21 22 26 31 30 28 26 26 28 23 24
28 19 26 30 17 32 31 30 31 30 19 18 21 24 10 9 19 18 19 23 20 21 25 30 25 25 26 26 26 27 24 25 23 23 26 27 30 33 27 31 27 29 35 27
15 13 18 20 28 37 26 37 35 30 30 31 22 25 21 20 19 21 18 21 22 20 23 27 23 25 29 26 27 26 27 25 23 27 27 31 33 37 40 35 38 27 34 33
17 14 19 25 31 30 31 27 29 36 34 30 33 31 27 28 23 20 24 23 18 24 21 29 24 23 24 26 28 27 27 26 26 27 27 30 33 35 39 41 45 46 33 30
14 20 24 36 38 37 38 36 32 31 46 38 37 37 36 30 26 27 25 26 20 25 24 29 18 17 26 28 27 26 26 25 22 22 22 22 24 36 42 45 49 48 50 31
16 9 11 24 34 33 40 40 36 33 36 36 35 33 31 30 30 32 26 28 27 24 21 24 23 18 24 26 28 25 23 21 20 20 20 20 24 29 38 47 49 49 48 30
19 5 11 15 17 26 34 39 36 37 35 38 39 37 29 32 38 29 27 25 27 24 25 24 23 22 23 23 22 23 23 26 27 28 29 30 31 30 31 35 39 45 46 44
16 15 7 14 7 10 30 34 38 37 40 33 33 32 37 36 35 32 31 27 24 24 27 28 23 26 23 28 24 26 29 27 27 24 23 24 29 33 33 33 33 35 36 40
16 6 7 8 9 14 16 24 27 37 44 45 39 33 32 37 37 31 35 27 27 24 27 28 27 27 29 27 28 27 26 18 15 10 10 14 18 23 29 35 32 33 33 38
24 6 1 12 13 6 12 22 25 30 34 38 33 31 29 32 29 28 32 31 28 27 27 31 27 30 33 32 31 27 26 22 15 11 14 23 24 24 27 30 31 30 30 30
20 23 4 15 15 14 17 22 25 20 21 32 33 31 29 28 31 31 33 25 22 23 33 38 31 34 35 33 30 28 29 22 18 21 32 37 34 26 27 30 30 27 29 30
22 20 18 7 9 9 8 15 18 21 18 28 28 27 26 27 29 29 27 17 17 16 18 27 33 36 35 34 31 27 22 20 28 37 34 33 28 30 27 29 27 22 27 28
20 25 29 18 15 26 15 17 20 23 25 23 29 24 20 24 24 21 21 21 19 26 26 33 30 27 24 24 21 17 19 29 33 27 31 29 26 30 28 24 16 19 23 23
20 25 24 21 18 5 24 36 37 35 32 34 30 30 25 24 28 27 26 25 27 26 26 25 24 18 16 20 26 28 30 42 41 33 27 24 25 26 26 19 16 16 22 31
23 23 20 16 23 22 24 28 30 31 29 27 27 26 29 29 28 25 22 21 20 16 15 17 20 23 28 32 34 35 34 33 30 24 19 18 20 20 21 19 19 13 16 19
31 32 32 31 29 26 22 17 19 18 15 11 7 8 11 19 20 16 14 14 14 15 19 23 25 26 29 27 25 26 27 23 17 13 11 10 12 12 8 9 13 16 17 20

GFSCGP_700_spd_012.txt.gz
Wind_Speed
27 32 36 32 31 28 22 20 18 21 16 18 17 17 14 15 13 19 22 26 24 22 19 20 21 21 21 20 19 19 17 14 15 16 16 14 14 15 15 15 16 15 15 15
25 37 31 29 29 30 25 24 22 20 17 17 16 19 17 18 18 18 20 25 28 25 27 25 25 24 23 21 19 19 17 16 16 18 16 15 14 13 12 12 13 13 14 12
30 28 29 30 31 32 31 27 25 22 17 17 16 20 19 21 20 21 21 21 25 30 31 29 27 26 25 23 21 21 19 17 17 17 16 14 12 11 10 9 8 7 7 6
28 31 31 30 33 33 34 30 25 24 20 21 20 20 17 18 21 23 25 23 22 30 34 33 32 30 28 24 23 22 22 21 19 19 17 16 14 13 12 12 14 14 13 11
32 33 32 34 35 34 37 28 27 24 25 26 18 18 19 14 19 22 22 23 23 22 28 32 34 32 28 26 26 25 25 22 20 19 19 20 19 18 16 14 12 11 11 10
31 25 30 33 32 32 30 27 26 25 27 28 32 23 24 19 19 16 19 24 24 24 22 23 24 24 25 25 26 28 27 23 21 20 19 19 21 18 15 12 10 8 6 5
27 32 24 27 32 33 32 30 21 20 20 16 29 31 28 16 16 14 14 22 16 23 25 23 24 27 26 26 26 28 27 23 21 20 19 20 19 17 15 12 9 5 1 3
30 31 36 24 40 39 41 41 27 24 16 17 32 24 33 26 24 22 21 15 16 16 21 29 26 26 26 25 26 25 23 22 20 20 19 20 20 19 17 14 12 9 6 6
30 35 26 34 30 40 41 46 41 34 30 27 29 26 31 26 23 19 18 15 14 15 22 28 30 29 29 28 25 22 21 23 22 21 21 17 19 22 21 19 16 13 11 10
22 20 32 27 28 36 40 41 41 43 25 22 29 27 22 21 20 19 19 15 15 19 21 21 25 31 33 31 26 25 25 26 26 26 23 23 21 22 23 23 21 19 18 18
29 20 18 32 40 40 38 36 44 41 42 19 18 30 27 23 20 15 15 16 14 16 20 24 24 27 36 32 28 26 25 24 27 28 24 25 25 25 28 28 25 24 23 26
29 23 25 24 32 35 38 39 38 37 38 40 42 34 28 28 24 25 24 18 17 19 17 20 26 31 29 34 34 30 30 29 26 23 23 25 26 30 32 32 31 28 21 27
28 32 23 26 26 27 39 45 43 43 40 42 30 34 29 17 16 12 19 16 19 21 25 23 28 35 29 31 32 32 33 30 27 26 27 28 29 30 31 34 39 37 37 31
16 29 36 29 33 36 36 39 43 44 45 40 50 34 35 33 29 25 21 20 24 21 22 25 32 33 31 32 34 32 30 31 27 29 29 31 30 31 32 37 42 41 43 42
24 24 23 30 28 27 33 39 41 46 50 48 39 46 41 38 31 28 26 23 26 25 24 21 31 34 30 32 33 33 32 31 27 30 30 30 31 33 36 40 41 42 48 53
21 23 25 31 30 31 36 37 41 44 46 49 49 52 38 40 39 36 30 29 28 26 27 22 27 34 24 23 26 30 28 26 28 30 31 27 26 26 28 34 36 40 45 49
23 25 22 27 28 25 31 39 41 42 46 45 48 47 45 48 38 35 36 34 35 29 27 25 26 31 23 24 26 28 30 29 30 28 28 27 28 30 30 32 32 35 37 41
19 24 25 25 13 16 29 29 36 40 41 45 42 37 37 41 39 34 34 33 36 32 30 28 26 32 28 26 30 31 34 36 33 33 30 29 29 24 23 20 22 27 33 32
26 23 24 26 26 21 16 12 15 27 40 39 41 37 32 32 32 40 37 34 34 34 32 29 31 31 31 34 32 32 32 34 35 34 34 30 23 14 16 24 22 22 25 28
26 27 28 17 21 18 11 13 23 27 26 35 36 36 34 33 33 37 38 43 36 34 34 31 33 36 36 30 33 31 37 36 36 35 31 24 19 22 28 31 27 26 28 28
28 28 30 21 18 18 20 18 21 11 17 25 34 40 36 36 32 31 35 37 37 34 37 35 35 37 37 36 35 37 36 36 33 30 27 25 24 29 29 27 28 26 28 27
32 32 28 22 17 18 17 17 20 17 21 20 31 33 35 37 40 35 35 35 37 36 38 36 35 34 32 35 36 35 33 29 26 22 21 24 24 24 26 25 30 27 25 19
27 31 22 22 18 20 17 17 17 19 6 8 16 30 31 34 35 33 36 34 36 37 37 35 32 33 36 37 37 32 29 28 27 23 23 25 31 33 29 27 29 28 21 18
20 20 19 20 22 14 9 10 15 17 13 17 18 19 21 28 31 31 31 30 29 29 29 32 34 36 37 35 34 30 27 28 26 28 33 35 29 26 24 25 24 21 19 17
18 20 12 14 16 13 6 13 21 23 24 24 27 31 37 36 32 31 31 27 29 32 32 32 31 30 28 27 26 24 25 29 33 32 33 31 28 26 26 25 22 22 20 16
20 20 11 12 15 15 26 31 21 19 21 19 20 20 25 26 29 29 22 20 28 29 25 25 25 26 26 27 29 30 31 28 25 23 24 24 24 23 22 22 20 17 16 16

GFSCGP_700_spd_015.txt.gz
Wind_Speed
25 29 39 36 33 29 26 24 17 20 21 23 20 16 14 14 16 16 19 22 24 24 22 23 22 24 25 24 22 21 21 18 17 16 17 18 17 16 16 17 21 15 15 16
22 36 34 31 33 31 29 27 23 18 21 26 21 21 20 17 17 18 20 21 24 25 25 26 26 25 24 23 21 20 20 19 18 17 18 18 12 14 18 16 16 16 15 15
33 30 32 33 34 35 34 31 25 23 23 23 20 23 21 19 18 19 20 21 22 27 27 29 29 28 26 26 22 20 18 20 20 18 20 19 20 14 15 13 11 12 11 10
30 26 31 37 38 36 36 31 27 26 23 21 27 26 29 25 23 22 22 24 24 26 29 29 30 31 29 27 24 22 21 22 22 20 21 18 17 16 12 9 8 6 6 6
35 32 33 38 41 39 37 31 30 28 28 30 31 30 22 25 27 24 22 24 25 25 27 31 31 30 30 29 28 25 24 23 23 22 20 19 19 15 12 12 13 12 11 8
32 28 33 33 36 35 34 32 32 33 32 25 33 31 33 24 23 20 21 21 25 26 27 29 30 30 30 30 30 29 28 26 25 23 21 20 17 16 18 17 15 13 11 8
30 37 31 34 35 37 37 37 29 27 26 21 33 34 33 25 20 22 21 21 24 27 28 29 25 27 30 29 31 29 29 28 26 24 21 19 17 18 17 18 17 15 10 6
34 30 39 34 39 40 44 45 37 26 18 20 35 34 39 29 20 15 18 18 17 25 27 28 21 23 25 26 26 26 27 27 27 24 21 19 19 19 18 18 18 14 9 8
31 34 23 40 33 37 43 50 45 40 36 29 35 35 31 23 29 28 23 22 20 23 28 24 24 24 23 23 22 23 25 26 26 24 22 19 20 21 19 18 17 14 14 12
29 24 30 31 34 33 48 42 46 45 28 26 35 33 33 32 30 27 25 21 20 22 27 30 31 26 22 25 24 24 24 25 26 25 24 22 18 18 20 18 19 19 19 18
34 28 23 28 42 44 38 50 46 46 47 21 20 30 33 24 21 28 25 24 21 20 25 28 32 27 22 27 28 27 26 27 28 28 28 27 24 20 20 19 23 25 26 22
35 30 28 28 35 33 39 43 48 40 39 44 42 34 27 26 21 21 20 17 20 21 23 24 29 31 29 25 29 31 29 28 27 28 29 28 27 25 23 24 27 30 29 31
34 36 30 29 27 33 42 45 48 51 41 44 33 37 35 20 24 28 26 24 20 13 16 21 24 33 35 31 27 31 32 30 27 27 26 27 28 27 27 28 33 34 34 37
24 33 41 30 34 30 39 39 44 46 47 39 48 43 38 34 23 22 21 20 22 17 21 18 24 27 34 35 31 28 31 32 30 30 30 28 27 27 29 31 33 37 36 39
27 31 35 37 32 26 32 37 39 47 46 48 42 45 42 39 35 30 27 24 21 20 22 21 20 22 26 35 33 30 32 32 33 33 31 30 29 30 32 33 34 35 36 38
34 31 29 30 31 34 32 32 40 38 44 49 45 49 43 42 37 30 31 29 27 24 21 28 25 25 25 31 34 31 32 35 35 34 31 31 31 30 33 33 33 34 34 36
34 32 32 32 30 26 34 37 35 35 40 42 47 52 42 43 40 41 41 37 35 30 27 28 26 26 24 33 34 35 36 37 36 33 33 31 32 31 32 30 31 31 28 28
33 38 34 33 28 25 36 31 33 38 40 40 43 41 42 49 49 46 37 34 34 35 35 30 35 30 27 34 33 34 32 36 36 31 30 33 34 31 27 26 25 16 15 19
32 33 34 33 37 27 32 20 16 15 22 31 39 39 39 40 40 48 52 52 40 31 29 31 37 32 29 36 33 32 32 29 32 35 35 35 33 28 23 22 19 17 21 24
30 28 31 33 32 26 23 14 19 19 23 23 24 27 32 36 41 42 42 39 42 37 33 30 34 33 32 39 36 33 34 33 34 37 37 34 29 27 25 22 21 22 22 22
40 39 39 36 30 32 17 20 20 19 16 19 28 33 34 33 40 36 30 36 37 41 37 33 31 32 31 40 40 36 35 35 36 37 34 31 28 26 26 23 19 19 22 25
41 42 41 37 38 31 16 10 18 21 18 17 24 30 35 33 31 35 35 30 35 40 41 42 39 35 35 39 39 36 35 36 37 36 33 31 30 28 26 22 24 26 26 28
46 44 39 27 36 26 20 22 19 26 24 19 25 27 14 18 31 29 34 39 41 33 39 38 38 36 38 36 35 35 36 36 34 33 31 30 27 26 23 26 31 31 29 30
34 36 42 18 11 21 22 22 24 26 21 9 4 3 8 15 17 18 24 17 21 28 31 34 37 35 37 35 36 34 34 35 33 31 29 26 24 28 30 33 34 31 30 29
31 25 20 22 17 13 17 22 16 17 14 20 14 20 21 21 19 20 24 25 23 25 27 29 31 32 34 36 36 35 32 31 29 27 27 27 28 31 31 31 28 29 27 25
15 14 17 27 14 9 14 15 14 16 13 12 23 23 29 35 33 33 30 26 25 30 33 34 35 33 33 33 30 25 23 22 24 24 25 24 25 24 23 24 25 24 24 24

GFSCGP_700_spd_018.txt.gz
Wind_Speed
24 28 35 34 33 28 24 24 24 20 14 21 22 16 20 27 23 20 21 22 23 24 24 26 24 24 24 24 21 19 18 17 16 14 13 14 13 12 13 15 12 18 15 14
24 37 31 28 31 31 31 31 31 24 22 25 22 22 18 29 25 22 23 22 24 25 26 27 28 27 26 25 21 18 18 18 18 16 14 14 15 16 15 12 20 13 13 14
32 28 27 31 33 35 33 33 30 27 23 23 23 24 26 26 23 22 22 22 23 27 28 31 31 30 29 27 23 19 18 18 18 19 16 17 17 16 15 12 14 9 12 8
31 28 27 34 37 37 38 32 31 27 25 20 23 21 26 26 28 26 24 24 25 25 28 30 34 33 33 31 26 23 20 20 18 20 19 19 18 18 15 14 11 7 7 4
32 32 33 34 40 38 40 31 32 30 24 24 26 22 22 31 33 32 26 27 26 26 27 31 35 36 28 32 30 25 22 21 20 20 21 19 19 18 17 11 8 7 9 8
29 28 32 35 30 36 34 33 32 33 33 25 31 28 33 35 36 31 31 27 28 28 29 30 32 35 32 27 30 26 24 22 21 20 20 20 16 16 13 12 11 11 10 7
34 34 33 31 34 32 37 36 30 24 24 18 31 35 24 34 36 23 34 31 31 27 30 31 33 30 26 24 26 27 24 24 23 22 20 21 17 16 14 12 14 12 11 13
36 35 36 33 38 37 39 42 32 21 18 22 39 34 31 29 26 17 22 32 31 28 28 33 30 27 22 22 23 23 18 20 24 24 23 22 19 18 15 13 13 15 16 13
36 37 23 39 33 36 39 44 43 42 35 30 34 39 34 27 30 33 25 24 20 30 28 29 32 29 29 25 18 18 17 14 22 24 24 22 19 18 15 14 16 17 17 15
35 29 31 29 34 37 44 38 39 44 26 25 31 36 30 32 28 30 30 29 24 17 28 24 26 29 30 27 21 19 20 15 21 25 25 22 20 16 15 17 18 18 19 21
41 36 27 31 41 43 36 43 42 39 45 18 18 29 34 32 33 32 26 32 27 20 24 25 27 31 31 27 23 23 23 22 23 28 27 25 23 21 17 17 19 20 24 22
39 36 37 36 35 35 44 42 43 39 32 43 40 30 31 32 33 35 29 29 28 28 27 29 28 33 32 28 28 24 26 25 23 24 27 26 26 24 22 21 20 21 24 28
39 42 31 36 35 34 45 44 41 42 44 36 28 32 48 18 29 20 23 27 30 27 27 30 28 32 33 27 28 26 26 26 26 24 23 26 27 27 25 24 24 25 25 28
42 41 49 30 38 34 36 44 40 42 40 41 42 38 47 21 15 23 30 26 24 20 15 25 20 30 33 27 22 29 28 26 27 28 25 23 25 25 25 25 26 30 30 31
30 29 37 45 39 34 35 37 40 41 45 40 43 41 40 47 28 32 20 27 26 23 22 25 24 25 30 36 26 26 29 26 27 29 28 24 22 23 24 25 26 28 32 32
41 31 29 33 37 38 37 36 39 41 42 46 42 45 42 35 40 32 35 33 29 33 23 21 25 23 23 36 34 27 31 30 29 30 29 26 26 27 27 26 29 31 31 31
37 37 31 32 32 33 39 40 34 35 37 36 40 43 35 39 39 33 31 32 32 36 32 25 18 22 23 23 33 35 33 35 33 32 31 26 27 26 27 28 31 32 31 31
39 39 36 34 30 25 38 32 35 31 30 34 37 34 36 45 45 42 36 24 34 36 37 39 37 25 27 29 25 29 36 39 36 34 35 29 28 29 29 28 29 29 28 26
36 38 38 31 34 29 32 30 27 29 36 30 22 19 29 33 35 46 55 44 39 39 25 35 36 41 35 34 28 27 33 37 36 34 35 32 32 34 33 30 28 25 26 21
41 32 33 32 27 26 34 31 23 13 17 14 15 16 17 15 21 24 40 47 47 47 39 30 24 29 40 40 34 30 35 36 33 31 33 36 39 39 34 31 26 26 21 16
23 24 33 32 28 33 18 24 20 23 23 18 16 16 25 26 27 30 15 30 43 38 50 44 40 39 37 37 33 30 37 37 32 33 35 39 39 38 35 30 29 24 18 17
25 22 27 27 29 19 10 29 22 16 17 18 20 18 20 25 29 35 33 21 34 34 36 43 42 39 34 37 25 32 40 40 37 40 39 37 38 36 33 30 24 21 19 19
26 28 28 23 26 29 21 23 21 18 20 22 25 21 25 28 21 23 34 27 31 28 29 29 37 41 42 40 34 33 42 42 40 41 42 39 34 34 31 30 25 19 20 26
24 29 28 32 28 20 22 20 25 23 23 22 21 21 12 8 14 17 19 24 30 32 32 27 29 38 42 41 40 40 43 43 41 42 41 37 32 30 27 24 22 23 27 28
21 23 24 34 32 20 20 15 15 20 23 20 20 21 14 17 15 13 20 19 21 23 29 35 33 32 36 39 43 44 40 40 40 36 32 32 31 28 24 23 23 25 25 24
21 19 11 17 29 30 21 19 15 18 21 26 24 21 19 21 22 18 22 22 23 28 27 27 31 31 29 33 37 36 34 31 30 30 29 25 22 20 20 22 23 22 22 23

GFSCGP_700_spd_021.txt.gz
Wind_Speed
22 26 37 32 32 29 25 28 30 23 26 28 24 26 31 26 26 28 26 24 23 22 21 29 26 24 28 23 19 16 16 13 12 12 11 10 11 10 10 8 11 15 10 11
25 37 33 27 28 31 31 34 35 27 27 28 25 31 29 29 40 33 35 28 27 24 23 25 29 26 27 23 20 18 18 18 14 10 10 11 12 12 12 13 16 7 10 10
34 18 31 29 28 33 37 37 35 25 19 17 24 33 35 28 33 34 39 30 27 25 28 29 29 31 28 26 22 19 18 19 17 13 13 13 15 14 13 12 8 8 9 7
32 30 27 29 36 34 38 40 33 31 24 31 32 17 35 28 32 34 39 35 32 28 28 28 31 31 31 31 26 22 20 19 18 17 15 16 14 14 13 11 8 5 4 4
40 32 30 37 33 35 43 34 35 32 34 23 26 23 27 29 42 30 40 38 34 29 26 22 19 20 23 22 22 24 22 22 21 20 17 18 15 14 14 13 9 7 7 6
35 31 35 34 32 32 33 34 36 38 37 18 31 30 24 34 44 39 38 39 36 33 28 27 21 16 21 21 22 20 24 24 23 21 19 17 14 13 14 13 10 12 12 11
37 37 33 31 32 33 33 34 28 19 19 9 27 37 30 34 34 38 42 36 34 29 32 31 30 20 16 15 13 15 19 23 23 22 20 17 14 14 14 11 12 14 13 9
35 35 41 33 42 37 41 40 30 13 14 12 28 25 39 36 29 29 46 31 39 34 37 36 28 19 15 17 14 10 13 15 21 23 21 19 16 16 13 12 12 13 12 12
32 42 27 38 36 39 36 50 44 30 29 19 29 31 40 37 34 35 46 36 36 24 45 38 32 24 20 22 19 13 11 11 14 22 22 22 19 17 13 15 13 14 13 15
37 27 34 34 35 38 43 37 36 45 15 19 27 32 36 29 37 37 44 38 36 25 35 50 27 21 15 15 18 18 14 14 13 17 20 23 21 19 17 18 17 16 15 12
40 41 36 29 40 44 41 44 44 29 40 12 10 32 40 26 27 38 40 33 28 30 38 52 36 24 18 17 19 19 19 17 18 18 20 24 25 22 21 19 17 15 17 16
47 37 43 51 33 43 43 41 41 32 19 29 30 36 35 26 29 34 40 42 33 29 32 40 38 28 21 20 18 21 20 20 20 20 21 25 27 26 24 20 16 17 17 18
44 51 33 39 48 42 51 47 42 45 36 34 14 34 50 42 33 14 23 38 23 30 31 35 37 32 22 22 20 21 23 21 20 24 21 25 30 28 25 21 20 19 19 21
22 51 56 35 43 32 27 48 45 44 41 42 50 40 33 34 27 21 25 29 29 31 32 30 38 35 26 24 20 19 22 25 22 23 23 22 26 25 24 22 22 22 22 23
27 34 50 57 46 26 46 29 49 50 49 40 38 42 49 41 26 18 20 24 30 29 25 27 38 38 28 24 21 22 18 20 24 24 24 25 23 24 26 27 26 26 27 25
29 21 47 42 49 48 45 38 38 47 48 49 46 46 28 33 30 30 26 22 28 31 17 27 32 36 28 25 22 21 21 20 20 26 25 26 26 26 26 25 26 25 26 29
27 17 26 29 34 22 39 54 41 32 44 43 44 47 41 39 36 27 23 25 32 27 30 27 32 32 32 31 27 19 21 21 22 23 29 28 29 29 27 26 26 25 24 26
29 25 23 25 24 10 28 35 38 37 25 34 43 39 34 37 39 32 24 20 36 22 33 32 30 30 23 20 24 21 19 25 23 27 31 31 31 31 30 30 29 28 28 29
26 27 16 18 30 16 29 25 26 25 34 26 20 34 31 32 35 39 34 32 27 30 28 23 30 31 28 32 28 23 23 23 24 30 34 31 32 31 32 31 30 29 29 29
32 29 30 19 14 15 30 29 22 17 23 29 24 21 21 23 25 32 31 22 26 23 32 43 41 21 31 35 35 36 37 31 27 26 35 32 32 31 32 32 32 29 31 28
15 19 19 27 19 19 1 30 20 23 17 22 23 23 23 23 23 26 30 26 16 23 29 28 33 38 32 30 28 35 37 34 29 28 36 35 34 32 33 36 35 33 28 28
5 5 15 8 15 5 34 20 24 28 12 15 22 22 19 19 24 24 30 34 33 35 26 31 34 42 46 41 34 29 34 31 30 32 34 36 35 36 37 39 39 32 28 27
18 8 15 12 2 11 16 19 19 16 17 23 22 23 25 24 23 28 28 27 35 41 39 30 38 34 39 47 47 34 36 26 25 35 39 40 42 40 39 39 33 33 30 28
27 18 20 22 3 14 15 10 14 14 26 24 19 19 20 24 23 24 24 26 25 22 32 35 27 28 31 37 37 37 39 38 37 32 42 44 47 43 41 34 34 31 28 22
17 21 19 14 15 9 21 14 25 26 18 21 20 23 25 22 14 15 17 23 29 25 26 33 32 30 31 29 29 30 34 35 41 39 40 43 44 40 32 31 29 22 21 21
6 8 6 8 18 5 21 18 26 23 27 27 24 21 22 21 17 20 23 23 25 24 24 28 31 32 31 25 23 26 29 34 36 36 33 32 28 28 28 22 20 20 22 25

GFSCGP_700_spd_024.txt.gz
Wind_Speed
23 25 34 35 33 31 31 25 26 25 17 14 33 27 29 29 32 28 24 24 18 10 16 21 23 27 25 21 18 18 17 14 14 13 11 11 10 10 10 7 11 10 11 11
27 36 32 28 30 30 32 30 33 30 21 19 32 28 30 34 33 31 26 26 23 16 19 20 22 24 23 20 19 19 18 17 14 13 13 13 12 12 13 13 13 14 12 9
34 23 31 30 31 28 34 37 37 31 17 17 31 32 37 39 38 32 30 29 26 25 17 17 26 27 24 23 21 18 18 18 16 15 16 16 16 14 13 12 11 10 9 7
34 32 17 31 33 32 35 42 41 34 26 22 19 11 33 39 42 38 34 37 33 32 26 21 15 26 30 27 23 23 21 20 18 18 18 16 15 13 11 11 7 7 8 5
30 31 35 32 32 37 40 32 35 33 33 32 32 20 26 28 49 46 44 45 36 35 33 23 15 14 15 21 25 24 23 22 22 21 19 16 16 14 13 13 10 9 7 10
33 24 24 33 29 28 30 32 32 32 34 24 39 32 32 39 35 40 45 46 37 35 35 30 17 15 16 16 18 18 18 25 25 24 21 17 15 15 13 12 10 9 12 14
35 37 33 29 31 28 30 34 20 14 16 12 34 27 33 24 33 38 37 38 38 33 31 34 26 21 21 21 18 19 20 20 26 27 24 19 15 16 13 13 11 12 14 13
36 29 39 33 41 36 38 40 25 9 4 6 31 17 42 37 33 31 36 40 41 35 26 29 29 20 21 20 17 14 16 19 20 27 26 22 18 18 15 14 12 14 15 16
16 38 33 41 37 40 41 42 34 38 31 13 18 25 40 34 35 36 35 44 43 38 30 20 24 25 25 25 21 16 14 15 17 21 27 26 21 21 18 16 16 17 19 19
47 26 23 33 34 41 36 35 29 29 14 16 13 21 36 32 35 29 34 39 44 44 36 27 27 30 31 25 24 19 16 16 14 15 23 25 22 22 21 19 18 19 20 19
44 44 39 29 36 43 46 46 35 37 35 11 4 32 42 39 33 25 25 39 43 49 43 38 32 32 30 25 25 25 21 20 22 20 19 21 23 26 25 20 19 21 22 21
43 41 43 50 41 32 47 43 41 31 22 33 41 50 23 23 29 28 35 32 43 49 46 39 28 32 36 25 25 24 24 23 24 22 20 19 24 29 27 23 20 24 22 20
12 30 32 35 42 47 42 42 52 50 36 39 19 23 42 40 32 27 15 25 42 52 41 47 40 35 37 30 26 22 23 22 22 25 25 22 25 28 29 26 22 23 23 21
29 34 36 34 43 37 36 51 36 52 43 38 57 39 32 27 38 35 32 29 28 36 39 30 48 37 37 37 24 21 23 21 21 25 29 26 23 27 28 27 26 24 22 20
18 30 30 41 40 48 47 42 48 47 57 51 51 41 45 42 36 23 14 23 32 30 40 24 27 42 41 40 29 20 21 24 21 24 27 29 25 27 31 31 29 27 27 26
17 17 18 31 34 45 52 48 45 38 52 56 49 46 39 36 25 44 30 16 35 28 42 37 34 38 37 46 35 26 24 23 23 21 28 27 28 30 34 32 31 31 29 28
18 11 18 16 27 38 41 58 45 47 40 51 48 46 36 36 33 27 32 20 32 43 26 36 34 28 38 41 36 29 22 25 26 23 24 26 32 32 35 34 33 32 31 30
22 17 16 19 15 21 43 48 48 45 34 22 39 43 35 35 30 28 32 29 24 39 39 36 30 27 29 31 40 27 25 25 26 25 28 27 28 34 36 35 34 33 32 31
29 19 13 8 15 14 28 31 45 42 44 40 35 20 46 33 33 36 32 35 24 25 30 26 24 24 32 35 31 29 30 27 26 27 27 31 29 34 38 39 37 36 34 33
23 25 26 20 6 6 28 23 36 20 14 29 32 28 18 38 33 33 36 35 36 32 29 37 26 33 34 32 36 40 38 32 32 31 25 26 37 33 35 39 40 38 37 35
9 15 28 26 17 15 10 29 27 23 14 20 19 23 23 27 29 29 26 25 33 31 32 32 37 32 42 42 37 34 35 38 32 30 28 28 27 41 34 32 37 39 38 37
18 13 16 12 19 10 7 20 33 26 17 18 20 22 25 27 26 26 25 23 23 24 21 27 35 40 37 42 46 48 44 39 30 31 34 31 31 33 37 36 36 38 39 37
22 20 25 17 12 15 13 2 17 25 26 20 20 15 17 20 22 27 28 27 29 30 30 32 31 29 39 40 48 50 46 42 38 35 35 32 33 32 40 41 41 40 38 35
27 32 14 39 15 15 5 10 18 20 22 25 25 18 16 16 17 19 20 22 25 29 35 33 34 36 37 42 49 51 49 49 48 40 36 34 35 35 40 45 43 41 38 34
28 39 32 28 26 13 12 13 15 15 16 19 20 21 18 19 13 13 15 15 18 21 26 32 33 35 40 43 45 47 51 52 51 46 40 34 34 31 34 48 47 41 38 34
29 38 42 22 17 5 12 12 13 15 17 16 15 16 16 16 15 14 16 19 20 23 26 28 29 31 32 38 45 49 48 46 42 39 43 34 33 35 38 44 39 39 31 27

GFSCGP_700_spd_027.txt.gz
Wind_Speed
34 33 42 42 40 37 33 20 32 17 14 5 16 36 38 35 27 24 25 26 19 5 11 16 16 19 21 19 18 18 18 18 18 16 15 13 10 9 7 5 7 9 11 10
30 43 39 34 36 34 34 30 33 32 22 17 14 20 44 36 28 17 16 24 20 11 9 18 21 20 21 21 21 20 20 18 18 17 14 12 11 11 11 11 11 12 14 14
42 27 35 34 35 34 38 36 38 35 18 15 16 19 35 45 34 24 28 26 23 17 12 9 18 23 22 23 22 20 19 18 18 17 16 15 15 14 13 10 10 11 15 12
37 35 24 37 36 35 37 41 37 34 23 16 12 8 31 42 41 35 32 30 31 28 23 22 17 13 24 24 23 23 22 21 20 18 18 17 16 13 11 11 11 12 9 8
31 36 36 33 46 40 44 39 36 32 25 26 32 15 19 38 45 41 33 32 28 29 30 26 24 16 6 20 25 26 24 22 22 21 20 19 18 16 16 16 14 12 8 11
32 21 27 37 28 37 38 29 30 31 26 19 39 23 32 33 44 35 33 34 31 30 29 30 26 26 17 13 14 26 28 24 23 22 22 21 19 18 19 17 14 11 10 13
35 35 22 20 37 26 28 31 12 8 10 11 31 28 35 27 34 38 39 35 34 33 31 29 29 31 23 21 18 19 23 26 25 25 25 23 21 20 20 18 15 13 12 15
30 19 39 34 35 35 41 37 15 7 4 11 24 21 34 39 33 24 30 36 32 37 34 27 28 24 24 19 17 18 21 23 22 21 23 25 23 21 21 20 16 14 15 17
25 34 22 40 39 37 35 40 41 27 15 6 14 36 48 46 35 27 34 33 37 36 34 28 25 30 25 24 22 18 19 21 21 20 18 25 25 24 23 20 18 16 19 22
29 16 32 28 30 39 40 35 27 29 11 12 8 27 21 32 41 39 32 27 38 39 36 34 28 25 27 24 25 20 19 21 18 18 20 22 25 24 24 23 19 18 21 25
48 35 27 21 37 40 46 42 37 35 30 9 4 18 36 35 27 28 34 31 24 32 33 36 38 27 24 26 28 24 24 21 23 23 21 21 24 26 26 27 22 21 24 27
27 22 46 45 33 33 44 48 43 22 28 40 32 24 7 10 37 41 26 25 28 30 28 38 40 38 27 28 29 29 28 26 26 25 25 25 23 25 29 29 24 24 26 28
11 13 16 18 37 41 32 46 50 55 42 42 21 17 34 40 33 21 29 29 31 33 34 28 43 47 28 27 31 29 29 27 28 28 29 28 27 24 29 30 27 25 29 30
12 13 15 17 16 19 35 40 46 56 43 41 48 35 34 31 24 30 33 28 22 19 21 22 33 45 37 28 33 30 30 31 30 32 32 31 30 24 27 31 29 25 28 32
20 21 22 25 26 35 33 26 49 51 56 44 42 46 40 42 39 26 17 21 26 25 26 26 26 38 40 37 36 36 31 32 33 34 34 33 31 25 26 32 32 30 30 32
20 18 22 31 25 25 36 42 39 53 58 49 48 48 35 42 44 41 41 40 28 27 28 28 30 41 36 41 40 42 38 34 35 33 33 32 32 31 30 33 35 34 33 33
21 23 21 16 15 20 31 63 50 40 46 47 52 48 39 46 42 30 27 29 39 29 29 26 28 39 37 33 39 43 41 37 36 36 33 32 33 36 35 35 40 38 37 36
27 19 20 15 12 9 42 38 50 47 45 38 43 34 33 43 36 31 27 30 27 30 26 29 34 35 33 29 33 34 39 41 37 38 34 32 30 34 38 37 40 42 42 40
30 25 20 7 9 23 31 23 25 41 47 40 42 40 26 26 41 41 30 28 27 28 28 32 40 36 36 28 30 34 40 42 37 39 35 34 30 32 36 40 39 44 44 43
28 32 30 10 7 7 11 21 26 30 48 52 47 35 26 22 31 42 32 29 29 27 21 18 22 34 41 36 30 29 32 43 39 36 33 33 34 34 36 35 42 42 45 44
33 34 34 25 12 17 22 14 17 23 41 39 40 42 39 38 27 32 36 31 33 34 29 28 26 32 32 27 30 37 38 42 38 34 33 37 32 32 38 37 38 43 45 45
27 22 26 35 18 17 12 13 6 17 36 39 39 34 36 31 26 23 33 33 28 25 31 34 35 31 28 29 32 34 41 40 42 38 39 34 34 32 31 36 41 41 41 48
29 32 32 35 33 32 22 17 9 18 28 27 24 26 28 29 25 24 26 27 26 26 27 28 30 31 31 34 36 34 40 38 40 44 43 39 41 43 38 37 38 44 46 44
26 33 32 34 35 40 21 13 8 27 28 27 26 23 25 26 27 27 25 24 24 24 25 25 26 29 32 29 28 31 37 39 43 47 48 53 52 44 44 44 39 41 47 48
30 32 42 39 27 35 29 18 15 21 27 28 26 27 24 21 19 18 18 19 19 20 21 23 25 27 30 33 36 38 39 44 49 53 53 54 53 50 48 48 46 45 52 48
33 35 42 42 33 30 31 19 14 22 26 25 26 25 24 22 20 18 17 14 14 17 19 20 23 24 24 26 29 34 44 50 52 55 56 56 53 54 51 50 52 46 48 43

GFSCGP_700_spd_030.txt.gz
Wind_Speed
39 40 51 48 42 39 36 21 28 25 18 17 11 19 24 24 26 28 27 25 22 10 7 16 21 25 25 24 21 19 20 20 19 17 16 13 9 9 10 9 8 10 11 12
40 54 45 41 37 38 38 35 31 28 14 17 12 18 24 30 33 31 26 27 21 14 11 18 22 26 27 25 23 22 21 21 18 17 14 12 11 12 12 12 12 11 10 12
49 30 43 40 38 37 40 39 37 30 10 18 20 21 21 20 26 31 34 27 24 22 14 8 21 23 25 28 26 23 21 20 19 17 17 15 15 13 12 12 10 9 9 12
43 33 17 41 40 38 42 43 33 27 17 14 18 8 19 14 22 32 35 33 28 28 25 20 12 13 24 25 26 25 25 24 22 21 19 17 14 12 9 8 10 11 12 9
40 38 35 36 47 38 39 37 36 31 24 19 28 14 23 19 21 29 29 36 26 23 26 24 18 9 8 22 28 27 27 26 25 22 20 18 17 14 14 15 14 13 11 7
41 29 29 40 36 39 37 15 25 34 28 16 32 23 26 33 25 24 28 34 22 20 22 23 18 21 20 15 26 30 31 29 27 25 23 21 18 16 16 18 16 14 12 10
35 42 26 25 40 28 40 29 7 5 8 9 24 24 38 20 34 26 25 28 23 21 23 23 23 20 20 22 21 24 33 32 31 29 27 24 21 19 18 19 18 16 14 13
33 21 42 30 37 43 33 39 13 8 5 7 16 22 24 32 35 20 27 27 26 29 28 26 26 23 21 20 20 24 21 27 35 32 29 26 23 21 20 21 19 17 16 16
31 31 10 39 30 29 35 40 40 12 5 4 15 36 43 33 30 33 32 25 23 20 24 23 24 29 27 27 25 22 23 22 22 26 26 25 23 24 23 21 20 18 19 21
21 17 39 23 40 33 32 38 27 32 6 6 6 15 17 31 46 43 36 33 27 23 26 28 27 26 26 29 25 22 22 21 21 20 23 22 21 21 24 24 23 20 20 23
39 20 10 31 38 47 43 38 26 25 23 6 0 13 20 27 27 30 44 39 27 22 23 26 30 29 29 28 31 27 25 25 23 23 24 24 23 23 25 27 26 23 23 25
28 22 27 27 31 34 45 47 43 22 22 36 21 20 5 15 32 38 26 32 37 33 28 22 19 24 33 32 31 31 29 28 25 24 23 26 24 24 26 28 29 26 26 27
6 10 6 21 33 25 31 43 48 49 42 39 17 21 35 10 10 13 31 35 29 31 31 30 29 27 27 34 35 30 30 29 28 26 25 27 29 28 27 27 31 29 28 28
1 4 4 7 14 20 33 39 38 50 42 39 47 42 38 37 35 29 26 23 34 39 32 29 32 31 28 35 36 35 28 25 27 30 30 31 33 31 28 25 31 32 30 30
6 4 9 9 17 19 23 31 43 40 51 41 42 51 49 42 36 32 26 14 28 30 32 31 29 25 26 27 33 34 32 31 29 29 32 36 36 31 30 27 29 34 34 30
13 7 15 23 16 22 30 33 34 39 37 32 50 47 35 34 39 40 28 30 32 28 27 28 27 21 22 26 30 31 29 34 32 29 33 35 37 33 34 29 30 36 36 34
21 17 12 9 12 17 29 39 38 39 39 37 44 44 42 48 49 41 35 34 33 29 30 35 28 28 24 29 33 32 34 36 33 35 32 35 38 37 38 34 33 34 38 38
19 16 14 10 10 7 9 27 15 37 51 44 38 26 24 33 40 42 41 34 28 26 22 32 30 29 28 31 34 26 34 37 41 37 36 36 38 36 39 39 37 35 39 41
14 17 15 9 16 28 27 13 18 24 33 46 49 37 25 19 28 37 33 36 31 30 23 20 28 27 26 31 28 28 29 37 34 43 39 37 36 38 40 41 38 37 38 42
21 23 25 12 8 7 0 18 36 28 37 23 36 43 38 27 40 35 27 32 30 26 22 21 28 25 34 31 25 33 32 34 39 43 34 38 37 38 39 40 40 42 41 42
28 26 39 37 18 16 22 18 19 18 35 30 26 27 34 37 35 22 23 28 33 27 25 22 19 23 27 32 35 37 35 32 32 33 34 38 39 37 37 42 39 37 43 46
21 19 23 29 17 26 25 20 18 24 26 31 25 34 32 34 32 30 25 22 29 29 25 24 23 23 19 20 24 29 34 33 32 31 34 34 37 38 40 37 39 39 43 42
29 35 23 22 33 18 34 40 26 27 23 31 37 37 36 31 32 33 36 29 28 33 28 25 29 29 30 29 27 26 25 29 32 32 29 31 37 40 40 40 34 31 34 44
25 24 31 34 36 42 35 33 43 46 26 28 37 38 35 37 37 39 37 33 25 26 26 25 25 25 27 31 31 30 30 31 33 36 36 36 38 45 49 48 41 43 50 51
29 29 30 33 40 26 35 40 28 36 28 20 25 30 33 33 37 38 36 32 28 27 26 26 26 25 25 24 24 25 25 26 28 31 38 42 44 46 49 48 44 53 56 54
32 34 36 42 41 34 29 37 36 21 21 19 24 28 32 34 34 33 32 31 28 27 28 26 25 24 24 27 30 33 35 37 39 40 43 45 47 49 52 53 57 57 53 61

GFSCGP_700_spd_033.txt.gz
Wind_Speed
37 39 50 40 38 29 21 20 18 18 13 14 17 18 12 9 11 17 26 24 21 18 10 18 20 25 27 28 27 26 25 23 22 20 18 16 12 12 11 10 10 11 11 9
36 51 42 39 39 36 33 27 25 23 23 19 18 21 15 13 10 16 20 24 19 22 18 21 22 23 28 28 26 26 24 24 21 20 17 15 12 12 12 12 12 12 11 11
47 27 43 41 40 39 37 35 29 25 10 15 21 23 25 21 17 18 19 26 24 21 18 20 23 22 25 28 27 25 24 23 22 20 20 18 17 16 15 14 14 12 11 12
41 36 15 39 45 42 36 37 28 27 16 21 14 20 20 23 23 19 21 20 24 24 26 16 23 24 24 25 25 24 25 24 22 22 21 18 14 12 9 9 11 13 14 14
43 41 42 27 43 38 32 24 31 26 21 19 22 17 24 21 25 24 19 19 22 25 25 27 19 15 12 25 27 27 26 25 25 23 21 18 17 14 15 15 15 16 15 13
36 34 31 43 24 38 26 12 18 18 19 22 32 23 33 30 33 28 19 19 20 22 27 28 26 24 22 20 29 29 30 28 28 26 24 22 19 17 17 17 16 14 13 12
32 32 30 29 31 27 31 23 12 11 14 16 21 23 42 15 28 31 27 19 22 21 23 29 29 28 26 24 20 32 32 32 31 30 28 25 21 20 19 17 16 15 13 12
32 26 37 35 35 30 36 35 15 14 14 13 22 21 26 32 34 20 25 24 25 24 21 22 24 24 24 25 26 24 24 34 34 33 30 27 25 24 21 21 19 16 15 14
31 29 14 35 33 32 28 41 36 15 6 6 23 25 29 20 25 26 32 23 28 24 20 15 17 23 25 27 26 26 27 22 27 36 31 31 28 27 25 22 21 19 17 18
22 11 30 23 36 32 30 33 22 28 15 13 11 15 26 26 39 31 31 32 27 27 21 17 15 17 19 23 25 26 26 27 25 21 22 30 33 30 27 24 23 21 18 20
33 22 12 27 39 35 33 35 27 25 18 9 7 15 19 25 27 28 36 39 36 28 21 15 15 18 22 23 24 27 28 26 26 28 26 21 21 23 24 25 24 25 22 23
31 25 23 25 24 35 37 33 37 25 19 27 13 12 4 10 18 26 28 26 35 35 29 22 20 19 22 26 28 28 29 30 28 25 25 26 25 24 27 27 25 26 26 25
22 21 22 21 17 31 37 39 35 34 26 26 17 8 22 5 12 13 26 22 26 32 35 35 28 24 19 18 26 30 30 33 30 29 29 28 29 29 30 29 26 26 29 28
14 15 25 23 28 24 25 28 38 40 37 34 38 28 20 20 24 13 8 11 23 22 20 26 19 23 26 25 23 27 31 31 33 33 32 32 31 30 29 27 28 27 29 31
3 2 10 17 18 14 21 27 27 34 44 40 40 45 37 43 37 35 33 26 19 19 26 31 29 27 24 22 24 30 34 35 34 36 36 34 31 31 32 32 30 28 29 31
10 4 8 11 16 11 19 29 34 32 33 29 37 42 26 23 29 32 37 39 29 17 20 20 26 29 26 23 19 26 39 37 38 36 34 32 35 35 35 36 33 31 31 30
11 9 6 8 11 16 25 40 31 29 30 30 39 38 38 40 38 31 23 20 22 24 26 25 24 26 30 24 22 26 35 37 39 38 31 33 35 34 34 35 37 33 33 32
12 9 8 10 5 10 20 22 27 26 28 38 49 47 41 43 42 36 35 32 30 29 27 19 18 23 31 26 25 25 31 35 35 37 36 31 29 33 35 35 35 37 35 36
16 16 8 10 21 24 25 17 16 21 24 23 30 39 41 30 26 29 22 23 18 17 20 24 22 21 25 30 27 31 34 36 38 38 39 38 36 28 36 36 35 37 40 39
20 23 16 10 11 12 13 26 26 25 29 31 21 15 32 36 42 30 19 19 18 19 23 28 25 25 23 32 31 31 32 36 29 27 32 29 36 44 35 36 37 37 36 36
15 19 28 25 19 18 23 15 13 19 13 14 23 27 19 29 46 32 22 25 22 22 26 29 26 26 22 29 31 31 36 33 30 30 28 31 35 38 41 38 39 38 36 32
12 11 17 24 19 25 19 32 28 17 20 17 15 18 31 29 23 36 26 28 27 20 19 30 27 26 23 24 28 35 36 33 38 37 35 32 32 33 36 40 39 39 32 36
18 25 18 23 27 16 13 28 31 39 31 23 22 26 24 24 27 30 31 27 27 29 22 27 28 26 23 22 21 22 31 34 32 35 34 36 33 32 35 38 37 39 43 43
19 22 29 31 42 36 27 28 25 29 34 43 29 24 28 31 29 31 35 34 33 32 27 26 29 28 27 29 28 27 26 26 28 28 28 32 33 32 35 29 35 33 37 41
25 20 22 35 42 44 43 35 37 35 30 30 44 33 30 34 39 41 41 42 39 34 31 28 29 30 30 30 30 29 29 29 29 29 29 31 34 36 39 37 40 42 37 41
34 34 39 47 35 34 42 38 32 29 38 32 39 34 35 36 36 42 42 36 36 34 32 29 28 27 27 28 28 26 26 26 26 26 27 28 30 33 37 40 43 47 47 46

GFSCGP_700_spd_036.txt.gz
Wind_Speed
33 35 45 38 32 28 20 27 25 23 20 17 20 17 11 11 17 19 20 21 19 20 11 18 23 27 29 30 30 29 28 26 24 22 19 17 15 14 11 10 10 12 11 9
29 44 33 31 30 31 29 23 27 24 17 14 17 16 12 13 16 18 10 11 21 20 23 19 23 27 29 29 30 30 28 28 25 23 20 18 15 14 13 13 12 11 11 11
35 21 31 31 32 33 34 33 28 23 15 16 18 22 19 16 15 16 19 18 17 21 24 22 23 24 27 29 29 29 28 28 26 24 23 20 19 18 16 15 13 12 11 11
34 28 26 33 34 35 36 32 27 24 23 24 19 22 24 23 20 21 18 19 21 20 25 26 22 25 24 26 28 28 28 27 26 25 24 21 18 15 13 13 13 14 14 14
36 34 34 35 37 32 34 26 25 28 25 25 27 19 27 20 22 24 23 21 20 24 24 24 21 18 19 23 28 28 28 28 27 26 24 22 20 17 16 16 15 16 15 14
37 20 32 30 26 27 26 22 25 22 26 27 35 32 32 30 27 24 23 22 18 24 25 26 22 19 23 25 25 28 29 28 28 27 26 24 21 18 17 15 15 14 13 13
35 39 26 27 30 24 31 25 16 18 23 21 31 35 36 17 29 25 24 23 18 20 21 23 28 28 23 25 28 30 30 29 28 27 27 26 22 21 19 18 18 18 16 14
35 32 40 34 36 30 38 36 22 18 15 19 27 26 40 33 27 14 23 24 23 22 22 21 22 26 27 22 23 21 29 28 30 29 27 25 24 23 22 22 21 19 17 16
33 39 32 28 36 34 35 44 37 12 12 13 26 34 25 17 30 32 32 20 26 26 21 20 21 21 24 28 27 25 22 22 30 31 30 30 27 28 26 24 23 21 19 18
28 28 25 35 31 32 28 34 34 32 17 17 18 26 23 25 32 25 28 28 24 30 25 21 18 21 20 22 25 27 28 25 22 25 27 30 30 30 29 27 26 24 20 18
27 24 32 29 42 41 39 31 40 31 27 14 12 21 25 29 22 27 28 27 27 27 26 26 19 18 20 20 23 26 28 28 29 28 24 21 22 33 32 31 29 27 24 21
31 22 21 37 33 34 38 35 41 28 32 36 21 14 7 11 21 23 24 24 26 25 24 23 22 19 13 15 20 24 28 30 30 28 29 27 25 21 25 31 30 30 29 25
24 27 26 20 28 31 43 43 38 39 26 31 25 8 8 9 14 18 19 20 25 29 33 34 33 28 19 19 25 26 27 28 29 30 29 29 29 29 26 22 22 25 27 27
28 20 38 31 28 32 38 41 39 42 41 32 30 23 13 10 9 9 8 10 11 14 14 22 34 36 30 24 21 21 30 31 32 34 34 32 31 29 27 26 25 26 27 28
9 25 18 23 15 12 27 42 42 44 43 41 31 30 25 15 13 12 10 8 11 12 16 16 17 23 24 21 20 20 22 29 36 37 37 36 33 32 31 32 31 30 32 31
2 12 13 20 15 12 16 22 30 39 44 40 38 33 21 20 23 26 24 23 18 21 20 14 21 28 25 25 23 22 22 26 36 41 39 38 37 36 35 34 34 35 33 32
6 9 9 23 19 16 23 31 31 30 33 33 39 30 28 28 23 21 22 21 22 29 23 18 20 21 20 25 26 26 25 26 28 41 41 40 39 37 36 36 36 36 39 34
9 10 11 12 14 16 26 21 29 34 31 30 28 25 24 24 24 23 23 26 24 22 23 27 25 20 23 26 29 29 31 29 29 37 43 41 41 39 38 39 38 40 40 41
16 12 14 19 21 9 11 13 12 19 28 29 24 23 26 26 26 31 29 28 23 17 20 30 32 29 26 25 26 32 33 33 33 33 43 45 43 39 39 36 30 38 41 42
17 18 18 13 21 18 12 30 11 10 16 18 15 14 14 22 28 28 20 19 22 20 21 20 25 31 27 26 27 33 34 34 33 35 39 41 42 39 36 34 35 37 41 43
21 20 25 26 23 18 17 6 9 16 4 14 14 16 21 20 16 20 29 30 29 26 26 22 22 31 28 27 32 33 34 31 30 34 38 39 37 36 32 32 34 39 35 38
16 19 24 28 29 31 20 19 17 10 8 10 15 15 19 25 26 21 16 32 31 27 29 25 20 28 30 28 30 33 34 32 33 32 36 35 33 34 35 36 37 37 38 44
24 24 23 23 29 21 17 25 29 29 28 19 28 18 20 17 24 29 29 25 34 33 33 29 21 23 30 29 30 29 31 30 35 34 35 38 38 36 33 32 35 40 42 44
25 23 27 28 35 33 27 27 33 34 40 34 29 24 20 22 22 19 27 23 28 33 27 30 27 19 28 29 26 26 23 28 28 33 36 36 35 35 34 33 34 34 35 36
22 22 29 35 36 34 32 31 34 35 38 43 49 43 28 27 25 25 24 28 28 30 31 30 27 21 26 31 30 30 29 25 23 23 26 27 27 28 30 30 30 28 28 28
30 36 40 45 32 31 30 27 27 38 41 37 38 39 42 36 29 28 28 34 39 33 33 33 30 26 25 33 33 32 32 31 28 27 28 29 30 31 32 32 32 32 32 34

GFSCGP_700_spd_039.txt.gz
Wind_Speed
33 35 46 42 40 32 26 28 26 29 19 22 25 22 19 14 17 22 24 25 25 24 20 24 25 27 28 30 30 29 28 26 24 23 20 18 15 14 13 11 10 9 8 9
31 45 36 32 34 34 33 30 31 28 23 20 20 22 19 17 18 22 24 25 25 24 25 25 23 28 29 29 30 31 29 28 26 24 21 19 17 15 14 13 12 10 11 9
40 24 33 34 36 38 38 36 29 29 25 23 22 22 22 18 18 22 24 22 24 27 28 24 20 24 30 31 30 31 30 28 27 26 24 21 19 18 16 15 13 11 10 9
36 29 27 37 38 38 40 37 31 26 29 30 28 26 29 24 22 23 26 25 26 27 27 26 20 19 26 28 28 30 30 29 28 27 25 22 18 17 15 15 14 13 12 11
43 33 31 38 39 36 38 30 34 31 29 29 30 29 27 31 32 28 25 25 26 27 28 30 18 18 19 26 28 29 31 31 29 26 25 22 21 18 17 17 17 16 14 14
36 28 33 28 32 30 29 27 28 31 33 30 37 34 32 28 27 29 27 27 25 27 29 30 24 17 19 26 27 31 30 29 28 27 27 25 23 21 20 18 16 15 15 13
37 41 31 30 29 32 30 30 21 22 25 21 38 40 38 29 29 27 28 28 27 25 30 30 31 24 19 25 24 27 29 30 30 27 27 25 25 24 21 19 18 18 17 14
39 37 46 32 40 35 38 39 27 23 19 19 36 43 45 34 19 28 28 30 27 24 28 30 33 29 21 19 21 26 26 28 28 26 25 24 25 25 23 22 21 19 17 15
41 45 26 47 35 39 37 45 41 32 31 23 35 39 33 29 36 28 23 31 27 26 28 31 33 28 24 25 20 19 18 25 27 26 26 25 24 26 25 22 21 20 19 18
39 29 41 27 34 39 40 34 38 35 23 19 24 23 34 32 27 37 35 28 31 29 28 30 31 32 26 25 25 20 18 16 15 19 22 25 26 26 25 25 25 24 21 20
46 35 22 38 50 44 45 37 42 34 32 15 12 17 24 28 26 30 35 36 31 29 28 30 30 31 27 25 28 27 25 23 24 22 20 23 26 28 30 29 27 27 25 24
50 30 35 44 39 35 38 41 40 33 33 33 22 5 1 24 22 21 29 27 31 28 29 28 28 27 29 28 29 29 29 29 26 26 23 22 21 22 24 31 31 30 28 27
23 35 31 31 36 39 45 43 38 39 31 32 23 11 6 9 10 22 24 24 26 27 28 28 28 28 27 30 25 25 29 30 31 30 27 24 25 24 24 22 24 30 33 32
23 29 38 28 40 40 41 44 43 38 40 29 33 22 11 7 15 17 20 21 22 26 23 28 27 26 27 28 25 17 25 29 34 34 32 29 26 25 24 24 22 20 23 25
12 23 32 36 22 25 41 44 44 45 38 40 24 26 17 14 14 15 17 16 15 14 18 23 32 26 30 30 27 22 20 21 29 32 33 32 29 28 27 26 24 25 25 24
8 19 26 30 33 16 18 30 43 44 41 35 33 22 24 14 16 14 13 11 12 13 15 14 13 21 28 32 27 24 22 23 23 29 35 35 33 34 32 30 28 28 29 29
5 12 20 25 30 18 26 30 29 40 39 37 37 31 22 18 17 17 16 14 12 12 12 14 16 17 26 30 29 26 23 24 23 22 28 37 38 37 36 34 33 32 31 34
10 8 10 18 24 23 25 26 26 25 27 32 30 24 29 25 19 19 16 16 15 14 20 18 15 18 24 26 20 29 32 32 28 25 24 28 42 42 42 40 39 36 36 36
17 13 10 16 22 16 29 21 22 28 32 26 26 24 19 19 17 19 18 18 18 19 16 17 20 19 20 20 23 29 33 38 34 29 28 28 34 45 45 44 41 39 37 37
20 18 18 12 18 17 12 9 13 11 18 25 30 24 20 20 21 17 16 19 21 19 23 20 18 22 28 34 31 31 33 36 39 36 33 32 31 40 46 45 43 41 41 41
20 24 24 23 16 20 3 6 15 17 5 18 15 18 19 19 19 24 24 28 29 27 29 29 30 32 37 38 33 34 33 36 34 34 36 36 35 33 39 46 45 43 43 43
16 24 27 25 28 24 16 8 15 13 17 12 14 13 10 10 11 24 30 33 36 36 30 28 29 25 24 33 37 33 32 31 33 35 36 33 33 33 34 37 41 42 43 43
21 17 20 26 29 22 19 22 20 13 20 8 6 7 9 10 11 21 28 24 24 34 33 31 31 31 25 27 35 34 29 29 31 33 34 34 32 30 36 38 38 37 36 33
20 20 27 27 30 25 23 23 21 23 21 20 18 17 16 17 17 25 28 26 23 20 25 33 34 32 30 26 33 36 32 29 30 28 31 30 32 30 36 37 36 35 33 32
22 22 26 35 37 33 32 30 28 27 36 33 32 29 28 23 21 21 22 22 21 22 18 30 34 32 33 27 29 35 31 27 27 23 28 30 30 29 32 31 32 33 31 30
25 31 36 39 29 30 32 29 28 33 38 48 43 33 35 36 32 23 21 21 22 23 21 20 27 30 31 32 26 34 32 30 29 27 24 23 24 26 27 26 27 27 27 27

GFSCGP_700_spd_042.txt.gz
Wind_Speed
30 33 45 43 38 34 27 27 29 28 26 28 30 23 23 17 27 26 26 29 27 27 26 28 28 31 31 30 25 24 24 23 22 21 20 18 15 13 11 9 10 6 7 6
30 47 39 34 33 36 34 30 30 27 29 27 29 27 26 24 26 26 24 31 25 27 28 30 24 29 29 27 25 26 26 25 22 21 19 18 16 14 12 11 11 9 7 5
44 28 32 35 36 37 40 36 31 29 21 23 25 24 29 23 22 24 27 22 25 29 32 30 23 25 27 30 24 26 27 26 24 23 21 20 19 17 14 12 12 10 8 7
39 37 31 38 40 38 41 37 32 30 30 30 29 24 30 25 24 24 27 26 29 30 30 32 28 25 25 24 24 25 28 28 26 25 23 21 18 16 13 12 12 11 10 8
48 35 35 38 42 37 39 33 34 32 26 29 27 28 28 30 30 29 27 30 28 31 32 34 31 19 16 20 20 25 28 30 28 27 24 22 20 17 16 14 13 12 11 12
42 35 36 33 30 35 32 30 31 33 31 26 35 34 36 35 37 31 28 30 28 31 31 32 32 25 22 23 23 25 29 31 30 29 26 23 22 21 20 17 15 13 13 11
38 42 34 35 30 32 33 34 25 23 24 17 38 36 31 26 36 26 37 29 33 31 33 33 34 30 23 25 25 24 26 30 29 28 28 25 23 23 21 19 17 14 14 12
40 43 47 33 42 37 41 42 27 24 18 19 37 36 43 35 28 28 36 31 32 33 33 33 35 34 23 21 22 23 26 30 30 28 27 25 23 24 23 21 18 17 14 12
41 44 37 43 36 36 40 46 40 31 30 24 32 41 35 36 37 30 27 31 33 34 31 36 35 36 27 21 14 18 22 26 27 25 24 25 22 23 24 22 20 18 17 15
45 27 40 39 34 39 43 37 36 37 21 21 26 34 39 37 40 36 29 27 34 34 34 35 32 35 20 22 19 15 15 22 25 25 25 24 23 22 22 24 23 21 17 16
48 43 32 38 50 46 41 41 41 34 32 15 15 21 27 40 41 38 41 34 28 34 36 33 32 33 20 22 27 23 19 19 20 23 23 25 26 25 25 24 24 22 20 18
37 46 41 38 44 41 43 45 41 29 32 34 26 19 0 10 35 40 29 40 34 33 32 33 32 34 34 25 26 28 26 23 22 20 20 20 21 24 26 27 25 24 23 23
14 32 38 41 36 45 51 45 44 36 32 33 21 19 4 9 29 28 29 28 38 31 31 33 28 31 34 30 25 27 28 26 26 26 24 23 23 22 21 21 23 23 25 26
17 20 34 28 35 35 46 44 42 43 37 30 33 11 8 10 13 18 20 29 27 35 32 33 27 32 32 33 30 24 25 28 30 29 28 26 24 24 22 20 19 18 16 21
8 18 25 38 32 28 40 42 43 48 38 38 30 29 15 13 16 17 20 22 26 30 31 34 28 37 33 28 30 25 21 17 22 28 29 28 26 24 25 23 20 20 21 19
4 12 16 25 31 25 24 41 42 43 41 33 34 25 19 20 20 21 20 22 22 22 22 29 30 27 29 31 32 27 27 22 20 18 22 27 30 29 26 26 24 24 24 23
9 5 9 24 23 26 29 20 39 40 39 37 34 28 27 24 23 26 19 14 13 16 21 19 22 30 33 32 32 33 31 27 26 22 20 20 24 30 30 29 30 29 27 27
9 10 9 17 16 18 24 20 20 18 38 37 30 29 19 20 19 23 20 14 10 11 11 13 13 16 29 40 41 44 38 28 27 25 23 20 20 23 32 34 33 34 32 31
9 9 9 8 12 12 17 15 26 19 17 27 40 27 21 15 18 17 14 14 16 16 17 18 15 18 15 19 21 20 26 28 29 29 27 26 25 22 22 27 37 37 36 35
12 11 9 8 8 11 12 19 16 22 22 13 11 14 16 15 12 12 17 19 21 22 24 23 25 26 28 25 27 27 31 35 39 37 33 31 29 29 28 26 29 39 41 37
19 15 16 15 9 5 5 7 7 15 5 13 14 17 16 11 17 20 27 28 28 29 27 27 27 28 35 34 35 33 28 31 38 37 34 34 36 35 34 32 31 34 41 44
14 20 21 20 21 14 3 6 9 6 10 15 18 17 19 21 18 16 24 30 32 30 30 29 27 31 33 38 42 45 46 41 32 31 33 33 34 35 37 36 36 33 37 44
9 6 13 16 27 20 7 6 3 3 6 10 15 17 18 19 19 20 27 29 28 28 28 34 31 29 30 31 30 35 41 41 34 35 35 34 34 34 34 34 36 36 34 36
16 9 13 19 22 24 17 19 12 13 9 8 8 9 10 14 17 23 35 33 31 29 22 23 28 29 26 29 32 27 31 37 38 35 34 32 30 31 31 33 32 34 36 34
18 24 22 24 22 22 27 23 21 21 21 17 18 16 16 15 22 32 36 37 33 20 11 16 17 22 26 35 31 30 28 34 38 37 33 33 32 30 29 29 32 31 35 35
17 23 27 32 29 31 32 30 26 25 30 31 29 28 25 28 32 33 26 24 24 20 12 15 18 16 23 27 28 30 30 27 35 39 34 31 28 29 30 29 29 30 32 34

GFSCGP_700_spd_045.txt.gz
Wind_Speed
26 32 44 42 38 32 29 29 28 30 26 24 28 27 34 34 39 37 15 28 25 30 30 22 20 21 21 23 25 21 20 22 24 22 20 18 14 12 10 7 5 6 6 5
29 45 41 35 35 33 34 36 32 25 26 29 28 29 26 37 44 39 12 32 32 24 31 34 32 31 30 25 23 22 21 21 23 20 19 17 15 13 11 9 6 6 6 7
45 39 36 35 36 36 38 40 36 31 28 19 31 36 33 35 41 37 34 16 35 26 26 29 31 31 32 25 21 23 23 20 21 21 21 20 19 17 15 11 8 6 7 7
46 38 24 39 41 40 41 41 38 34 28 19 29 6 30 39 36 33 32 38 16 35 20 22 25 25 27 22 21 23 25 24 21 22 22 20 16 13 11 10 9 8 7 8
49 40 42 40 46 40 40 35 37 39 34 23 36 34 36 36 35 36 38 39 25 29 25 21 20 17 21 19 20 21 25 26 25 24 22 20 18 16 15 13 11 11 11 10
47 34 32 48 36 38 34 34 34 39 36 24 29 36 35 44 37 40 35 37 31 33 23 34 19 14 19 18 21 23 26 27 26 25 24 22 20 19 18 15 13 12 12 11
38 47 40 29 45 33 36 34 21 19 20 14 31 28 34 33 34 37 38 36 41 36 18 32 30 23 21 22 21 24 27 28 27 27 25 23 21 20 19 17 14 12 9 9
44 36 49 42 40 37 42 46 25 15 9 13 31 26 34 32 25 34 33 39 43 36 24 24 30 20 21 22 14 25 26 25 27 26 26 24 24 23 20 17 15 12 9 7
30 52 24 48 39 42 42 49 39 21 20 10 15 29 36 32 39 33 34 40 33 37 32 30 29 22 19 23 13 17 27 27 28 26 25 25 22 22 21 18 18 17 13 10
53 37 38 35 44 39 44 37 37 36 9 10 20 33 40 34 41 38 35 28 48 43 39 35 32 23 17 19 15 12 21 26 26 25 24 24 21 21 21 22 21 18 14 12
19 39 48 35 49 55 41 39 45 33 31 6 6 23 39 41 37 41 40 32 42 46 46 41 31 24 13 17 22 15 18 25 27 27 27 27 26 23 22 22 20 19 17 15
12 18 39 50 35 45 40 44 42 31 28 33 23 29 26 22 46 37 46 34 24 48 47 42 31 25 20 21 24 20 17 21 26 28 28 27 27 26 25 24 21 19 18 16
18 5 16 38 44 35 56 44 50 36 32 31 19 27 24 26 17 42 42 42 30 35 48 41 34 30 24 23 25 24 22 21 20 22 23 25 26 27 26 23 22 21 20 20
24 17 28 18 36 31 30 50 42 44 35 33 40 28 20 6 20 38 42 29 41 38 36 43 36 33 23 24 26 27 28 26 25 24 23 23 22 20 19 18 19 18 19 21
23 20 20 25 25 27 34 47 46 45 42 35 35 24 24 6 20 29 33 29 25 41 33 37 37 33 25 21 28 21 23 26 28 28 26 23 22 22 21 21 20 17 16 16
21 16 13 18 24 22 23 27 49 46 42 42 27 32 25 17 17 22 23 27 27 34 37 31 36 32 27 19 20 17 11 19 22 23 23 27 28 26 24 23 23 22 20 19
21 23 18 6 13 7 9 26 42 47 41 39 44 34 26 26 24 22 28 29 30 32 32 35 33 34 41 33 28 23 21 20 18 16 18 20 24 28 28 26 27 26 25 24
22 15 15 6 4 2 15 17 11 33 39 33 41 17 31 26 27 26 30 30 27 29 30 32 31 28 34 31 35 35 29 26 25 20 19 19 17 19 25 28 29 29 29 29
6 9 10 5 2 1 12 7 7 5 14 8 25 33 31 38 33 29 23 25 32 31 30 30 28 28 22 29 30 27 32 34 31 28 24 23 22 19 17 18 22 31 33 33
4 6 8 7 4 3 18 7 7 15 12 4 9 27 38 38 37 29 28 30 31 33 33 32 29 26 23 21 23 27 31 32 35 36 32 29 25 24 23 21 20 18 22 33
14 8 7 9 5 8 6 19 4 11 10 13 22 29 35 40 35 33 31 33 33 33 33 33 35 31 30 23 26 25 28 28 25 26 27 31 31 30 29 27 28 28 27 25
7 6 8 8 6 4 8 15 27 15 3 9 27 32 37 34 33 34 38 37 36 33 32 33 34 34 34 32 29 31 33 32 34 33 35 34 34 34 34 34 35 35 35 34
7 18 15 11 6 6 10 11 2 4 4 3 10 25 28 29 29 30 33 35 32 29 26 25 27 31 30 34 37 38 37 33 33 36 37 32 30 32 32 32 33 34 35 36
11 13 15 17 16 11 6 12 12 7 7 7 8 6 17 20 21 24 25 27 26 24 26 26 27 30 30 30 34 40 45 46 44 43 42 42 36 32 31 33 34 35 35 34
16 22 26 27 22 23 21 18 21 23 22 21 19 16 10 6 13 20 23 25 24 22 24 27 28 29 28 23 30 34 36 35 38 42 42 42 40 34 33 34 36 35 35 35
28 24 25 38 29 31 33 32 31 32 29 28 25 25 19 19 16 19 18 24 28 26 24 29 31 31 27 22 29 31 27 31 32 28 27 34 38 37 35 34 36 37 36 34

GFSCGP_700_spd_048.txt.gz
Wind_Speed
33 38 46 49 45 39 28 24 23 23 23 28 35 29 35 41 34 26 24 17 15 8 15 18 17 16 20 18 20 22 22 23 23 23 22 19 15 12 10 9 8 7 8 8
29 43 42 42 41 34 33 27 30 26 26 27 30 32 37 49 33 30 29 13 17 17 17 21 22 21 22 17 19 20 19 21 24 23 21 17 15 13 11 9 8 8 8 8
41 29 39 42 43 35 36 35 35 35 26 16 25 24 29 49 38 36 36 27 7 11 17 22 27 28 27 21 19 20 20 21 24 23 23 22 21 20 17 12 9 9 8 8
42 41 13 41 43 39 38 44 38 35 28 20 12 25 27 38 52 46 38 35 18 16 16 21 24 31 26 24 20 20 21 23 26 27 26 24 19 15 11 10 10 10 10 9
46 37 40 35 49 40 46 41 38 37 29 26 34 25 35 36 58 49 39 37 32 18 22 15 19 19 17 23 24 21 23 26 27 29 27 25 23 18 17 16 13 12 13 12
44 37 28 43 32 40 34 33 34 33 31 20 39 23 28 45 53 45 36 37 41 28 19 17 18 18 20 19 24 26 27 29 30 30 29 26 23 21 21 19 17 15 13 11
40 44 39 30 40 31 36 33 19 11 14 10 30 24 33 24 36 43 44 42 40 33 28 13 23 27 25 24 23 25 30 31 31 30 29 27 24 23 20 18 17 15 13 10
36 36 44 42 41 40 41 38 17 9 5 9 36 19 43 34 28 35 42 45 42 35 31 18 22 25 26 23 24 25 30 32 31 30 29 28 27 26 22 20 17 15 13 12
15 40 25 41 40 41 42 46 43 16 8 13 16 32 35 39 28 25 23 45 44 37 28 25 20 21 24 22 18 20 29 31 31 29 29 28 26 26 23 21 19 17 15 14
10 17 27 35 37 44 45 35 40 37 12 5 8 22 33 42 43 34 30 28 41 45 26 26 28 18 20 18 17 14 20 30 29 30 29 27 25 26 25 24 22 19 16 16
21 9 31 28 39 46 39 48 40 36 28 10 4 22 36 29 39 40 36 31 31 41 35 33 31 25 17 14 18 17 19 28 32 31 29 28 28 27 26 26 24 22 20 18
15 12 20 32 43 24 50 31 41 26 20 32 20 30 22 32 25 22 29 42 39 33 33 38 33 30 22 19 19 21 20 27 30 30 31 31 28 27 27 25 24 21 21 20
20 6 14 25 34 33 21 43 37 46 33 36 24 35 18 31 27 26 34 37 42 36 32 38 42 34 26 22 19 22 22 25 29 31 31 30 30 29 26 25 24 23 21 21
30 22 22 18 13 8 22 31 38 43 35 34 41 44 40 17 18 25 24 36 41 44 32 37 42 36 29 26 21 19 22 20 21 27 28 28 28 27 25 23 23 24 22 21
24 29 15 22 32 24 19 22 32 40 44 38 38 44 44 32 29 32 26 33 37 37 31 33 38 37 34 30 27 23 21 21 23 22 22 22 22 22 23 23 22 21 21 20
24 20 25 16 17 17 12 23 19 31 46 41 31 39 28 28 20 16 24 25 31 34 33 34 33 36 36 29 29 26 23 23 25 25 23 20 20 19 18 18 18 19 18 19
18 15 18 8 11 13 7 3 18 25 37 37 45 27 25 24 16 14 23 27 25 24 34 36 39 36 35 31 24 29 20 14 19 24 24 25 25 24 23 21 21 22 21 21
19 13 12 9 3 7 14 17 14 18 17 25 24 37 36 21 25 25 25 25 26 25 32 40 41 37 39 34 26 25 21 17 15 20 18 16 19 22 25 27 27 26 26 26
14 13 10 5 6 15 15 11 11 13 18 8 18 30 24 31 32 31 30 28 30 34 37 37 40 41 41 40 32 28 25 24 22 23 23 17 15 16 20 26 27 28 30 31
10 10 19 10 3 4 17 11 12 27 24 27 22 34 32 32 39 36 34 36 38 38 38 35 34 35 39 42 42 39 37 36 32 28 25 22 20 21 22 23 23 24 26 30
8 6 7 2 4 9 20 7 12 15 12 12 29 31 34 32 36 39 36 36 34 35 36 34 32 32 33 36 37 34 31 31 35 33 30 31 30 29 27 25 22 22 22 23
8 2 9 7 7 6 14 22 24 15 10 14 22 28 30 34 35 40 40 36 36 35 33 33 31 30 30 29 29 31 30 31 34 33 27 27 30 30 30 28 27 27 28 29
18 18 9 7 5 8 11 26 20 9 10 15 12 21 23 25 33 34 35 36 36 36 35 32 31 30 30 32 30 26 29 31 31 32 30 30 31 33 32 32 32 33 34 34
21 14 8 11 2 4 7 9 13 7 4 8 5 6 13 20 24 30 28 31 33 35 35 34 31 26 25 28 33 32 31 30 31 34 34 35 37 36 34 31 30 32 34 33
28 19 17 12 11 11 12 15 12 12 13 9 8 6 7 14 23 26 27 26 28 31 35 35 32 30 28 28 32 36 37 40 40 39 39 38 39 40 40 40 37 36 35 35
34 27 27 26 21 21 16 19 26 24 19 18 19 15 12 8 11 20 23 25 25 26 27 29 29 28 27 25 28 34 35 37 43 45 47 47 46 44 46 49 48 43 39 37

GFSCGP_700_spd_051.txt.gz
Wind_Speed
38 40 49 46 48 41 27 29 34 27 21 19 29 30 27 25 29 29 24 20 17 19 21 24 26 28 27 25 27 33 32 30 28 25 23 20 17 15 12 10 8 8 8 7
35 50 42 39 43 44 38 21 33 32 26 15 26 31 33 31 29 32 30 25 19 18 24 25 25 27 25 27 28 32 33 32 29 26 20 18 15 13 11 12 11 8 8 8
41 40 39 40 41 46 43 39 33 36 20 19 15 30 31 37 35 34 35 27 22 22 17 19 26 24 22 26 33 33 33 32 30 26 24 22 21 19 17 15 11 9 9 8
39 42 20 39 44 45 46 45 38 34 25 14 24 12 31 39 41 38 37 35 30 23 24 22 21 25 25 25 29 31 31 31 29 27 26 24 22 19 13 12 12 12 12 10
46 34 36 25 46 44 49 44 38 34 28 23 31 13 18 34 41 36 39 42 38 24 22 21 24 15 19 25 27 29 29 29 29 27 26 25 23 20 17 15 15 15 14 13
31 37 24 48 29 38 45 31 35 34 23 20 38 22 13 38 40 32 33 39 42 40 28 21 23 24 17 22 26 27 29 30 30 28 27 27 24 21 20 19 17 15 14 13
35 44 37 25 34 28 36 30 13 10 10 13 29 26 31 18 28 35 31 34 39 39 37 25 28 29 25 23 27 28 29 30 31 30 30 29 26 24 23 21 17 15 13 11
14 23 38 40 41 37 34 39 13 9 4 12 27 15 21 37 19 26 30 31 36 35 43 33 25 25 22 25 25 28 29 30 32 31 31 31 29 27 25 23 20 18 14 13
6 17 17 41 38 38 41 45 43 19 10 7 19 27 37 27 26 29 27 33 39 40 42 38 33 24 17 21 24 27 29 29 31 31 32 33 31 29 27 24 22 20 18 16
7 16 25 24 44 35 43 32 37 34 9 6 6 19 27 36 34 31 27 29 34 36 41 40 41 24 17 18 18 22 24 28 28 30 33 32 31 29 28 26 25 22 20 19
13 8 24 24 23 49 38 43 39 37 25 11 2 19 33 33 37 38 35 29 22 19 34 42 42 34 23 19 19 21 23 23 27 30 32 33 32 31 29 28 27 25 23 21
13 7 15 29 31 28 31 39 38 27 25 32 27 32 12 30 23 32 38 35 28 28 25 35 40 38 28 24 23 25 24 25 25 28 31 32 32 32 31 30 28 27 25 24
6 7 10 19 29 22 13 26 41 40 27 36 27 31 44 28 21 30 24 30 27 27 29 31 38 40 36 27 24 26 27 26 23 29 32 32 33 32 32 30 29 29 26 26
15 20 22 16 14 14 19 19 32 29 37 28 43 35 34 19 31 25 29 23 26 30 33 37 32 35 38 32 26 26 29 26 26 29 33 32 32 31 30 29 28 27 25 24
19 18 27 34 33 33 29 25 21 27 32 39 38 37 37 36 34 30 32 33 33 40 42 44 38 33 34 37 27 23 28 29 28 29 30 30 30 29 28 27 27 26 26 23
12 12 21 34 27 34 24 17 22 22 31 31 34 38 37 32 34 36 36 31 30 44 44 42 38 34 35 38 30 23 24 22 21 18 20 23 25 25 25 24 23 23 24 24
15 6 8 19 10 12 15 7 7 17 16 34 41 32 36 26 27 31 30 19 27 37 41 43 36 33 36 37 32 27 26 21 18 18 16 16 17 17 18 19 20 20 18 19
19 8 6 17 10 7 15 17 25 24 19 22 23 25 20 24 17 20 20 17 25 30 35 36 35 33 33 38 33 32 28 20 18 19 20 20 20 20 20 20 20 20 21 21
20 12 5 6 13 18 16 9 20 23 18 16 16 22 19 23 19 16 19 23 28 31 33 34 35 35 34 40 35 34 29 23 17 16 18 19 17 16 19 22 25 26 27 26
13 11 11 4 5 5 11 12 29 29 21 24 23 25 27 24 20 16 20 25 30 28 27 27 35 37 37 40 37 30 32 27 23 19 18 19 16 15 15 12 13 17 25 28
10 9 22 22 10 4 3 17 28 7 10 19 24 27 25 21 25 28 27 25 25 29 30 30 34 40 39 38 43 36 35 29 29 32 28 23 21 22 20 18 17 18 22 24
7 1 1 4 6 5 3 22 16 22 19 16 19 25 28 29 27 29 29 30 30 28 26 26 29 35 38 36 40 43 40 39 36 35 35 30 28 27 26 24 24 22 23 24
9 7 4 5 3 11 14 25 29 24 21 16 14 18 26 28 30 27 27 30 32 34 34 33 30 30 32 32 33 36 38 39 39 38 36 35 33 31 30 29 32 27 31 30
12 14 12 4 9 7 6 14 20 21 18 16 12 12 14 21 25 26 27 27 28 32 33 34 32 31 29 31 31 31 33 34 36 37 36 36 37 36 35 37 35 32 29 29
26 27 17 17 9 4 3 7 17 26 15 12 11 7 10 14 19 21 22 25 26 29 31 34 33 31 29 26 25 25 27 29 31 33 36 37 38 39 40 39 37 34 33 32
28 28 26 23 20 15 3 17 15 23 22 16 11 8 6 9 12 17 19 19 20 24 27 32 32 32 31 27 25 26 28 33 35 35 34 35 37 39 39 38 38 38 37 37

GFSCGP_700_spd_054.txt.gz
Wind_Speed
35 39 48 43 39 36 31 28 35 32 30 20 21 21 21 19 17 18 19 18 16 19 20 26 27 27 26 27 28 31 29 27 26 23 21 18 15 15 15 14 9 7 6 6
37 47 40 37 36 39 30 25 29 34 28 24 21 23 23 27 24 20 21 23 18 20 26 28 30 31 30 28 27 30 31 30 28 25 21 18 17 16 16 15 12 9 7 6
38 30 43 40 40 38 43 27 31 32 29 26 21 23 28 33 32 31 26 23 23 22 23 27 31 32 34 32 30 28 32 32 30 26 24 23 22 23 21 16 12 9 8 7
31 37 11 36 40 39 41 43 26 25 17 16 24 7 26 28 30 33 32 27 28 27 25 25 26 29 30 30 32 29 30 34 32 30 27 25 22 20 16 14 13 12 10 8
32 25 34 24 27 39 40 37 42 34 29 24 19 11 26 23 31 34 32 31 28 30 29 26 18 15 20 28 31 32 32 33 34 33 30 26 24 21 18 16 14 13 12 9
29 30 28 24 29 29 37 3 27 28 23 21 36 23 28 32 38 30 29 26 30 31 31 28 22 23 19 25 29 33 34 34 35 34 32 29 25 21 19 17 16 15 12 11
25 36 28 24 18 34 24 30 6 8 10 16 32 26 35 29 38 32 26 21 28 33 35 27 27 25 22 23 29 32 35 36 36 35 34 31 27 24 21 19 18 15 13 11
7 14 38 29 36 22 37 35 16 8 6 16 28 15 25 47 32 25 24 21 27 28 31 38 29 24 23 24 27 31 35 36 36 35 34 31 29 26 24 22 20 17 14 13
5 11 21 39 38 28 29 44 40 10 5 7 26 26 27 31 32 36 23 21 28 32 33 37 37 27 26 28 27 32 34 35 36 35 33 32 30 28 26 23 22 19 17 16
8 11 17 23 39 43 32 28 30 32 7 5 8 28 23 40 30 34 33 25 21 25 27 32 38 32 30 27 28 27 32 34 35 35 35 32 29 27 26 26 24 22 20 19
14 9 15 20 26 39 45 35 28 35 27 7 2 15 24 35 35 39 37 25 20 21 25 25 29 31 35 29 29 28 28 31 34 35 34 34 32 30 29 28 27 25 23 22
13 7 13 25 21 25 32 40 37 24 23 35 9 20 21 23 23 24 43 30 26 19 14 16 27 31 35 35 31 29 29 30 30 32 33 33 33 32 32 30 28 27 25 24
5 4 8 12 27 29 20 29 33 36 19 36 22 10 31 20 29 23 26 29 30 26 21 19 24 32 30 33 32 30 32 29 29 32 33 33 34 34 33 31 29 28 28 26
10 10 16 15 6 6 12 21 22 12 19 24 37 34 38 38 29 25 27 24 23 30 31 29 28 35 31 34 32 30 30 30 30 32 33 33 33 33 32 31 31 29 29 28
12 18 22 28 36 29 25 22 19 15 16 15 23 25 31 32 27 25 27 26 28 26 24 23 26 33 31 35 35 30 26 30 31 32 33 34 31 31 32 32 31 30 30 27
18 18 23 29 25 24 30 26 21 18 18 24 23 23 31 30 26 27 28 32 35 38 33 30 28 35 34 29 34 31 26 28 33 31 30 29 30 30 30 29 29 29 28 27
19 20 14 9 6 16 22 30 14 12 14 18 31 31 25 24 28 30 31 27 34 37 40 38 41 41 41 32 32 31 27 25 32 33 29 26 25 27 27 27 27 26 26 26
24 21 17 10 2 3 9 17 17 13 11 22 31 29 32 31 29 30 29 26 33 33 45 50 50 46 36 32 34 33 28 26 22 19 17 17 19 22 23 25 24 22 22 20
27 22 14 4 8 5 18 16 21 16 13 20 29 28 28 24 19 19 20 21 29 32 40 36 37 39 38 37 37 35 31 31 24 22 20 17 16 17 18 18 17 17 17 17
26 27 21 7 4 6 13 11 19 22 14 17 28 30 29 23 19 16 17 18 21 25 31 39 43 41 37 37 40 36 34 31 23 22 22 22 21 20 20 19 19 20 22 23
24 23 24 19 5 9 5 16 31 9 10 18 23 26 30 28 23 19 18 17 18 24 35 42 44 41 38 38 43 38 35 32 28 23 23 23 22 19 17 15 14 15 16 19
13 10 6 8 5 4 9 18 22 19 19 19 24 26 27 29 26 23 18 18 17 22 30 37 35 35 37 32 39 41 38 34 31 29 27 26 24 24 23 20 21 21 22 23
6 4 2 2 6 6 15 30 29 25 20 19 20 22 26 29 29 27 22 19 15 19 25 29 32 32 31 32 33 44 40 38 37 36 34 31 29 27 25 26 26 25 25 21
21 13 13 11 18 7 13 28 23 22 22 19 19 18 20 24 28 28 26 24 23 21 22 22 23 24 27 30 32 33 44 43 43 39 35 31 33 32 31 31 26 22 25 26
20 20 17 19 19 11 11 10 18 20 21 20 18 19 20 20 21 24 27 27 27 27 28 26 25 24 24 25 27 31 34 38 36 36 38 37 36 34 31 31 29 31 34 35
20 21 18 15 14 11 10 5 16 15 17 18 17 17 19 22 22 22 23 25 27 29 29 30 29 28 28 28 27 26 27 28 30 29 30 32 34 34 35 34 34 35 40 35

GFSCGP_700_spd_057.txt.gz
Wind_Speed
35 37 45 36 34 23 20 16 23 22 25 24 23 19 17 13 10 13 12 12 15 19 24 27 27 31 29 29 29 26 25 25 24 22 19 17 15 14 13 12 10 8 6 5
31 42 35 34 35 31 26 14 18 25 21 25 20 25 21 20 16 15 14 13 12 16 25 29 29 31 32 30 30 30 28 27 25 23 20 18 16 16 17 16 13 11 8 6
36 23 37 35 35 34 33 27 17 17 20 21 16 24 25 26 24 25 24 19 18 17 17 25 31 32 33 32 32 31 31 29 27 25 24 21 21 21 20 16 13 12 9 8
29 36 13 20 38 34 30 36 26 21 11 21 21 20 25 32 31 28 25 22 20 20 20 21 27 32 34 32 31 31 32 32 30 28 27 24 22 19 16 15 15 12 9 8
21 26 34 32 20 31 30 27 32 25 18 14 15 17 30 23 32 32 29 27 25 22 23 23 21 26 31 33 34 33 32 34 34 32 29 27 26 23 21 20 18 13 10 8
23 23 26 24 34 12 26 13 13 24 26 23 32 21 28 28 36 33 30 26 23 23 25 25 23 24 27 33 35 36 35 33 36 35 32 30 28 26 25 22 18 15 12 10
21 26 22 20 15 24 26 19 11 9 14 20 31 28 33 27 35 34 28 25 23 23 25 29 26 25 24 26 31 37 38 35 37 37 34 31 29 28 25 23 19 16 14 11
11 16 23 23 29 22 29 29 15 13 13 19 29 19 32 40 18 36 33 28 20 25 27 30 31 23 24 22 27 30 34 36 38 38 35 32 30 29 27 25 22 18 15 13
4 13 18 30 29 30 21 40 33 13 10 14 27 32 28 31 40 33 18 24 24 24 26 28 32 32 26 27 24 29 29 32 35 36 35 34 33 31 30 27 24 21 18 17
5 9 19 20 33 34 33 25 28 27 17 12 11 29 31 36 28 35 41 35 25 24 26 27 28 32 33 26 28 25 29 30 31 33 34 34 33 31 30 29 27 23 21 20
13 10 10 18 19 33 33 24 29 28 29 14 12 16 26 34 36 39 31 41 35 24 26 25 27 27 28 34 26 27 28 30 33 34 34 34 34 33 33 31 29 26 24 23
14 7 11 22 16 22 30 31 36 24 27 38 23 25 13 19 26 28 36 30 34 28 20 24 25 28 26 30 32 28 29 33 33 33 35 35 34 34 34 32 30 28 26 25
5 5 7 14 20 23 14 23 31 34 25 32 26 27 17 18 21 27 30 31 34 33 24 21 19 27 30 30 31 32 29 32 34 36 36 37 37 36 35 33 31 30 28 26
9 13 12 14 9 9 7 10 21 26 32 32 26 29 34 33 24 26 21 20 26 38 36 31 26 21 23 29 30 32 34 30 32 34 36 38 37 37 36 33 32 32 30 29
12 12 15 22 25 25 26 23 16 16 24 27 33 23 24 23 33 27 29 22 19 33 37 34 28 24 23 31 33 33 33 34 32 32 35 37 35 35 36 36 34 33 32 31
18 12 13 23 24 23 28 30 25 21 25 26 26 31 28 17 26 31 34 30 24 24 29 27 28 26 25 25 31 35 33 33 32 33 32 31 34 35 36 36 34 34 33 31
19 16 9 13 10 15 17 34 27 20 24 26 30 32 27 31 30 27 27 29 31 28 33 34 31 30 29 28 29 33 32 33 34 32 33 30 33 36 35 35 35 33 32 31
20 17 9 15 15 6 11 13 18 24 22 25 31 33 37 27 27 31 32 29 28 30 32 40 38 35 31 30 31 33 33 33 30 30 33 34 33 34 33 34 33 31 31 29
26 20 11 8 11 14 9 15 18 12 19 24 30 34 42 43 36 31 27 27 28 33 33 35 42 39 37 36 34 31 33 30 29 29 34 32 31 29 31 31 30 29 28 27
27 28 20 15 8 5 12 24 22 15 10 22 30 37 33 37 34 36 34 29 26 26 33 39 47 48 47 43 41 33 33 31 30 24 25 27 26 28 27 26 26 25 25 23
24 22 24 21 15 15 13 14 23 9 11 19 27 32 32 31 31 29 26 26 24 24 28 39 45 48 49 47 43 38 38 34 31 30 27 25 24 25 24 25 25 25 24 24
16 14 15 17 12 13 12 10 13 14 19 20 24 29 28 27 26 23 17 20 28 28 20 25 35 42 46 49 46 41 41 37 36 32 26 24 25 27 27 27 26 24 24 24
10 16 9 10 9 11 10 14 26 23 21 23 25 28 26 26 24 21 16 12 11 14 16 19 26 31 35 37 37 40 45 43 38 35 32 30 31 31 31 28 26 25 23 21
3 2 2 3 5 10 13 3 9 23 24 24 24 26 26 24 25 25 21 18 16 13 17 22 24 27 30 32 34 37 48 47 42 38 34 34 36 36 32 31 30 26 25 24
18 20 11 14 16 10 9 5 11 19 23 25 24 24 24 23 22 24 25 23 22 20 18 21 25 29 31 35 36 36 49 50 47 43 41 38 40 36 35 33 30 29 26 24
23 19 16 21 12 10 7 4 6 15 21 23 24 23 21 21 22 23 24 25 25 24 24 23 25 28 30 32 35 38 42 48 50 49 47 43 38 33 27 29 29 30 33 34

GFSCGP_700_spd_060.txt.gz
Wind_Speed
25 27 33 25 24 21 13 18 24 19 17 19 22 19 14 12 10 11 11 12 15 22 27 28 32 32 30 29 27 25 25 24 22 20 17 16 14 12 11 10 8 7 7 5
20 32 24 21 21 23 21 15 18 20 19 18 22 22 18 17 14 12 11 13 12 19 27 30 31 33 33 30 28 27 25 26 23 21 19 18 16 15 15 13 10 8 7 6
27 12 25 23 24 24 24 25 17 19 18 21 20 24 23 21 19 20 18 14 15 17 24 31 32 33 34 33 31 29 28 26 26 24 22 21 19 18 17 16 13 10 10 8
26 26 14 27 26 24 26 23 23 19 16 23 26 24 30 27 24 24 23 19 18 18 20 25 30 31 33 33 31 31 30 29 28 27 25 23 20 18 17 16 15 13 12 10
17 19 29 24 21 26 24 19 21 24 22 19 22 25 29 32 29 28 26 23 23 21 20 22 24 27 31 33 33 32 33 32 31 30 28 26 24 22 20 19 17 15 13 11
19 14 18 28 25 15 21 21 20 19 25 25 34 28 31 32 34 31 27 26 26 24 21 20 21 24 29 33 34 33 33 33 34 33 31 29 27 25 24 22 18 15 13 11
18 21 22 19 22 27 23 23 16 14 19 22 36 36 34 30 28 33 29 29 30 25 22 21 23 26 25 28 32 36 34 34 34 35 35 32 29 28 25 23 20 18 15 13
12 19 22 23 27 28 32 32 22 20 16 22 34 39 44 35 22 27 28 27 27 27 25 25 26 26 25 25 26 33 36 34 36 35 36 35 32 31 28 26 24 21 19 16
9 18 10 20 24 28 27 40 38 33 23 24 31 36 29 34 39 23 26 26 25 27 19 26 26 29 25 25 25 28 30 34 35 35 37 37 36 34 31 28 26 24 23 21
8 13 13 15 21 30 30 29 33 38 22 22 22 28 38 29 36 38 33 25 28 26 24 25 28 28 30 28 26 24 28 27 31 35 36 37 37 35 32 30 29 27 25 23
10 12 13 10 20 26 29 39 30 35 34 19 18 23 25 32 36 34 37 34 27 23 22 21 25 23 24 32 29 27 24 27 29 33 36 37 37 36 34 33 30 30 27 25
11 11 20 25 18 18 19 21 41 34 39 42 30 26 10 19 28 28 31 32 34 31 27 24 22 25 25 26 30 30 28 26 27 30 32 35 36 36 36 34 32 31 29 27
9 10 15 20 24 24 23 25 29 36 40 40 29 34 17 11 13 25 27 31 27 28 30 29 25 28 30 29 26 26 31 29 27 26 30 33 35 37 37 34 34 34 32 29
11 15 17 20 8 4 9 15 17 26 36 37 38 29 35 23 13 12 17 21 27 28 30 31 32 25 27 29 30 29 29 31 30 29 29 32 34 34 34 34 35 34 33 31
14 18 17 20 20 17 19 22 22 25 28 35 33 32 29 29 24 20 16 17 24 30 34 36 35 28 23 23 30 30 31 33 31 32 28 32 32 32 33 34 35 35 35 33
17 20 16 21 20 20 25 27 27 28 27 28 32 29 33 19 23 27 22 28 27 20 24 33 40 38 33 29 26 36 35 32 37 32 31 25 31 34 34 35 36 36 36 34
20 16 17 21 15 15 23 31 30 32 30 27 38 33 19 23 23 22 24 34 32 27 23 22 27 35 34 29 28 35 35 33 34 36 35 32 25 31 35 35 36 38 37 35
14 16 17 19 13 15 18 23 26 36 32 29 26 34 34 29 21 33 27 26 29 30 28 27 27 32 32 30 28 30 36 38 37 37 37 35 33 28 30 36 37 37 37 37
24 16 14 17 17 20 13 11 10 5 32 26 24 27 38 40 27 23 35 31 28 27 26 31 32 37 37 35 31 30 32 40 40 40 37 35 34 33 30 33 36 36 36 35
25 23 17 12 7 12 2 18 18 19 15 16 28 31 45 35 35 30 34 32 26 25 25 32 34 40 40 39 35 31 29 33 39 38 38 38 36 34 34 32 32 33 33 32
21 19 24 22 16 14 17 18 14 14 9 13 20 30 35 17 30 40 38 37 31 27 22 33 37 40 41 42 40 36 33 25 34 39 39 39 37 35 33 29 29 34 33 32
20 17 18 21 20 18 18 14 11 21 15 17 22 24 27 30 32 35 38 38 35 32 26 27 32 39 42 44 46 42 38 32 34 39 38 34 34 34 36 36 35 35 34 32
10 17 16 13 15 19 19 20 17 23 24 19 22 24 28 28 25 25 26 31 36 34 29 26 28 32 45 49 54 50 47 41 36 42 32 29 32 31 29 30 32 32 32 32
12 17 24 15 19 15 9 1 11 25 26 22 23 25 28 30 27 24 22 18 23 31 28 27 27 32 39 46 51 56 53 50 43 43 40 35 32 32 31 31 34 36 36 36
11 12 1 3 7 4 1 4 7 14 16 12 20 23 26 29 30 26 24 20 18 18 18 23 26 30 31 36 42 47 49 49 51 49 45 42 40 37 37 36 37 37 36 33
25 20 11 13 11 2 4 5 12 9 15 15 15 18 21 24 25 26 26 28 23 21 20 24 27 30 32 36 38 43 48 51 54 52 51 47 43 40 40 39 40 38 36 33

GFSCGP_700_spd_063.txt.gz
Wind_Speed
22 23 29 25 25 23 15 23 24 20 21 23 26 19 22 23 20 20 20 24 28 30 29 30 30 30 29 27 25 25 26 24 22 19 17 16 14 15 12 11 12 9 5 5
18 31 25 21 20 23 23 18 20 24 20 18 22 24 18 21 22 20 21 23 26 27 30 31 32 32 31 28 26 25 26 24 22 21 19 18 16 13 12 11 10 8 7 6
28 14 26 25 24 23 25 25 21 19 21 22 22 24 24 27 21 20 20 21 24 29 31 32 32 33 33 31 29 27 25 25 24 23 22 20 19 18 15 11 12 9 8 8
26 27 15 26 27 25 25 22 22 19 23 26 27 23 33 22 25 25 24 24 25 27 30 31 31 31 34 32 30 29 27 26 26 25 24 22 20 17 14 14 11 10 8 8
24 23 30 25 26 26 26 20 21 23 25 24 26 29 33 36 29 27 27 26 26 27 26 24 26 28 29 32 30 31 30 28 28 27 26 24 23 18 14 13 18 14 11 9
21 18 22 30 26 24 22 23 21 21 24 25 34 31 32 31 27 31 31 30 28 28 29 26 20 29 31 31 32 31 30 30 29 28 28 26 25 22 18 19 18 17 12 11
20 25 22 18 23 28 21 25 23 17 20 20 36 38 32 27 28 37 33 34 31 30 30 29 26 23 22 28 29 31 32 31 31 31 30 29 27 26 23 21 19 16 13 11
15 21 25 24 27 26 34 30 25 24 15 24 36 41 42 30 20 34 29 34 35 33 30 31 24 22 24 23 25 29 32 31 32 32 32 31 30 29 26 24 22 19 16 15
14 25 7 15 22 27 29 39 37 35 30 25 31 38 34 35 35 23 33 35 35 35 32 31 29 27 25 25 24 23 29 31 33 32 32 33 33 33 30 28 25 22 20 17
10 18 14 15 17 21 29 27 32 39 25 26 27 32 36 38 37 38 28 22 27 36 30 30 31 30 28 26 24 24 25 28 32 33 32 32 35 35 33 30 28 25 23 21
11 16 22 21 22 23 26 33 30 29 43 20 19 23 31 31 36 34 39 28 29 26 30 31 29 31 29 30 30 26 24 28 30 32 32 33 35 37 36 34 31 28 26 23
9 19 22 29 19 21 28 33 34 35 31 40 39 29 1 30 28 31 33 38 31 29 30 30 29 30 30 31 32 28 25 21 26 28 30 33 34 37 38 37 34 31 29 26
12 19 22 26 25 27 29 34 31 30 41 36 30 34 16 14 11 22 27 34 34 33 30 30 28 28 30 31 32 32 31 25 22 26 29 31 36 37 39 38 35 33 31 28
13 16 22 24 15 12 17 36 32 33 35 39 38 35 34 12 11 17 21 24 29 33 36 31 28 28 29 31 29 25 27 32 26 24 24 30 33 36 38 37 35 34 32 30
16 23 22 25 27 20 20 18 25 35 31 32 37 36 34 34 20 13 13 19 21 24 27 35 33 29 32 30 29 32 32 35 32 28 26 24 29 33 35 36 35 35 33 31
16 26 25 26 23 24 26 25 25 29 33 32 29 33 29 21 13 30 19 13 15 13 16 24 25 29 29 29 23 27 29 32 35 31 26 24 22 29 33 35 34 34 34 33
21 19 20 28 23 26 32 32 31 34 37 35 35 31 25 24 18 5 18 20 14 14 15 14 23 27 27 27 30 26 25 30 35 34 32 28 23 21 30 32 34 35 35 34
21 17 21 22 21 18 24 24 28 33 38 37 39 40 33 29 22 21 14 19 27 27 29 25 22 29 35 28 27 31 30 31 35 34 35 35 29 26 22 29 33 33 34 35
27 23 15 12 21 19 22 9 12 12 22 35 36 37 38 36 29 30 19 29 23 21 23 25 27 27 31 34 36 29 33 36 38 35 33 32 33 29 28 25 25 30 32 35
28 29 23 19 16 17 24 12 18 14 19 17 26 31 28 29 28 27 32 33 27 22 21 22 27 30 32 34 33 36 35 36 38 38 34 36 37 35 31 28 25 23 29 31
26 26 27 26 22 19 16 7 12 12 13 23 16 19 18 21 24 27 35 41 40 31 28 25 28 31 34 34 39 38 36 35 35 38 42 41 39 38 35 35 33 27 25 30
15 14 22 27 26 23 19 14 11 16 18 19 22 25 29 26 31 40 39 42 40 39 36 30 28 31 36 35 39 42 40 36 34 32 39 45 43 41 41 36 34 32 30 31
6 13 14 12 22 16 17 22 24 26 23 28 23 28 32 37 32 36 38 43 45 38 39 36 29 24 33 42 38 40 40 41 38 33 33 44 45 42 43 38 35 36 33 33
13 17 20 24 22 26 27 27 28 25 27 24 31 30 31 30 30 26 31 36 42 44 42 38 34 30 32 35 40 44 41 45 43 37 31 39 47 44 42 40 40 40 38 37
10 11 11 22 26 27 28 18 19 13 14 21 30 31 29 27 30 28 29 31 31 33 35 36 35 35 35 35 39 45 47 48 46 40 35 40 44 41 39 41 40 41 40 38
16 17 10 7 6 4 6 11 17 18 19 19 26 30 25 22 21 25 26 28 28 30 28 25 27 29 33 35 39 45 47 50 50 44 39 43 43 39 38 36 35 36 36 37

GFSCGP_700_spd_066.txt.gz
Wind_Speed
18 23 26 23 23 23 21 22 23 20 22 19 23 28 20 26 24 25 19 28 28 38 34 31 31 29 29 25 23 23 23 21 20 19 16 16 15 17 12 10 8 7 8 5
18 28 22 18 20 22 24 23 21 21 19 21 21 22 24 24 33 30 23 29 28 30 37 36 36 33 32 24 23 23 24 21 20 19 18 17 15 14 10 11 7 7 5 5
26 13 21 23 22 23 23 24 21 19 16 22 19 20 29 19 34 40 28 27 31 33 36 39 39 36 32 26 25 24 24 21 21 20 20 20 20 17 13 14 14 9 6 5
25 23 17 23 27 23 25 20 23 22 21 23 24 17 24 22 27 21 28 28 32 35 36 37 36 36 33 27 26 25 24 23 23 22 21 20 19 20 15 10 10 10 8 6
22 24 26 26 21 25 25 20 19 21 25 24 30 24 21 33 27 29 28 37 34 37 36 35 29 30 30 27 25 25 25 24 26 24 22 21 20 18 14 15 12 12 9 8
17 18 22 26 26 21 22 23 22 23 24 24 31 31 28 31 32 24 27 39 35 36 39 35 24 28 30 29 26 26 26 26 27 27 25 23 21 20 18 15 17 13 10 9
16 21 20 16 22 27 23 20 22 19 18 19 29 33 30 21 33 29 25 46 40 36 37 39 30 29 28 26 22 24 26 27 28 27 27 25 23 22 19 18 19 15 13 13
16 15 23 26 22 21 28 27 26 17 15 20 30 32 34 33 29 29 21 37 29 36 33 36 30 20 18 20 18 20 23 26 27 29 28 26 26 25 22 20 18 18 13 10
10 18 12 17 24 23 26 33 31 32 32 23 30 28 30 25 28 26 36 41 44 35 36 34 35 25 21 21 17 17 14 24 27 28 29 29 28 28 27 23 21 20 16 14
7 18 14 10 14 17 23 27 27 33 21 24 26 31 27 28 28 29 26 25 24 30 41 34 33 31 27 23 21 20 19 16 24 27 28 30 29 29 29 27 24 23 19 18
10 12 21 16 16 18 22 25 28 26 32 18 16 27 23 21 33 33 32 27 25 35 44 26 39 35 28 28 28 23 21 18 22 28 29 29 31 31 32 30 28 26 23 20
8 12 18 23 22 21 21 27 26 29 25 27 30 33 28 10 13 33 32 27 28 14 21 41 44 45 33 31 27 28 24 19 16 24 27 28 30 32 33 33 31 29 27 24
7 12 21 22 23 22 26 26 29 29 34 35 23 26 38 24 18 19 26 27 26 23 19 20 41 53 36 30 26 26 27 23 18 20 26 27 29 33 34 35 33 32 29 27
14 18 21 25 20 16 14 21 28 28 34 30 38 34 27 28 13 7 4 17 20 26 23 21 22 40 38 29 24 24 27 28 25 21 17 26 27 28 33 34 34 33 31 29
14 21 23 28 28 23 22 22 20 23 35 35 32 34 36 21 12 6 7 10 12 25 23 32 31 34 39 32 28 23 25 31 30 27 21 16 22 26 29 33 33 33 32 30
15 22 21 28 26 26 26 25 26 25 25 34 35 37 32 22 22 25 10 8 5 15 17 22 24 29 28 38 30 25 24 30 31 30 26 23 19 23 27 30 33 34 34 31
16 18 17 27 24 24 30 28 24 28 27 27 31 32 31 23 15 13 22 9 6 4 16 19 20 18 18 43 40 33 26 25 30 30 30 27 23 21 22 27 31 33 34 33
23 22 19 17 16 17 28 24 26 30 34 28 29 32 31 26 16 22 16 24 14 6 15 27 32 32 22 10 38 24 27 22 27 29 31 31 29 24 21 25 29 31 32 34
24 25 22 16 16 22 23 18 10 10 18 25 23 33 35 33 28 23 26 25 27 19 13 23 26 33 34 28 24 25 25 25 25 28 29 30 31 31 28 24 25 30 31 32
23 26 27 19 16 11 25 15 9 11 16 17 14 16 21 29 37 33 21 28 34 28 14 17 25 31 27 31 33 29 32 31 29 30 31 31 32 34 34 30 26 21 27 29
11 24 26 23 21 24 18 16 15 14 11 18 23 27 9 8 5 20 42 39 28 22 28 29 18 22 25 27 30 35 38 37 30 30 33 36 34 31 32 32 32 28 24 25
12 9 19 17 17 19 9 13 11 16 17 22 23 21 17 11 9 14 17 29 41 31 31 31 25 23 20 23 30 31 36 39 35 36 34 39 39 38 35 34 33 32 31 30
4 6 6 8 11 12 20 22 22 26 30 25 28 29 25 24 23 27 29 39 43 43 43 37 31 29 27 22 28 33 33 36 40 39 36 34 37 41 41 39 37 35 35 34
9 16 20 23 16 18 20 26 29 32 32 29 31 32 35 33 28 35 39 35 40 44 43 38 33 33 33 28 26 33 34 37 41 42 39 33 32 36 42 44 41 39 38 36
12 14 13 21 32 32 35 37 40 38 36 36 32 29 35 37 35 34 36 34 38 39 43 41 38 38 38 32 30 32 30 33 37 44 44 39 35 35 37 44 45 41 42 38
13 21 16 11 9 14 17 18 21 29 32 25 24 25 26 34 38 38 32 30 32 35 39 38 38 40 41 38 35 33 35 33 37 40 45 43 40 37 37 43 46 44 43 42

GFSCGP_700_spd_069.txt.gz
Wind_Speed
14 18 24 25 22 20 22 27 27 20 15 19 32 29 18 15 16 32 33 20 18 42 37 36 35 32 27 23 20 20 22 24 22 21 19 17 16 15 16 14 12 10 9 10
13 24 19 15 16 20 15 21 24 21 15 17 22 26 21 10 7 13 32 24 13 27 35 33 36 35 29 24 21 22 22 23 22 21 19 16 17 19 13 12 13 11 12 7
19 12 12 20 18 22 25 24 22 23 20 20 23 24 21 19 21 23 22 33 23 15 34 38 38 40 34 28 24 23 21 22 21 22 20 20 21 22 19 17 14 11 9 7
19 19 21 23 21 20 25 19 21 23 24 25 12 5 24 28 24 29 27 25 34 32 23 36 40 41 40 29 25 24 21 23 23 23 21 20 18 20 16 15 14 11 8 6
18 18 20 21 24 18 26 21 21 21 22 23 33 12 9 25 26 17 33 34 34 37 32 29 45 43 40 32 28 27 24 25 25 24 22 20 18 15 17 16 13 12 10 8
13 19 17 19 23 20 15 20 23 21 19 17 27 20 7 28 25 24 32 19 38 39 42 37 33 39 43 35 30 29 27 25 27 26 24 21 19 18 16 18 15 16 12 10
10 15 18 14 11 22 21 16 11 9 11 8 18 21 24 17 22 27 22 22 26 40 40 40 38 37 41 39 30 30 29 27 28 28 26 23 21 20 17 14 15 17 14 11
10 10 12 16 17 13 20 22 17 6 5 8 21 15 25 22 27 24 25 11 31 44 42 45 30 37 37 35 26 27 29 27 28 27 27 25 24 22 20 18 13 13 13 12
8 10 9 4 10 20 20 22 19 25 32 18 21 23 25 25 25 27 27 23 26 37 42 42 46 26 30 34 25 23 28 29 27 27 26 26 27 25 22 20 17 13 12 13
4 12 9 11 5 7 24 21 16 19 7 7 11 26 21 15 29 31 34 41 34 42 21 39 43 43 35 31 25 25 23 30 28 28 27 26 27 27 23 22 20 16 13 13
8 5 26 17 2 14 14 13 16 17 17 5 7 15 29 8 15 12 36 30 43 45 24 30 44 49 43 43 37 27 24 26 31 32 30 28 27 29 28 25 22 20 17 17
2 5 12 23 26 16 17 18 15 16 12 20 21 22 35 31 31 34 18 37 35 35 26 27 11 41 38 44 43 38 28 27 28 31 31 30 28 29 31 29 26 24 21 21
7 2 9 17 20 17 15 17 20 22 24 29 13 18 23 10 16 10 4 31 40 27 27 22 17 17 43 60 44 40 35 28 28 30 31 31 31 29 31 31 29 27 26 24
12 13 11 14 20 23 28 23 18 18 18 23 23 22 30 28 23 15 10 15 14 33 29 22 23 12 31 44 38 42 38 32 26 29 30 30 30 28 27 28 30 30 28 27
4 10 12 22 25 27 27 26 27 23 22 23 26 29 25 20 24 21 14 16 11 20 34 25 28 18 17 36 42 46 49 32 31 27 26 22 28 29 29 29 30 29 30 29
10 17 15 21 21 21 28 26 27 26 25 25 26 33 19 12 13 22 26 12 7 20 26 10 6 24 34 35 51 38 45 35 31 31 27 24 22 26 28 26 28 30 29 29
10 15 13 23 19 19 24 26 25 28 25 26 32 30 28 26 14 18 18 12 9 19 20 15 18 15 37 35 26 36 40 43 24 26 30 29 25 21 24 26 26 28 31 30
17 18 19 23 17 4 29 19 18 25 29 30 28 26 23 24 21 18 21 21 17 16 15 12 17 20 9 2 22 39 56 44 39 23 28 31 30 27 22 22 26 27 29 31
21 21 22 22 17 20 25 23 19 12 12 20 16 17 20 25 19 19 21 22 28 19 19 18 5 6 7 13 20 28 24 36 36 28 30 30 29 31 28 25 20 24 27 28
11 23 22 20 5 7 9 6 13 19 20 14 16 11 18 17 14 18 24 25 27 30 26 23 16 3 2 7 13 26 35 25 31 26 24 24 29 31 32 27 26 21 23 26
15 12 18 23 17 12 14 15 18 13 15 17 18 14 17 9 7 20 27 32 36 34 32 28 23 16 6 5 7 20 29 47 39 33 31 25 23 29 28 31 31 29 23 22
7 9 7 8 16 10 15 15 14 19 20 22 22 27 22 21 13 19 23 32 40 38 34 27 24 26 15 9 11 12 29 30 35 37 33 28 27 28 30 29 30 33 30 29
3 9 11 7 7 15 17 20 28 28 23 22 26 28 30 30 27 21 24 22 28 27 27 33 28 28 20 15 14 21 15 26 34 37 36 30 30 30 33 35 32 33 35 32
10 15 14 18 16 20 26 23 26 29 32 27 29 31 35 36 30 31 31 30 28 28 29 29 32 31 30 28 20 22 24 26 29 37 39 42 33 31 34 34 37 36 37 37
10 19 21 16 17 17 19 25 30 37 41 42 38 37 36 38 30 33 36 35 28 29 34 33 36 37 39 33 29 25 23 26 29 33 34 42 40 34 33 32 33 35 38 38
10 10 18 22 24 18 20 22 26 26 23 24 30 38 38 37 31 32 35 32 28 25 29 35 38 41 46 41 29 34 30 27 29 32 35 35 43 39 36 35 33 33 37 41

GFSCGP_700_spd_072.txt.gz
Wind_Speed
30 26 26 20 18 14 13 15 19 15 9 19 18 30 28 14 15 11 18 18 13 36 36 34 33 30 27 23 19 18 18 22 25 21 18 19 17 15 15 13 12 12 12 9
24 23 21 16 15 15 12 13 14 18 12 16 13 26 29 19 14 13 10 15 13 34 39 35 34 33 28 23 19 18 19 22 23 20 17 17 12 16 17 14 16 12 13 10
16 9 9 15 11 14 16 18 14 18 19 16 11 20 25 23 24 21 19 9 17 16 38 40 37 38 31 31 21 19 20 23 22 21 20 20 20 23 19 18 17 14 12 11
10 13 13 11 17 15 19 14 17 20 14 12 7 7 14 21 27 28 28 20 27 25 35 40 40 36 36 28 24 18 20 23 23 25 22 20 20 21 17 14 14 14 11 10
11 10 9 14 17 12 17 11 16 19 17 14 11 6 10 26 38 32 30 28 19 27 27 37 40 36 33 32 25 19 21 23 26 26 23 19 19 17 17 18 17 16 15 12
11 13 7 8 13 17 16 15 18 19 18 4 2 3 6 11 13 31 32 28 28 26 28 26 35 33 27 28 30 24 23 24 26 27 25 22 19 20 21 19 18 16 14 13
8 13 12 10 13 11 16 15 3 4 3 6 12 9 4 10 13 17 23 23 24 26 31 31 38 29 33 24 25 25 26 27 27 28 27 25 21 22 20 19 17 16 13 11
3 5 10 2 2 9 6 8 9 6 3 3 11 4 7 15 17 17 17 16 26 30 32 31 37 29 29 21 21 23 27 29 29 29 28 26 24 23 22 19 18 15 15 13
5 6 4 2 4 8 10 9 6 6 13 2 6 18 11 5 17 22 24 23 25 27 38 37 37 31 24 32 24 22 26 30 30 29 29 29 26 26 22 19 17 15 18 16
2 4 8 5 6 8 5 5 5 5 2 3 5 9 17 20 28 28 17 29 33 33 36 36 30 27 30 23 31 32 25 30 30 30 31 30 30 28 25 22 19 16 16 16
3 11 12 8 6 18 11 14 10 5 3 5 2 5 7 15 23 21 17 13 30 39 40 31 23 25 35 26 28 27 28 28 33 34 33 32 32 32 30 27 23 21 20 19
4 7 18 25 21 14 1 10 16 8 6 5 1 2 22 21 22 22 20 16 20 44 43 37 18 7 20 34 36 29 28 29 32 32 35 35 33 33 34 32 27 25 23 22
2 3 9 15 2 3 2 5 15 14 7 5 1 5 12 16 25 26 19 19 15 37 45 42 30 18 8 33 41 31 30 29 30 32 33 36 37 35 36 34 31 29 26 25
7 4 5 4 10 18 27 26 20 17 10 20 7 16 20 17 17 17 20 13 17 18 38 44 39 31 12 18 37 40 36 31 30 31 30 34 37 36 36 36 35 33 30 29
5 1 6 9 10 15 24 28 20 19 17 13 20 19 20 14 16 13 13 17 16 23 37 47 42 37 25 31 35 47 46 44 32 32 30 31 35 37 38 38 38 36 34 32
4 6 11 13 14 18 24 24 25 24 19 15 20 18 14 13 19 13 7 10 10 16 29 39 42 42 36 21 28 46 51 43 35 33 32 26 31 35 37 38 39 39 37 34
4 5 9 5 10 16 21 29 24 27 22 20 19 16 20 12 14 15 8 5 6 4 11 26 34 35 41 44 28 37 41 43 39 36 33 29 29 32 34 35 38 39 39 37
11 10 11 12 10 3 22 17 11 13 7 6 6 12 21 13 5 8 9 12 9 8 10 6 13 19 31 49 46 38 43 38 36 38 32 27 29 27 29 29 33 37 37 38
14 17 14 8 12 21 29 25 21 21 17 13 11 14 21 15 12 14 11 14 17 17 16 9 14 17 15 27 36 36 33 43 44 43 38 34 26 23 26 29 28 30 35 35
4 10 20 14 5 5 9 8 8 12 16 19 18 12 23 20 13 22 21 16 18 19 18 16 11 8 6 4 5 15 29 38 42 48 42 36 31 30 27 27 30 29 28 30
7 6 8 14 15 17 24 23 22 17 17 20 24 24 18 22 7 18 21 17 18 21 28 25 21 15 12 8 4 10 23 37 31 45 44 35 33 24 21 25 27 30 31 28
4 5 4 5 7 12 17 19 20 22 21 22 23 22 27 30 21 14 23 22 21 22 25 33 25 19 22 16 7 4 12 34 35 43 40 45 40 34 24 22 25 27 33 33
1 3 7 10 9 12 17 17 21 29 29 27 27 25 28 31 29 26 22 27 29 23 23 30 34 29 22 24 17 9 10 20 38 48 50 44 38 37 35 29 27 23 29 37
2 5 11 12 11 19 27 28 27 30 32 29 27 34 38 41 36 33 35 26 28 31 28 25 26 36 31 26 27 19 18 19 24 35 49 44 40 40 33 33 29 28 28 34
9 11 10 10 17 9 9 16 18 20 26 35 41 44 44 44 41 36 33 35 28 31 35 33 27 23 37 36 36 30 23 17 25 30 43 40 41 34 32 35 35 32 31 29
9 10 11 10 13 15 16 15 14 16 19 23 29 33 36 39 45 41 36 37 35 31 34 37 34 31 29 27 30 40 33 27 20 28 37 38 36 39 39 38 38 36 33 30

GFSCGP_700_spd_075.txt.gz
Wind_Speed
31 29 28 22 19 16 13 15 14 6 3 6 8 14 20 17 13 13 17 16 15 20 29 28 25 21 17 16 11 8 9 14 15 14 14 15 15 13 10 9 10 9 9 9
29 29 22 21 21 16 13 17 13 3 2 11 11 15 19 23 17 18 13 19 14 23 33 34 30 27 24 19 12 11 9 12 15 14 13 14 13 11 11 11 12 11 10 8
22 17 20 19 15 16 15 20 9 6 13 11 7 3 22 28 23 21 15 22 19 25 30 33 30 28 27 23 16 10 9 12 16 15 15 18 17 17 15 13 12 11 11 8
13 19 13 17 18 14 15 17 9 7 4 5 5 4 16 30 25 24 20 24 24 28 31 32 32 25 26 28 17 13 13 12 16 19 18 17 16 16 14 12 12 11 10 9
9 7 12 11 17 12 11 8 9 11 11 8 6 2 7 17 20 25 25 24 27 26 35 42 38 28 18 21 22 16 15 14 18 21 20 19 17 18 17 16 15 12 10 10
10 7 1 6 12 12 10 11 12 15 11 3 7 4 5 17 11 14 21 28 24 21 24 36 42 29 27 19 21 21 18 16 17 22 21 20 18 17 21 20 17 14 12 10
9 8 8 9 11 9 11 12 2 2 3 5 9 2 4 4 12 16 12 9 19 23 23 32 33 29 30 23 18 22 21 21 17 23 23 20 19 19 20 21 17 16 14 11
9 6 9 5 10 14 8 14 7 5 4 5 8 8 6 10 9 10 13 15 18 20 25 32 30 23 24 19 17 16 18 18 19 22 25 23 21 20 20 23 18 18 16 12
7 6 8 9 7 13 11 7 7 6 5 3 5 2 2 8 12 9 11 11 15 21 25 30 33 22 18 22 19 17 15 16 18 22 25 26 23 23 21 21 20 20 16 16
4 3 7 9 10 9 11 8 4 4 4 3 2 11 20 17 11 12 8 9 17 22 30 28 34 28 21 19 18 18 18 17 13 19 25 27 26 24 23 23 22 19 17 20
2 2 1 4 12 11 6 7 4 6 4 5 3 6 15 15 14 9 9 12 5 20 25 28 27 29 28 27 22 21 21 21 23 22 26 27 28 27 27 25 22 21 18 19
3 3 7 8 12 7 7 16 13 6 5 4 3 5 8 12 13 9 9 7 8 14 18 26 30 28 27 28 29 22 22 19 21 25 28 29 29 30 30 28 24 22 22 21
3 4 4 10 17 10 8 12 12 8 8 14 4 4 7 5 7 10 9 7 6 5 17 26 31 32 28 26 28 33 32 25 22 22 29 31 31 31 32 30 28 27 25 24
4 3 0 5 2 8 12 13 10 6 6 6 6 15 12 5 10 9 13 12 8 10 14 23 32 33 32 29 30 34 38 37 33 29 26 31 33 32 32 32 31 29 29 27
6 3 1 2 5 9 11 10 7 3 3 4 10 14 13 11 8 7 11 16 10 6 12 22 34 36 37 32 33 31 38 42 39 35 31 27 28 31 32 34 33 33 32 31
7 2 4 8 10 15 19 17 13 9 5 10 15 18 16 9 9 11 11 12 10 2 8 21 29 43 43 34 34 23 26 32 39 38 34 30 27 28 31 33 34 35 36 35
4 2 8 4 11 16 10 3 1 4 8 10 16 23 24 11 13 14 15 15 10 7 6 11 20 35 45 43 45 35 28 38 42 43 41 37 33 31 29 32 35 35 36 37
7 5 3 3 8 3 4 2 6 8 6 5 10 16 21 9 12 18 17 18 17 13 9 8 6 5 25 39 48 50 44 31 39 46 42 35 32 30 32 32 35 35 34 36
9 10 5 4 11 13 21 17 12 13 14 14 15 13 17 11 13 17 19 21 23 19 17 15 11 7 6 13 26 40 44 38 33 38 33 31 31 29 29 33 33 32 31 32
7 5 12 9 4 5 6 7 6 7 17 19 21 22 19 21 11 22 25 22 24 25 23 20 20 14 8 12 12 25 33 41 40 38 37 32 32 31 30 31 33 31 28 25
10 9 11 12 11 10 18 20 17 17 17 19 22 23 25 29 19 19 27 32 27 31 28 27 22 22 17 9 14 19 25 26 36 37 41 40 43 36 31 30 32 31 29 28
3 4 5 7 6 11 17 17 18 21 26 30 29 27 27 28 30 18 24 30 27 26 27 31 29 29 28 24 12 16 21 23 26 34 36 36 39 36 34 31 33 35 35 35
4 3 2 5 8 20 25 24 21 25 26 30 32 31 30 31 35 28 24 28 32 30 30 26 33 29 27 34 32 16 16 25 37 35 36 42 43 42 43 38 36 36 38 41
10 10 7 7 9 15 15 16 22 32 34 32 33 34 35 38 41 42 32 29 32 33 33 32 29 29 31 32 33 33 26 21 17 33 41 38 41 47 51 48 40 37 33 34
14 13 11 12 12 14 12 12 12 16 23 26 27 29 33 39 43 44 37 37 39 37 33 37 34 29 30 35 42 40 36 30 23 20 24 36 44 48 44 50 44 39 30 32
14 14 15 15 13 13 11 13 17 16 13 17 21 23 25 31 37 41 43 46 43 41 38 34 37 36 31 29 34 43 52 38 33 29 26 29 33 37 45 48 41 36 33 33

GFSCGP_700_spd_078.txt.gz
Wind_Speed
28 28 31 26 16 13 11 9 11 7 2 4 5 5 18 15 12 12 12 11 15 24 26 25 20 19 19 15 12 7 6 8 13 13 13 11 8 8 8 8 7 6 6 5
26 29 22 17 14 13 14 11 9 6 4 4 4 8 9 18 19 14 12 14 14 20 30 28 25 21 22 18 13 10 7 6 8 11 13 13 13 10 11 9 7 6 7 6
24 19 21 18 15 17 16 15 9 6 3 3 5 5 7 16 23 22 15 16 19 19 27 29 29 24 21 21 17 11 7 5 9 11 14 14 15 14 13 9 6 7 8 7
12 12 21 18 20 16 18 17 12 7 1 3 6 3 2 17 23 23 18 16 22 21 24 31 27 26 23 20 16 14 8 4 6 11 12 13 13 11 11 9 10 9 10 7
10 21 13 19 22 18 12 7 10 6 4 3 2 1 5 8 17 18 15 18 23 19 23 26 33 30 22 21 19 17 13 9 6 9 11 12 15 12 13 10 12 10 8 6
12 8 8 15 15 17 8 6 4 5 4 2 4 3 7 5 8 12 20 24 25 24 19 23 27 34 29 23 22 21 17 12 10 8 11 13 13 14 16 14 12 11 9 8
10 8 8 11 12 15 14 12 4 2 3 5 15 8 10 6 4 7 10 11 20 27 25 21 22 28 31 27 26 23 21 18 13 10 12 13 12 13 15 18 14 14 10 8
11 5 13 9 15 14 13 16 6 5 5 6 13 10 6 7 8 5 5 7 8 18 28 27 21 23 24 27 26 24 23 21 17 15 13 15 15 14 14 18 17 16 13 12
10 9 13 9 12 19 13 12 13 8 7 6 6 5 6 3 2 1 4 5 13 14 23 28 26 22 24 25 27 24 22 20 19 16 14 15 16 16 15 17 19 16 15 16
8 11 7 5 11 13 16 13 10 9 4 3 4 7 6 2 1 3 0 3 10 19 18 24 30 25 23 23 24 24 22 20 17 17 16 15 16 17 16 18 19 18 17 18
8 6 5 6 11 8 12 13 8 12 6 6 4 3 5 5 3 3 4 5 6 17 19 19 22 27 26 24 24 26 25 24 23 21 18 18 19 19 20 20 20 19 19 21
6 8 12 16 14 12 8 11 12 13 7 6 6 6 4 2 2 4 5 5 6 8 18 21 21 24 26 29 30 27 26 26 24 22 21 20 20 21 23 22 21 21 21 21
5 6 9 7 3 5 7 11 10 11 15 7 7 8 7 3 1 3 7 7 7 7 12 21 24 28 28 26 27 30 34 30 30 29 27 24 23 25 25 24 24 24 23 23
2 1 3 9 7 6 1 1 7 7 5 8 6 10 11 6 3 4 5 11 11 10 7 17 21 28 33 31 30 29 28 32 34 33 33 31 29 27 27 26 26 27 26 26
1 2 4 8 6 4 2 2 4 10 9 6 6 9 10 9 9 8 7 10 13 12 8 8 17 24 31 31 30 29 26 27 29 34 35 34 31 32 31 29 29 28 29 28
1 6 6 4 4 5 6 8 8 8 10 15 14 16 16 16 16 14 10 9 11 11 10 9 13 21 26 30 32 31 30 28 28 34 37 35 33 32 33 32 31 31 31 32
4 5 5 5 6 2 4 7 9 11 11 13 16 17 19 21 24 22 18 13 10 6 7 9 11 12 21 34 34 36 31 30 23 18 20 27 33 32 31 30 31 31 32 33
7 8 6 4 1 4 11 9 5 7 11 13 14 16 18 19 23 26 26 23 19 13 9 6 7 14 8 23 27 40 37 34 31 27 24 24 26 32 30 31 31 31 32 35
10 9 4 3 2 2 11 12 11 16 15 16 13 13 15 16 16 21 25 27 27 24 18 16 12 10 8 8 16 26 40 40 41 41 35 31 30 34 38 34 35 32 33 33
6 7 8 6 2 3 3 6 6 9 19 16 18 22 23 22 22 19 23 26 27 28 25 24 21 18 16 11 11 14 17 26 37 41 39 38 30 33 32 32 32 31 33 32
8 6 8 8 5 5 12 12 12 12 11 13 17 20 24 26 29 26 26 28 33 30 29 27 24 23 21 21 15 13 15 14 20 27 34 38 37 33 35 33 33 32 32 30
8 7 7 10 8 7 6 14 23 24 27 25 26 26 28 29 30 30 31 32 33 34 33 33 34 29 28 25 22 20 14 13 18 16 26 34 37 33 38 36 32 30 31 29
6 8 5 7 4 5 7 11 18 27 28 29 30 31 33 34 35 34 36 34 37 40 39 35 35 31 28 31 32 26 26 20 18 15 19 16 29 36 40 35 30 31 30 28
11 11 10 8 8 9 10 9 9 9 12 22 31 36 37 37 39 42 43 40 37 38 42 44 42 35 33 29 33 33 32 35 31 23 24 19 22 23 31 34 34 35 31 33
14 12 13 13 10 13 13 13 13 15 18 19 20 22 27 31 33 37 42 46 47 47 46 44 45 46 43 36 30 33 31 40 40 33 24 27 24 34 29 37 44 40 45 42
12 11 14 13 11 11 14 15 18 20 21 22 23 22 22 27 29 32 34 37 42 48 44 51 46 45 43 44 38 32 34 35 41 43 39 34 27 34 24 28 29 38 38 36

GFSCGP_700_spd_081.txt.gz
Wind_Speed
28 27 29 23 19 10 13 12 13 13 10 4 4 9 15 9 12 6 13 17 24 30 29 25 21 18 18 17 14 12 11 11 13 11 11 8 7 7 6 7 7 6 5 6
26 25 23 21 16 14 13 15 11 8 7 2 5 5 14 20 16 14 9 15 22 25 32 30 27 23 20 18 15 12 12 11 12 10 12 11 11 8 8 7 6 6 6 6
23 15 20 21 16 16 17 11 11 7 7 5 5 3 5 15 22 18 14 12 18 25 29 33 31 26 23 22 19 14 10 9 10 11 11 11 12 11 9 6 5 5 6 7
14 11 22 20 17 16 14 15 11 9 5 4 6 4 4 7 22 22 17 14 15 19 27 29 32 28 26 22 20 16 13 10 8 9 10 10 9 9 8 8 6 6 7 6
9 21 25 19 17 15 8 8 12 8 5 5 6 3 10 3 3 17 23 18 16 16 20 25 30 30 24 22 21 21 16 10 8 7 10 11 11 11 10 9 8 8 8 7
9 20 14 15 17 15 11 10 11 8 6 7 9 4 10 5 3 2 12 21 19 16 17 20 24 27 27 25 23 23 21 16 11 7 9 11 11 12 10 10 9 8 7 6
10 12 13 15 17 18 18 14 8 6 6 6 13 6 6 9 5 2 6 15 19 25 24 22 19 23 29 29 26 25 22 20 15 10 7 11 12 12 12 12 10 9 8 7
12 9 12 16 20 17 22 18 9 9 9 9 14 10 8 8 10 4 1 8 15 21 28 27 20 14 24 28 26 25 25 20 19 15 9 8 11 12 13 14 14 12 10 10
8 6 12 11 18 19 22 21 14 6 11 13 6 9 11 10 8 7 3 6 12 16 21 22 24 19 18 26 28 25 24 24 22 18 14 10 10 11 11 13 14 15 14 13
11 9 9 9 12 16 19 19 14 7 10 11 4 5 2 9 8 4 6 4 8 12 14 15 18 21 17 20 24 26 25 24 21 19 17 14 10 10 13 15 14 14 15 15
13 10 7 9 6 13 14 16 13 14 5 7 7 4 3 2 3 3 2 3 2 10 12 14 20 20 22 19 22 24 27 27 24 23 21 19 15 12 14 16 17 16 16 17
6 10 9 14 12 13 13 15 16 16 8 6 4 6 7 3 1 2 3 2 1 1 5 16 21 21 21 21 22 24 26 27 26 24 23 21 19 19 17 17 18 19 18 18
6 7 9 4 5 7 7 11 14 12 16 10 9 6 13 5 2 2 1 2 3 5 2 12 21 23 27 24 23 27 27 28 30 28 28 27 24 24 22 20 19 21 21 20
7 9 4 4 5 11 8 8 9 10 7 10 5 16 17 11 5 1 3 5 5 7 7 5 15 19 27 28 26 29 32 32 31 31 31 31 29 27 27 24 23 23 23 24
6 6 6 8 10 11 13 9 8 6 8 4 13 12 15 13 8 5 4 5 7 10 11 11 9 15 18 25 29 29 29 33 36 38 37 34 31 30 32 31 28 27 27 27
5 6 9 10 10 11 12 13 13 11 9 9 12 11 12 11 11 10 8 8 6 8 9 11 13 13 15 21 24 32 34 31 29 30 32 31 35 36 36 35 34 34 32 30
6 11 12 5 9 7 9 14 14 13 10 11 6 10 11 12 13 14 14 12 11 10 9 10 10 10 14 16 23 25 26 29 27 27 25 30 34 35 35 37 38 37 35 34
8 10 10 6 8 4 8 13 14 12 10 10 11 12 12 13 15 16 17 18 17 16 14 12 11 10 11 13 15 20 26 27 29 30 28 23 24 30 35 37 36 35 35 36
11 11 6 6 10 3 10 15 12 9 8 12 14 13 12 12 12 17 17 19 21 22 20 18 16 13 12 13 14 17 20 29 32 34 33 30 26 20 25 35 37 35 37 36
11 10 8 9 4 6 7 15 14 12 10 14 16 15 15 15 16 17 18 21 23 25 26 24 25 22 21 17 14 13 14 19 25 30 39 36 35 35 34 30 38 39 37 37
11 9 9 9 5 6 11 11 11 7 7 7 10 14 16 20 24 22 24 25 26 27 29 31 29 29 26 25 23 19 15 16 19 23 25 37 38 38 37 32 34 42 42 41
12 11 11 12 7 8 13 15 14 14 17 19 21 23 24 25 27 27 26 28 30 32 32 33 35 33 33 32 28 25 23 17 17 21 23 24 29 33 38 36 34 38 39 39
9 11 7 9 8 9 10 9 11 14 17 20 23 26 27 29 31 32 33 35 36 37 35 39 39 39 36 36 37 35 30 27 22 20 20 20 23 31 41 34 38 40 37 36
15 12 12 12 14 12 12 11 11 11 9 9 11 14 18 22 26 31 36 38 37 40 41 42 43 45 44 40 39 40 35 35 33 30 29 23 20 19 18 24 39 38 41 38
14 13 15 17 15 14 15 13 12 11 12 14 14 15 18 21 21 23 22 27 32 36 41 46 49 48 48 48 46 44 40 38 37 37 35 32 27 25 21 17 22 37 35 35
16 18 17 14 14 16 16 14 13 12 13 15 17 18 20 22 23 26 25 25 28 31 34 39 46 55 55 52 49 48 49 46 40 38 39 38 36 35 32 25 23 28 27 36

GFSCGP_700_spd_084.txt.gz
Wind_Speed
23 18 23 21 20 9 18 16 15 13 13 10 9 9 8 15 18 15 17 20 24 25 25 22 19 18 19 23 21 19 17 14 13 9 9 9 8 4 4 5 4 3 4 3
20 22 18 19 19 15 17 18 16 13 9 10 10 11 12 9 9 7 10 18 23 25 25 24 22 18 17 19 21 18 16 15 15 12 12 11 9 6 5 4 4 3 4 3
19 15 19 20 19 18 18 18 16 14 10 9 12 9 13 11 14 8 8 11 19 25 27 26 23 21 20 22 19 17 16 16 16 14 14 11 9 5 5 5 4 4 5 4
17 10 20 21 19 21 20 15 15 12 14 14 17 10 7 13 21 18 13 12 17 20 27 27 26 25 23 21 20 18 16 15 14 14 13 10 8 7 7 7 4 4 4 4
13 19 21 21 19 19 13 17 14 13 14 9 15 10 5 5 9 14 14 15 15 22 23 26 27 28 25 24 23 20 19 15 13 12 12 12 11 11 10 8 6 4 6 5
8 17 17 18 17 18 11 15 14 13 14 16 14 14 7 5 5 5 10 15 17 14 22 24 26 28 26 25 24 24 22 17 13 12 11 10 11 12 10 8 5 6 5 4
11 16 14 17 18 17 16 20 18 14 12 10 17 11 11 6 4 4 8 16 19 19 18 22 26 29 30 27 27 26 24 20 15 13 11 11 12 13 12 10 8 8 6 5
18 14 14 17 17 19 24 25 18 13 13 14 11 11 9 7 7 5 8 11 16 20 21 22 22 24 30 31 29 25 24 22 19 17 12 12 13 14 14 12 12 10 9 8
16 7 14 17 22 17 25 25 11 8 17 13 20 14 13 8 6 6 4 6 12 18 19 24 23 21 24 29 29 26 26 23 21 19 16 13 13 14 15 14 14 13 13 12
8 10 9 12 20 20 17 22 16 15 14 14 13 19 14 6 9 8 7 6 8 11 12 19 22 21 21 20 24 27 26 26 22 22 20 17 13 14 16 17 15 14 15 15
8 7 9 14 8 13 16 17 17 15 9 16 10 11 7 7 11 10 8 6 5 6 14 15 19 24 24 21 21 26 28 28 25 25 22 21 19 15 15 16 16 15 16 17
13 7 13 10 13 17 21 10 18 20 15 12 10 10 9 10 11 10 8 5 4 4 10 19 27 25 21 24 21 22 29 30 27 26 26 23 22 21 18 16 16 17 17 18
9 8 13 9 6 10 9 9 12 15 10 19 13 12 13 10 10 9 10 9 7 5 3 9 15 25 29 34 31 27 28 28 29 31 31 27 25 24 21 19 17 17 19 19
6 4 5 4 6 9 8 5 7 12 20 14 12 20 16 13 10 9 8 6 5 6 6 2 8 15 23 30 32 32 35 34 33 33 33 31 28 27 26 24 24 22 21 22
10 6 3 2 1 2 6 5 2 6 10 9 17 19 16 13 14 11 8 5 2 1 1 1 2 3 16 21 29 31 32 33 35 34 32 33 31 31 28 29 28 28 27 26
10 5 5 3 7 6 7 7 5 5 7 11 15 17 12 15 12 10 8 7 5 4 4 4 4 5 7 8 21 31 33 35 38 37 35 34 34 35 35 35 32 33 32 31
5 7 8 8 5 4 11 15 11 9 9 11 13 13 13 13 14 14 12 11 10 9 8 7 6 7 10 10 10 11 24 31 33 34 36 35 38 40 38 37 38 36 35 36
6 9 8 6 6 8 6 11 14 11 10 11 12 16 15 16 15 17 17 16 14 14 13 13 11 11 11 12 13 13 13 17 22 27 33 33 32 33 36 38 38 38 38 39
11 10 8 7 16 1 6 9 10 15 11 13 11 14 16 15 15 18 18 18 17 16 17 18 17 16 14 14 15 15 16 16 16 25 29 30 31 28 29 34 38 38 39 38
9 11 11 10 6 6 6 14 17 16 10 16 16 15 14 10 5 16 20 17 18 19 20 20 21 23 23 20 18 17 17 17 18 18 24 33 33 35 34 30 30 33 39 43
11 11 14 13 10 7 9 14 16 10 9 11 12 12 12 12 16 21 23 22 24 24 25 24 24 24 26 28 28 25 22 21 20 21 21 23 32 38 42 38 35 35 31 37
10 9 11 12 11 10 12 14 12 12 10 10 12 15 18 20 21 22 23 24 25 27 29 31 30 29 30 29 30 32 31 27 25 22 23 25 26 29 33 44 46 43 38 36
9 10 9 9 7 12 11 16 17 16 15 12 12 13 15 18 20 21 23 25 26 29 32 35 36 35 34 37 36 33 34 36 32 28 24 24 27 27 28 31 36 38 39 39
15 15 15 11 14 11 12 11 11 10 10 10 10 10 10 11 11 11 13 15 20 25 31 35 39 41 42 41 40 42 39 37 40 40 34 31 26 25 25 26 26 32 39 40
12 12 15 17 16 14 17 16 15 13 12 12 11 11 12 12 15 15 17 20 22 21 22 27 33 40 45 47 45 45 45 44 43 43 43 40 38 36 31 29 26 19 20 27
15 18 17 17 15 16 17 16 17 16 14 12 11 11 11 11 14 15 17 21 22 24 27 28 28 32 37 42 47 47 48 49 47 45 45 45 43 41 40 38 34 31 23 21

GFSCGP_700_spd_087.txt.gz
Wind_Speed
19 20 25 23 25 21 19 18 17 19 16 13 13 13 15 20 13 17 24 27 26 22 21 18 17 17 19 21 20 19 17 14 12 11 12 10 10 6 4 8 4 4 4 5
17 24 19 18 22 20 18 24 20 13 15 11 10 15 11 18 16 12 21 22 27 22 22 21 20 16 17 21 21 20 18 16 15 13 14 10 5 4 4 4 3 4 3 4
20 16 17 20 22 22 19 22 19 14 11 10 14 17 13 17 14 16 12 17 22 24 25 24 21 18 15 19 22 20 19 17 18 16 13 14 15 9 6 5 3 4 3 4
19 11 20 21 22 24 23 20 18 21 18 18 21 14 19 19 14 14 15 21 20 27 27 25 26 21 15 15 19 20 19 19 19 16 13 13 10 4 4 6 7 3 3 2
21 19 21 23 23 23 20 19 14 18 21 15 24 13 9 20 14 14 11 15 17 21 26 25 24 23 19 18 20 20 19 19 18 17 19 15 11 11 11 8 9 4 4 3
13 19 19 21 20 22 9 23 18 15 20 19 18 16 20 20 12 15 12 12 14 19 21 28 27 22 23 20 20 22 21 19 17 15 15 14 15 12 9 10 7 7 5 3
12 19 19 20 21 21 14 20 19 14 18 12 22 11 8 10 13 11 10 10 15 17 20 20 28 26 24 25 22 22 23 21 18 16 15 14 14 17 17 12 9 9 2 5
18 20 20 23 23 21 23 29 22 13 14 18 15 14 15 13 12 10 14 7 13 18 23 21 19 33 28 28 26 24 24 22 20 17 15 14 14 14 15 13 13 12 14 9
21 16 18 18 18 13 26 30 30 19 23 21 19 14 16 13 11 8 11 13 11 18 22 22 27 30 27 33 30 29 24 22 21 19 16 14 13 13 13 13 15 11 17 8
5 17 16 16 15 17 12 26 28 19 14 16 22 23 18 15 7 10 10 11 13 21 25 16 26 28 39 31 30 26 26 23 20 20 19 16 13 13 13 14 13 15 16 17
6 6 14 12 20 23 18 17 25 21 24 12 13 13 19 16 13 13 11 10 10 12 29 32 35 32 27 25 28 26 25 26 24 23 22 20 18 15 14 14 15 15 15 14
8 9 13 19 14 14 12 19 23 22 24 22 7 15 13 15 14 14 13 11 9 11 18 21 20 14 15 35 24 40 26 24 26 27 26 24 23 22 19 16 15 16 16 16
9 11 12 10 10 18 17 18 14 24 22 16 21 18 15 18 15 15 14 13 11 10 14 23 19 21 16 20 23 28 29 27 24 28 29 28 26 24 22 20 18 17 18 18
9 10 11 6 5 19 24 18 16 15 19 15 11 31 22 16 14 18 16 15 14 12 11 12 17 16 19 21 24 29 29 37 33 28 28 31 30 26 24 25 23 21 21 21
6 9 5 2 3 5 14 15 15 20 21 13 18 22 25 21 14 13 14 13 12 11 11 8 7 10 19 24 23 26 32 33 35 38 27 28 34 31 30 29 29 25 27 25
9 10 9 10 4 3 7 9 7 11 13 11 16 21 20 18 18 15 10 10 11 9 9 7 5 4 3 3 11 22 30 29 32 35 40 38 34 37 36 31 32 30 32 27
9 11 12 17 8 8 14 16 12 10 11 16 20 21 17 16 15 13 11 12 12 12 11 9 8 6 5 5 5 5 5 21 31 37 37 38 38 37 37 36 35 35 32 33
9 11 12 15 9 12 6 10 14 15 12 9 13 18 18 17 15 16 17 16 16 15 14 13 12 11 11 10 9 9 8 7 10 18 30 37 36 37 36 37 37 37 38 36
13 13 15 19 15 7 6 7 13 19 15 14 15 17 17 14 13 11 15 17 18 18 19 19 18 17 17 16 14 14 14 14 13 12 17 25 41 41 40 39 41 42 41 42
9 13 15 13 15 14 12 13 12 15 19 20 16 16 14 13 10 18 22 16 16 17 19 20 21 23 23 22 21 19 19 19 19 19 17 19 27 36 37 40 37 36 38 38
12 12 16 16 13 10 7 10 8 14 10 17 16 16 14 11 20 24 25 24 24 23 22 21 22 22 24 25 27 28 26 26 23 23 23 22 22 23 34 36 37 37 34 35
10 9 13 16 16 15 10 8 10 13 10 14 15 16 14 23 27 27 24 25 23 24 26 27 26 27 27 27 27 29 32 34 32 30 28 26 26 26 25 29 36 39 40 39
9 10 9 8 7 12 9 6 15 11 11 14 12 15 16 18 21 24 23 26 26 27 28 29 30 30 31 32 32 31 31 32 36 38 36 34 32 29 29 29 28 30 37 47
11 11 9 7 11 7 11 15 16 15 14 14 13 12 10 10 10 12 12 15 17 18 19 21 24 27 30 33 34 36 36 36 36 37 40 40 38 36 34 32 31 32 31 33
9 9 10 12 10 9 12 14 15 16 15 15 15 14 13 11 11 12 14 16 17 18 20 22 23 24 26 28 30 33 37 40 41 41 39 40 43 42 41 39 36 32 30 31
11 11 13 10 9 16 9 17 18 17 16 15 15 14 13 12 12 13 15 16 18 20 19 21 24 25 26 29 31 31 33 35 39 43 43 43 43 45 47 46 45 44 39 34

GFSCGP_700_spd_090.txt.gz
Wind_Speed
18 18 24 24 24 21 19 19 22 13 15 15 18 21 23 25 30 32 30 31 26 25 20 19 19 18 18 18 18 17 15 13 13 13 14 11 8 7 9 4 7 7 5 0
14 24 19 20 22 25 25 20 23 15 10 15 21 15 25 23 22 23 25 34 33 28 23 21 20 19 18 18 19 18 15 15 14 14 17 12 13 8 7 5 5 4 6 4
21 15 20 20 22 25 24 22 21 17 18 22 14 24 26 18 17 15 26 31 31 29 28 23 23 21 21 18 19 18 16 16 16 16 17 12 11 8 12 5 5 6 7 8
22 18 20 20 23 24 25 19 16 11 27 21 20 14 22 22 21 20 23 28 29 30 29 28 27 26 18 19 16 20 18 18 17 16 19 14 11 11 8 5 4 8 7 7
24 20 21 22 22 23 26 18 15 30 18 19 22 11 17 20 18 18 19 22 25 35 33 30 25 20 18 22 14 21 21 20 19 18 17 18 18 13 11 9 6 3 6 8
20 18 18 20 21 18 25 13 11 16 17 19 22 17 23 25 18 22 20 21 24 34 33 34 25 20 17 25 16 19 20 20 21 20 19 17 16 16 17 10 7 5 6 4
21 23 18 20 21 20 24 18 18 12 13 13 28 23 7 16 22 25 23 16 19 22 30 31 30 26 24 29 22 19 20 21 22 20 19 17 16 14 17 9 10 9 5 6
24 17 23 20 24 22 25 26 21 16 13 15 21 14 13 12 9 14 21 10 21 24 27 28 27 28 29 30 28 19 21 22 22 21 20 19 18 17 12 13 12 9 8 3
27 17 20 22 21 10 27 27 23 22 24 22 13 20 20 24 27 30 25 25 16 14 26 25 26 28 28 31 31 26 19 23 22 20 19 19 18 18 17 17 14 14 11 7
10 11 26 20 12 17 17 22 26 32 15 14 20 28 31 22 23 28 28 27 24 23 21 33 32 37 31 38 36 27 24 23 23 21 19 18 17 17 17 16 16 16 13 9
10 17 16 16 25 17 16 17 24 27 27 11 7 8 25 22 17 21 21 20 22 27 26 28 27 34 38 40 41 42 29 23 27 25 23 21 17 16 15 15 13 12 11 11
5 7 18 20 15 25 23 20 21 25 25 3 7 1 11 15 16 16 17 18 20 24 29 26 20 18 21 30 28 37 29 34 29 27 25 23 22 20 18 15 14 13 11 12
5 11 7 16 11 16 18 22 20 23 27 9 15 10 9 11 16 18 15 14 14 15 17 25 18 15 7 15 21 34 34 34 34 31 27 25 25 24 21 18 16 15 14 13
9 7 9 7 1 22 23 22 19 17 17 10 24 24 25 23 18 19 17 15 12 11 10 11 13 13 12 7 6 18 15 25 22 35 32 29 26 24 23 21 20 18 16 15
2 7 5 10 7 6 19 26 19 16 17 20 18 27 26 22 20 17 21 19 16 13 10 9 12 15 14 16 16 18 19 16 19 25 24 26 31 29 27 24 24 21 21 18
8 8 4 8 6 5 4 9 6 16 19 6 13 25 29 20 11 16 17 17 15 13 11 9 9 8 7 13 17 16 23 24 24 28 29 26 30 15 24 30 28 25 24 24
8 11 12 13 9 6 8 6 8 8 9 11 20 27 25 21 18 12 9 13 15 13 12 10 9 8 8 5 3 4 8 21 27 29 30 30 30 25 26 28 30 28 26 27
9 10 11 14 14 10 11 7 10 13 10 5 17 26 23 21 22 18 17 15 15 14 13 12 11 10 9 8 8 8 7 6 9 23 29 32 32 34 35 33 28 29 31 30
11 11 14 18 18 11 9 8 11 12 12 9 19 23 23 22 25 20 17 18 17 15 15 15 13 14 12 11 11 11 12 12 11 11 12 19 26 35 35 35 34 33 33 32
9 14 15 14 16 12 2 13 15 12 17 16 18 20 19 13 10 14 15 20 20 18 18 17 19 20 20 18 18 18 17 18 17 18 18 17 15 18 26 35 36 34 35 35
8 10 15 17 15 10 13 11 10 12 7 23 18 18 15 16 17 23 25 21 19 19 20 20 21 22 22 22 22 22 23 24 23 22 22 21 21 21 20 23 31 35 40 38
7 7 10 14 15 12 9 7 9 14 20 18 18 22 21 25 27 24 25 26 24 24 24 23 23 23 23 24 25 25 26 26 26 27 28 28 27 26 25 25 24 27 34 37
5 4 6 2 7 10 8 8 12 16 19 23 29 30 31 26 28 31 27 25 28 30 29 26 25 25 26 26 25 26 28 29 30 30 31 31 32 33 33 32 31 29 29 31
9 11 5 2 4 5 6 9 11 13 11 19 17 21 17 19 22 23 24 26 29 27 26 26 22 21 21 20 20 20 21 24 28 31 32 33 35 36 37 39 38 37 34 35
11 7 8 12 9 5 8 8 11 14 19 17 18 16 17 18 18 19 18 18 19 17 18 19 20 21 23 21 21 22 23 23 22 22 25 30 34 38 41 41 42 43 41 39
9 9 12 12 9 13 10 13 15 16 15 15 14 16 15 15 18 17 19 17 17 17 18 19 20 21 22 22 24 24 24 24 24 25 26 26 27 32 38 42 46 44 46 48

GFSCGP_700_spd_093.txt.gz
Wind_Speed
17 20 27 29 24 22 20 20 24 20 12 19 17 13 26 24 38 37 35 33 32 28 26 26 19 21 19 15 17 13 13 13 12 13 11 12 10 9 12 9 8 9 11 6
17 22 19 18 16 20 24 24 15 16 19 15 28 20 25 28 37 39 35 33 33 30 26 25 26 21 19 13 17 13 11 12 12 13 16 12 10 11 12 11 9 5 10 7
23 9 15 19 20 26 27 25 19 24 17 16 11 8 13 27 36 37 38 34 33 32 26 25 23 22 19 13 17 13 13 13 13 13 13 13 13 8 8 8 9 7 10 9
19 16 19 19 25 22 25 18 20 15 15 14 17 1 10 24 32 37 40 39 37 33 29 25 21 21 16 11 11 17 15 15 15 14 15 15 7 11 11 10 10 8 6 10
23 19 18 24 21 23 26 20 16 15 18 12 27 10 21 30 28 27 33 41 39 35 34 30 24 24 20 13 11 14 17 17 17 15 13 13 15 15 12 12 10 9 7 8
17 16 16 20 20 22 19 18 9 10 16 5 22 16 19 32 28 24 22 29 32 35 34 30 30 22 21 18 10 7 16 19 18 17 15 17 17 12 10 12 9 11 12 11
20 21 21 17 21 25 19 16 10 3 6 8 20 29 7 26 23 19 26 27 25 30 36 32 33 28 25 22 13 9 12 19 20 19 20 18 15 10 10 10 10 11 11 11
20 17 24 16 18 23 20 16 15 7 5 11 12 10 9 26 19 15 23 30 27 29 40 36 33 30 23 26 18 13 10 15 19 20 20 20 17 15 13 12 10 15 12 11
11 23 18 24 15 22 22 24 24 22 24 12 10 13 23 24 27 24 18 18 28 29 32 35 36 31 27 28 26 17 12 11 17 19 19 19 19 18 19 14 13 13 8 10
17 11 12 23 23 22 20 10 14 10 4 4 7 11 12 19 24 23 22 20 30 27 31 29 32 29 34 37 30 24 20 13 14 18 18 18 18 16 16 16 15 12 13 11
17 8 9 27 18 14 23 18 9 9 11 5 5 3 12 26 28 30 30 30 27 23 26 19 35 41 39 35 37 32 29 23 21 19 18 18 18 17 16 15 16 13 13 9
5 12 11 15 15 15 13 14 12 12 8 9 10 5 16 14 17 27 27 29 26 22 21 20 25 25 19 29 29 30 36 31 25 24 25 22 19 18 16 15 15 14 14 13
8 9 5 15 15 14 23 21 17 15 13 8 2 8 19 18 11 13 18 23 24 24 22 19 15 15 12 7 15 28 39 33 33 30 28 27 24 20 17 14 13 13 13 12
4 6 6 3 2 6 16 21 19 14 4 19 6 19 22 21 25 16 13 11 11 16 15 13 22 17 14 10 10 15 19 27 28 31 33 30 25 24 20 17 17 16 14 13
6 10 11 10 3 8 3 23 18 13 13 6 12 13 26 23 22 16 14 13 14 14 13 14 18 16 14 14 13 11 12 10 4 33 26 27 30 24 24 21 20 19 19 17
4 7 9 5 3 8 9 11 19 12 5 5 9 17 22 18 14 12 17 14 13 13 13 16 18 15 14 13 11 10 10 10 9 8 13 19 22 27 23 34 19 21 20 20
3 4 19 14 10 8 5 10 0 3 3 9 21 21 24 16 13 16 20 18 17 16 14 13 13 12 10 7 4 5 10 14 16 18 17 16 20 23 14 11 23 25 24 23
3 7 1 4 10 3 6 4 3 3 10 9 9 27 21 19 17 14 16 14 15 16 15 15 13 11 9 9 7 6 5 5 8 17 23 25 24 23 23 24 25 22 26 24
7 5 4 6 9 12 6 5 4 5 9 8 18 30 34 29 25 19 14 16 16 16 14 13 13 11 10 8 7 6 5 4 4 5 5 8 17 25 27 27 29 28 29 28
10 8 13 7 3 6 2 9 10 9 17 16 20 30 30 29 29 21 19 17 16 14 12 11 12 12 12 12 14 14 13 11 11 11 11 11 12 12 14 20 26 36 33 32
1 4 6 15 8 1 14 15 11 8 13 17 19 24 24 27 24 20 21 19 16 15 14 15 16 16 17 17 17 17 18 18 17 18 18 17 17 16 16 16 16 18 24 31
1 5 6 9 8 1 10 14 12 13 27 21 18 19 20 22 22 27 31 29 27 23 21 20 19 19 19 19 20 20 20 21 21 21 21 20 20 20 20 20 21 22 21 20
4 2 3 1 6 5 9 13 16 16 25 22 25 25 25 27 27 27 28 25 27 28 25 22 22 22 20 20 22 24 23 22 23 24 25 25 25 25 24 25 25 25 26 26
6 4 8 6 4 4 7 12 16 16 18 21 27 30 30 32 32 32 30 28 29 29 29 28 26 24 23 20 20 22 21 22 22 23 25 27 28 28 28 28 29 29 30 31
14 8 8 10 6 10 13 13 13 17 21 18 21 29 30 33 34 33 30 24 24 24 24 22 20 19 17 18 17 18 18 18 19 19 20 20 20 20 22 25 28 30 31 32
14 13 15 9 10 11 8 13 11 14 17 22 19 20 27 26 27 26 23 17 15 18 17 18 19 19 17 16 16 16 17 17 17 17 19 19 20 21 22 23 23 25 27 29

GFSCGP_700_spd_096.txt.gz
Wind_Speed
30 24 26 27 22 21 15 9 8 14 14 10 3 4 25 30 33 33 36 35 27 27 23 18 16 17 15 11 10 11 12 11 12 11 9 11 12 13 11 10 11 9 7 8
26 28 28 23 23 21 16 10 4 7 8 10 8 3 17 29 30 36 37 37 28 31 27 23 21 18 14 11 12 10 13 10 11 14 13 10 9 9 8 9 9 7 5 7
22 17 13 18 27 22 17 15 15 11 17 20 6 5 16 22 27 35 37 34 28 32 30 26 23 20 15 11 11 11 11 12 12 11 12 12 12 11 7 5 7 8 8 7
18 18 11 15 22 18 17 10 17 20 22 18 14 11 24 21 31 37 39 35 32 33 29 25 22 19 15 9 7 12 13 13 13 11 13 14 13 13 8 6 7 11 8 6
17 17 15 16 17 15 19 10 13 20 26 14 23 5 11 21 32 39 41 35 33 35 32 28 24 17 11 7 4 9 14 15 14 14 14 13 7 11 12 9 10 11 10 6
20 17 16 13 13 16 13 17 17 17 17 6 23 11 17 16 22 41 43 37 36 34 30 28 24 20 15 13 8 9 9 16 15 15 15 13 12 15 12 11 9 9 11 10
17 20 18 18 18 15 22 16 6 3 3 7 23 16 9 17 31 24 36 39 42 36 34 30 30 28 21 18 13 11 6 12 17 15 16 15 15 12 12 15 11 10 10 9
8 15 18 14 14 16 16 17 8 5 4 2 15 8 10 23 32 26 30 31 41 39 41 38 30 30 28 21 16 13 7 7 15 16 16 18 18 14 15 13 13 12 11 10
6 10 15 17 14 16 15 14 12 9 8 3 3 4 9 33 32 32 30 26 28 32 32 34 38 29 29 26 20 15 11 6 10 13 18 16 17 15 12 12 10 17 13 13
13 16 16 18 17 18 20 17 7 7 4 2 3 9 11 28 32 38 32 23 27 24 27 34 39 35 30 30 27 24 19 15 9 12 15 16 16 16 16 18 12 13 13 11
13 12 11 12 20 22 15 14 7 2 4 8 4 3 9 24 26 29 29 26 31 29 32 34 40 37 36 34 32 32 28 24 21 18 20 20 17 15 17 17 16 14 12 10
4 11 8 5 7 13 13 16 13 3 2 3 8 5 17 20 20 18 28 23 23 21 27 27 29 37 36 31 37 37 35 29 26 23 20 19 19 18 16 16 17 15 13 14
4 1 3 4 8 3 5 12 14 9 5 8 5 11 21 22 13 1 18 22 22 20 18 25 24 23 26 14 5 8 35 34 31 27 24 22 20 18 17 15 15 15 13 13
7 10 10 7 5 12 11 14 18 11 6 10 8 26 23 24 15 11 12 18 25 23 21 20 18 19 21 18 9 13 7 19 35 32 25 25 23 23 21 20 19 17 15 14
3 5 5 6 3 6 10 7 12 12 9 14 17 16 22 18 17 16 15 13 12 18 19 21 21 22 20 18 13 12 16 17 22 19 28 32 31 29 27 26 23 21 20 18
4 12 6 7 8 8 12 11 10 12 15 11 24 21 17 16 16 16 15 15 15 16 16 19 24 24 21 20 18 14 14 14 10 8 24 32 31 30 30 29 25 26 24 23
6 7 14 9 10 9 8 18 11 15 11 14 27 15 24 21 19 16 19 20 20 18 19 18 19 19 17 14 10 12 14 17 16 14 13 15 14 12 31 32 30 34 26 26
5 4 2 8 7 3 8 8 6 10 12 13 13 16 20 18 17 12 12 15 16 16 18 17 15 14 13 12 10 8 6 6 11 17 18 13 18 18 3 17 14 26 25 27
4 6 4 2 8 11 10 6 8 12 12 8 11 27 29 27 23 19 16 13 13 15 17 17 15 13 11 8 7 7 7 6 5 4 5 8 9 14 18 19 19 16 25 22
6 7 9 4 2 5 26 15 3 7 12 16 18 26 23 28 25 23 16 10 12 13 14 14 14 12 12 12 10 8 8 8 8 8 8 7 7 8 9 17 24 28 28 24
1 2 3 4 3 4 11 11 9 12 9 24 19 17 20 19 17 14 17 13 9 10 13 15 16 16 15 14 14 15 14 14 14 14 14 15 15 14 14 14 15 16 18 22
2 1 4 6 5 5 7 8 8 18 23 19 21 21 22 26 21 18 17 17 16 17 15 16 15 14 14 15 16 18 19 20 20 19 20 21 21 21 21 22 22 22 22 20
3 2 5 2 4 2 3 7 4 6 9 22 19 22 28 26 25 23 22 21 23 20 20 19 19 19 19 19 19 19 21 23 24 25 25 24 24 25 25 25 26 26 27 27
4 6 4 5 4 4 8 8 9 12 11 18 23 25 25 23 21 21 21 22 23 20 23 23 22 22 22 22 22 22 22 23 25 27 28 27 27 28 28 29 29 30 31 31
10 10 8 9 9 7 7 10 11 10 11 12 15 18 20 23 23 24 25 25 24 24 23 22 22 20 18 17 18 19 19 20 21 22 23 24 24 24 23 24 26 28 31 32
13 15 17 17 16 15 13 15 19 17 17 16 17 20 22 25 27 29 29 27 27 26 22 20 18 16 16 15 15 16 17 17 18 18 19 20 21 22 22 21 22 23 23 24

GFSCGP_700_spd_099.txt.gz
Wind_Speed
32 28 28 26 18 13 8 5 2 10 15 14 10 3 25 34 36 34 34 30 27 18 18 16 9 9 7 8 7 4 6 8 10 9 8 8 8 11 11 8 7 9 9 9
31 32 29 25 18 15 12 2 1 6 15 12 8 3 17 30 33 38 38 34 28 26 23 17 16 12 9 7 7 6 6 6 8 10 10 10 9 8 7 6 7 7 7 7
29 21 30 28 19 19 15 10 5 4 13 16 4 10 15 26 35 36 41 33 28 24 26 22 19 12 10 3 5 5 9 8 9 10 10 8 10 11 9 6 4 5 6 8
24 21 17 24 22 23 19 12 7 12 17 8 15 6 23 27 31 29 40 34 32 26 25 22 18 14 8 4 5 6 10 11 11 10 11 11 10 11 8 6 5 4 5 9
14 14 19 17 22 21 19 9 11 14 20 11 17 6 10 27 33 32 38 40 34 28 26 26 22 14 3 4 4 3 9 12 11 10 12 13 8 9 8 8 8 6 6 8
20 14 11 13 14 14 11 5 5 11 16 6 18 13 13 25 30 29 39 45 37 33 30 30 22 16 10 8 6 4 5 12 12 11 12 14 11 11 10 7 8 8 7 7
19 20 17 17 16 14 11 12 3 2 3 6 12 14 2 14 18 25 37 44 40 33 31 33 29 23 17 13 8 6 6 8 13 13 13 13 11 13 13 11 9 8 6 5
3 4 20 16 15 11 10 17 10 5 4 1 10 8 9 19 20 10 29 39 41 34 38 34 30 28 22 17 13 11 11 9 10 14 14 14 13 15 12 14 9 11 10 8
5 7 14 13 12 11 13 19 18 7 5 5 9 10 11 13 26 29 34 47 43 37 33 32 32 27 29 25 18 14 14 9 6 11 15 16 16 16 13 14 14 14 13 11
10 13 11 12 14 16 16 13 10 8 5 3 3 5 9 17 28 35 31 34 47 43 35 36 36 32 27 28 24 23 23 17 11 11 16 19 18 19 17 15 14 11 14 10
10 12 5 8 12 17 15 17 12 8 4 6 4 3 5 19 30 32 35 34 33 33 41 36 40 38 32 27 27 27 29 23 18 16 16 19 21 20 18 18 16 10 12 14
1 6 11 5 8 16 15 16 18 9 5 6 8 3 8 13 27 32 31 29 30 30 27 32 32 31 33 33 27 29 29 25 24 22 19 20 21 21 20 18 16 16 14 15
3 2 4 6 6 11 11 16 17 15 8 13 9 5 10 8 11 12 18 26 30 20 22 24 29 28 27 28 25 20 31 30 27 28 24 22 21 21 20 20 19 17 18 16
3 7 5 8 4 4 5 3 14 15 12 13 12 17 19 18 17 15 16 15 18 25 16 16 25 21 15 8 11 9 6 20 37 33 27 27 25 23 21 20 21 20 19 19
5 5 10 13 11 11 6 5 10 14 11 16 15 17 21 22 26 19 16 13 15 22 22 18 20 21 22 20 18 21 14 10 10 21 26 30 30 27 25 23 23 21 19 19
5 7 5 11 4 13 11 7 9 13 17 15 20 24 23 24 31 25 21 16 14 14 20 29 27 25 24 23 20 17 16 17 13 13 19 18 22 35 29 27 27 27 24 23
6 10 8 2 4 4 9 12 5 16 20 19 28 21 25 25 24 19 14 13 13 12 13 19 21 25 27 25 23 18 15 16 15 12 13 24 26 31 22 34 31 31 31 28
5 5 8 4 0 4 6 5 0 7 17 17 15 15 17 18 18 15 13 9 11 14 14 14 15 18 18 16 16 17 18 18 18 18 12 8 12 6 17 18 32 37 34 28
1 3 2 3 9 6 3 9 6 2 12 17 15 17 22 24 23 22 17 17 16 16 18 17 15 14 14 15 15 12 10 10 11 17 20 20 18 21 22 11 6 11 34 34
5 8 7 3 4 6 21 12 6 10 4 13 11 17 19 26 31 25 21 16 15 17 16 15 15 17 16 13 12 11 11 10 8 8 9 11 13 14 12 16 16 20 20 31
1 3 7 6 4 3 10 22 26 17 6 10 18 19 17 17 19 18 20 17 14 12 11 9 10 11 11 12 12 12 12 13 13 13 12 12 12 12 13 13 15 19 24 28
0 1 3 5 4 4 5 7 15 19 21 15 18 21 20 15 20 16 21 16 13 10 6 6 10 12 14 15 15 16 16 17 18 19 20 20 20 19 19 19 18 19 21 23
5 4 4 3 5 5 0 10 9 12 13 19 18 18 18 18 21 15 10 11 9 5 5 6 10 14 16 17 18 19 21 22 23 22 22 23 24 24 24 25 26 26 26 25
6 5 4 5 4 2 3 5 6 7 10 13 19 18 17 17 22 16 12 12 9 9 9 11 15 17 20 23 24 24 25 25 26 26 25 25 24 26 28 28 29 30 31 31
6 7 6 8 8 7 5 8 8 4 7 12 16 17 17 21 19 17 16 12 15 17 18 19 21 22 21 20 21 23 24 24 24 25 25 25 24 23 23 24 26 28 31 32
12 11 10 12 13 13 10 11 11 13 10 9 9 10 11 11 12 12 16 18 20 21 22 22 23 23 24 22 21 20 20 20 19 19 20 22 22 21 20 20 21 22 24 24

GFSCGP_700_spd_102.txt.gz
Wind_Speed
34 32 34 26 16 13 11 9 9 12 13 12 11 9 16 28 31 31 28 26 26 22 14 16 13 13 2 2 3 3 8 8 8 7 8 8 9 9 11 9 8 9 9 6
31 33 28 19 17 15 13 7 9 11 14 11 6 2 25 31 30 27 31 26 23 17 19 15 12 8 2 2 2 4 7 8 9 9 9 10 8 8 10 9 8 9 9 9
32 24 22 17 20 15 14 10 7 7 17 12 4 4 18 36 33 28 29 29 25 21 19 16 14 10 4 0 3 5 6 8 9 10 8 8 8 7 7 6 4 4 6 8
22 14 22 17 16 19 16 10 4 7 14 7 17 9 17 24 31 35 37 32 29 25 21 19 13 10 3 3 2 5 7 6 7 8 8 7 10 10 7 6 6 5 4 6
18 25 12 16 21 17 15 12 6 5 14 9 22 4 9 26 30 35 27 36 35 31 24 23 15 8 4 4 4 4 7 7 6 7 8 10 8 8 6 6 6 6 4 5
20 14 16 14 15 16 16 17 12 6 11 5 16 16 8 29 32 31 37 38 39 34 27 21 17 13 9 7 6 3 4 7 7 7 8 10 9 6 6 6 7 5 3 3
18 22 16 16 16 14 16 20 7 3 4 6 6 15 13 11 23 30 31 38 40 34 31 24 26 22 15 10 6 3 3 3 6 9 10 11 13 9 9 8 7 5 4 4
9 9 23 19 22 16 18 26 13 5 5 3 7 8 5 13 18 23 28 34 41 33 31 30 28 26 20 14 10 8 4 1 2 9 10 11 12 11 12 10 7 6 7 7
6 6 11 13 19 20 22 29 24 8 6 4 6 7 8 19 18 25 30 32 42 39 35 24 26 30 27 22 20 14 9 10 4 6 13 13 12 12 14 10 11 8 8 8
10 10 6 12 18 18 14 22 21 11 5 3 4 5 8 15 26 22 27 35 43 43 40 34 29 28 33 26 25 23 21 21 12 9 14 17 16 16 17 12 12 11 11 11
7 11 6 8 13 18 20 19 15 17 7 7 4 5 10 11 24 31 28 36 37 39 39 38 33 30 32 27 31 27 26 27 18 17 14 18 19 20 21 17 15 14 11 14
4 7 10 9 6 14 17 19 20 13 7 6 7 6 11 9 17 31 32 25 25 30 38 34 30 28 31 25 23 28 29 30 27 19 21 20 23 23 22 20 20 19 14 11
9 3 3 5 3 11 14 20 23 20 17 14 11 6 14 12 17 24 26 28 26 27 25 28 26 28 31 25 34 34 34 33 30 27 28 24 23 25 25 23 21 19 20 17
10 7 8 7 4 2 3 13 19 19 15 14 11 12 15 16 16 19 21 24 27 25 24 22 24 24 19 19 8 27 21 14 32 29 28 28 25 26 25 23 22 21 18 19
10 10 13 13 10 5 4 8 15 16 14 16 16 13 9 10 16 16 14 19 21 23 24 27 19 18 18 14 2 10 11 2 9 19 27 29 27 25 25 24 23 22 21 21
7 10 10 9 12 9 7 3 11 15 14 14 14 15 16 19 19 22 19 18 16 15 19 24 20 20 22 17 12 13 13 12 5 7 13 24 19 23 31 28 26 25 23 22
1 2 6 7 15 5 3 8 2 15 18 19 18 21 22 23 24 27 24 15 12 9 11 24 24 23 22 22 20 18 16 18 12 12 11 17 15 20 31 30 27 25 26 25
13 4 5 4 8 2 12 9 10 5 17 21 20 22 24 27 29 26 23 16 12 12 10 14 15 21 21 22 23 21 19 16 19 19 17 12 17 27 24 34 31 35 31 29
4 2 6 2 4 7 9 5 5 11 8 16 15 18 23 24 24 23 20 15 11 9 11 12 15 16 19 22 22 20 19 19 21 21 20 16 7 11 9 13 16 19 25 40
5 7 6 5 2 6 13 8 10 10 6 10 11 6 16 23 28 27 23 18 15 13 11 11 12 15 17 18 17 17 15 15 14 14 16 17 17 18 17 19 20 13 14 16
4 4 5 8 5 5 8 24 17 5 2 6 4 12 15 15 18 21 23 20 12 10 12 15 16 14 15 14 13 13 13 12 12 12 12 13 15 16 16 14 14 19 20 18
3 3 3 4 3 3 6 11 17 14 13 17 13 12 17 14 14 16 20 19 17 15 14 12 11 10 10 9 9 10 10 12 12 12 13 14 15 15 15 15 15 17 19 19
4 4 4 4 3 5 1 7 10 12 13 14 12 16 18 17 14 19 22 21 16 13 9 7 6 6 8 10 11 14 15 16 17 19 21 21 22 22 21 22 22 22 21 21
9 10 9 9 8 8 7 8 7 9 10 9 11 15 15 17 15 18 15 19 17 11 8 7 5 6 8 11 15 18 21 21 21 22 22 23 24 26 26 26 26 26 26 26
9 8 8 10 9 8 6 6 8 8 5 8 9 15 15 14 15 16 23 17 14 11 9 8 10 13 15 16 17 18 20 22 23 25 26 26 26 25 24 25 26 27 28 29
10 10 11 11 10 11 11 11 9 9 8 4 4 10 13 15 14 13 18 24 17 9 13 17 18 19 19 20 22 22 21 21 22 23 23 23 23 23 23 22 21 21 23 24

GFSCGP_700_spd_105.txt.gz
Wind_Speed
30 29 29 25 18 10 12 8 8 12 13 9 12 4 4 26 44 35 33 28 26 23 21 19 18 13 10 9 8 6 8 8 9 10 10 9 10 13 12 10 10 9 9 9
29 30 25 20 15 13 11 11 9 11 9 12 4 3 5 23 38 35 33 31 26 24 21 19 18 11 9 6 8 7 9 10 8 9 9 9 7 11 13 11 9 8 6 6
28 18 21 17 19 17 12 8 9 8 15 15 12 6 13 24 37 34 33 30 27 23 21 20 14 11 9 6 10 10 10 10 10 8 7 9 10 10 9 9 11 9 6 6
18 9 23 17 19 17 18 9 7 12 18 6 11 3 5 22 27 32 35 31 31 25 21 16 16 12 11 7 10 12 12 11 10 9 8 8 8 8 8 7 8 9 8 7
10 28 19 19 17 18 9 10 6 8 12 8 19 7 17 19 35 37 29 36 32 29 25 21 16 11 11 8 8 12 13 11 10 10 10 8 8 7 3 4 5 5 5 7
10 18 16 15 20 12 12 19 11 8 9 4 13 14 12 28 25 35 35 19 34 30 29 23 18 17 13 12 10 10 12 12 12 10 9 9 7 7 5 4 5 5 5 4
15 13 16 15 16 20 18 23 8 3 4 4 3 14 11 14 21 26 30 26 32 35 31 24 26 21 17 11 6 8 9 11 11 11 9 10 11 6 7 7 6 5 4 4
13 14 19 15 16 13 20 20 11 7 6 6 5 10 7 15 16 16 29 41 27 33 32 28 26 23 19 16 11 9 11 8 8 11 12 12 11 10 7 10 8 7 5 4
7 8 12 23 21 23 23 23 16 3 4 6 7 9 7 11 15 16 26 31 40 36 38 31 26 24 22 20 17 14 11 9 7 8 13 14 14 13 10 12 11 8 7 6
7 4 6 18 19 25 17 23 19 15 8 7 5 5 7 18 18 15 23 32 31 35 38 33 31 28 28 25 21 20 19 14 14 12 11 15 16 17 16 16 13 12 11 10
5 7 6 9 18 20 24 14 20 19 8 10 6 6 18 15 20 18 18 26 27 30 38 35 28 31 26 33 29 27 25 22 19 18 14 16 18 19 19 20 16 14 13 13
5 5 9 7 8 16 20 19 21 19 14 8 5 4 15 18 15 20 22 21 26 25 31 36 34 33 30 27 31 34 34 30 28 19 21 19 21 22 22 22 20 17 16 14
4 4 5 6 6 8 16 21 25 22 19 17 12 7 12 16 14 19 27 21 19 16 18 27 33 35 34 34 30 36 31 31 33 32 27 27 23 23 24 25 23 20 18 16
12 13 9 9 7 8 9 16 20 22 18 14 16 15 12 13 13 18 27 29 24 20 15 20 25 28 30 30 23 16 35 35 29 33 35 34 29 25 27 26 24 21 20 21
10 10 11 8 10 10 9 14 19 19 15 16 16 18 16 17 16 17 22 25 28 31 31 30 26 24 25 25 25 15 21 25 40 23 38 35 33 29 27 27 25 23 22 21
10 11 11 10 11 7 5 7 16 19 15 12 14 18 17 14 11 16 21 22 21 22 21 22 26 22 23 26 16 13 9 20 10 7 21 31 26 30 27 26 26 24 23 22
1 8 4 7 9 4 4 1 7 14 16 16 13 17 17 18 16 18 21 18 15 14 14 18 24 21 21 23 18 15 14 13 10 7 6 8 13 22 29 26 28 25 22 22
6 3 3 4 6 8 6 4 3 7 13 17 19 19 21 23 24 24 23 18 13 14 16 16 22 27 27 23 25 20 17 15 16 15 14 12 15 10 12 21 23 30 27 21
4 7 8 2 3 2 3 8 5 5 5 9 16 21 22 27 27 27 25 21 17 17 16 12 13 23 30 28 29 26 22 19 20 21 18 16 13 12 11 15 19 21 34 32
7 6 10 8 3 5 5 8 5 5 4 5 5 8 15 22 28 28 25 20 15 11 13 15 18 17 17 21 21 21 23 22 22 21 23 21 17 12 11 9 8 15 22 20
4 5 12 15 8 7 7 15 14 2 3 4 6 2 6 12 18 22 22 22 17 15 15 14 16 19 19 19 20 20 19 19 18 17 18 20 21 19 16 16 19 20 23 23
5 3 4 5 4 4 6 5 6 7 9 11 9 7 7 12 16 16 18 20 19 15 17 18 19 19 17 16 15 13 12 12 12 11 12 13 13 13 13 13 12 13 17 20
5 6 3 3 3 3 2 3 6 8 8 11 14 10 10 14 13 10 18 20 20 20 19 19 18 15 12 11 11 10 10 10 11 12 12 13 14 15 15 16 16 17 17 19
10 11 10 10 8 8 7 6 7 9 11 11 12 13 18 15 15 12 15 23 22 22 21 19 16 14 10 8 7 9 11 14 15 15 15 15 17 18 19 19 20 21 22 22
8 8 8 10 10 8 7 6 5 5 3 4 9 14 16 12 11 10 21 27 26 20 17 15 13 10 7 5 6 8 10 11 11 14 16 20 20 21 21 21 23 24 25 26
10 11 10 11 11 11 11 11 9 7 4 1 1 8 12 14 12 12 22 21 32 26 17 13 12 12 11 11 11 12 13 14 15 15 17 18 19 21 22 22 23 24 24 25

GFSCGP_700_spd_108.txt.gz
Wind_Speed
21 20 25 20 15 8 8 7 11 14 12 5 7 11 32 33 33 27 25 25 24 23 20 20 19 16 15 13 12 11 10 10 14 13 13 11 11 11 10 10 9 7 8 10
18 24 22 15 13 7 9 9 9 11 13 10 8 9 34 41 36 27 27 25 25 23 21 20 19 16 13 12 12 12 12 12 12 13 13 12 10 10 10 10 10 8 6 8
17 17 19 15 12 10 8 8 10 6 14 4 11 5 26 36 40 29 27 27 24 22 22 21 20 15 13 10 12 13 13 13 11 11 10 10 10 12 10 9 9 8 6 7
16 13 19 18 15 13 10 3 6 12 10 6 16 5 6 27 38 35 31 27 27 27 23 20 19 14 14 11 14 15 15 12 12 10 11 13 12 12 10 8 8 8 7 7
13 15 18 20 18 13 4 8 7 11 5 10 9 7 5 10 42 40 39 29 28 26 22 22 18 15 15 11 13 14 15 14 12 12 11 11 10 10 9 7 7 7 7 8
6 15 13 17 16 16 9 9 6 8 2 7 12 6 9 19 28 34 35 34 29 28 24 23 20 18 17 13 13 14 16 16 14 12 12 10 9 10 9 8 8 8 7 8
9 11 14 16 17 12 16 18 10 8 7 4 6 11 5 11 20 30 34 34 34 29 27 26 24 24 18 12 11 13 15 16 15 15 14 14 12 11 8 7 7 8 7 7
17 18 17 14 19 15 20 23 10 7 7 8 7 9 6 17 12 19 32 26 31 33 28 29 27 22 21 15 12 12 13 16 16 16 16 16 16 12 7 8 8 7 8 7
15 15 12 15 16 14 21 26 20 17 10 8 11 7 10 15 17 19 27 33 33 37 32 33 28 25 23 19 16 15 15 12 14 15 16 16 16 16 12 12 12 10 9 8
7 11 13 16 17 20 17 20 24 18 9 11 9 10 10 13 15 17 21 34 37 26 40 37 31 31 28 25 22 19 16 13 12 12 14 15 16 17 15 14 13 13 10 10
9 9 12 14 22 21 22 18 25 23 24 13 9 9 13 15 15 14 14 26 32 37 35 36 35 32 28 30 27 24 23 19 17 16 14 14 16 18 18 17 16 13 13 13
8 9 13 15 14 21 22 26 22 24 21 18 21 2 10 17 15 17 16 16 27 29 34 37 38 35 29 33 31 31 28 25 24 23 20 17 15 18 19 19 20 16 12 14
6 9 13 13 11 13 21 21 24 25 23 23 20 14 8 14 16 16 18 19 22 26 27 30 38 34 31 30 28 31 34 33 30 29 27 24 23 19 20 21 22 19 16 14
7 11 14 11 3 13 18 20 21 21 21 20 22 15 8 12 13 15 19 23 20 23 22 26 27 32 31 33 32 33 33 39 38 37 37 33 28 25 23 22 24 23 21 19
9 13 12 13 8 5 11 16 21 24 24 24 16 19 15 17 16 11 14 21 23 24 24 24 23 23 25 28 24 24 12 18 28 35 37 35 37 34 28 25 22 24 23 21
8 10 8 10 8 7 6 9 16 20 21 20 15 10 12 18 18 15 15 21 27 28 23 24 24 26 26 27 29 16 12 20 21 27 35 43 32 42 35 32 27 25 24 22
6 9 10 15 10 9 13 4 6 13 12 15 17 14 16 16 18 14 14 19 23 25 29 31 30 28 27 28 23 26 21 18 12 10 16 27 31 29 44 34 27 23 23 23
6 5 10 12 9 13 4 4 3 4 5 8 13 18 18 17 19 20 21 19 20 21 21 22 21 27 29 27 21 22 20 18 13 9 6 4 6 6 17 30 31 26 24 24
4 6 8 13 16 8 7 2 1 3 2 4 8 16 20 22 23 23 18 20 22 19 18 18 18 20 25 19 27 28 23 19 17 17 15 11 11 14 12 11 18 25 20 33
3 7 6 7 13 8 6 3 5 8 7 6 5 10 17 20 20 23 23 26 23 21 19 16 18 19 23 26 29 31 28 23 21 22 20 16 15 12 11 14 17 19 20 22
6 7 10 8 8 9 8 9 6 7 4 4 2 3 7 9 14 21 25 24 21 19 17 16 18 17 28 23 25 26 25 27 25 23 22 23 20 17 13 12 13 10 12 16
8 7 9 8 11 10 10 6 3 7 6 8 5 5 3 11 15 13 12 18 20 17 16 19 17 20 25 23 26 22 21 20 20 19 17 18 21 22 19 16 16 15 15 17
5 8 3 4 1 4 2 2 4 6 7 12 12 9 6 6 7 7 9 17 18 20 20 19 19 18 19 21 20 22 18 16 16 15 15 14 16 16 16 17 15 15 15 16
8 10 6 6 7 6 5 5 5 6 6 8 9 9 10 7 8 8 10 19 23 20 20 25 28 24 19 15 14 13 14 15 15 15 16 16 17 17 18 19 19 19 19 19
7 6 5 6 9 8 8 6 6 6 6 5 8 9 9 10 11 13 12 19 24 24 27 25 22 19 17 15 14 13 13 14 15 16 17 17 18 18 19 19 19 20 21 22
9 7 5 6 10 8 11 9 10 8 8 7 6 9 11 10 10 13 17 22 25 24 22 24 24 23 18 16 12 9 9 10 12 13 14 15 16 18 19 19 20 21 22 22

GFSCGP_700_spd_111.txt.gz
Wind_Speed
18 20 24 19 19 6 15 8 14 8 11 7 14 19 28 34 33 28 27 25 23 19 19 16 17 16 13 14 15 11 10 13 13 10 9 10 11 7 10 8 8 7 8 9
16 24 21 18 15 14 8 16 18 14 11 13 13 23 29 35 26 28 32 26 24 22 20 18 18 16 14 15 15 13 12 13 13 14 13 14 6 8 8 8 7 7 7 8
17 15 19 21 11 12 13 4 21 14 15 10 9 5 34 39 32 28 26 29 32 24 23 19 20 19 15 14 15 17 14 13 10 11 14 13 13 7 8 8 7 6 6 6
18 11 19 20 20 14 6 6 6 11 14 5 12 3 9 36 36 35 33 28 25 24 26 19 17 20 20 14 14 17 18 15 12 10 10 11 11 9 7 5 5 6 5 7
16 14 16 20 18 14 5 4 4 16 9 13 12 7 9 31 35 33 34 36 29 23 22 24 23 19 17 12 14 15 17 17 15 13 13 13 11 5 6 4 8 6 6 7
10 15 15 16 16 16 9 5 2 2 8 9 15 16 21 24 20 40 36 31 37 35 26 26 20 24 17 15 15 15 16 15 15 15 15 13 16 11 10 8 6 5 5 7
13 12 14 17 19 11 15 9 4 1 4 2 13 10 10 24 17 32 46 38 31 26 30 26 27 17 19 17 17 17 15 15 15 16 16 15 13 13 10 8 7 3 3 5
17 16 20 18 20 15 17 19 10 4 3 7 8 6 10 8 7 19 36 37 30 28 29 21 24 23 19 19 17 17 15 16 16 16 17 17 14 13 11 10 13 7 10 6
19 19 18 17 19 17 16 23 23 11 9 8 9 6 6 12 13 23 31 35 39 32 27 25 25 26 23 22 19 17 16 17 18 17 16 16 17 16 13 10 8 13 8 3
6 9 15 15 16 20 17 15 22 23 9 4 4 11 6 10 15 19 28 33 29 40 37 31 27 26 25 22 20 18 16 14 15 17 17 16 16 16 15 11 13 10 12 13
8 13 15 15 24 22 21 18 21 23 24 10 6 2 8 12 9 16 23 29 26 29 37 25 32 28 29 23 24 22 19 17 13 11 11 14 16 17 17 14 14 14 14 13
11 11 19 16 18 20 21 23 19 22 24 23 22 7 11 4 14 13 18 20 27 35 28 32 32 24 32 33 31 25 23 21 17 16 15 13 13 15 16 16 16 17 15 14
4 14 15 14 14 15 22 23 24 24 21 23 18 11 15 6 13 15 17 17 24 31 32 35 42 39 37 29 28 29 29 26 28 25 23 21 19 17 16 18 19 18 18 14
10 13 17 11 10 11 22 25 21 27 25 22 24 13 14 12 11 13 14 17 22 25 28 32 40 39 39 35 30 29 33 31 31 32 29 29 26 22 21 22 20 20 19 19
10 16 15 16 16 14 16 24 24 25 25 23 22 13 14 19 12 9 7 16 23 27 31 31 33 38 43 42 35 37 28 26 32 29 40 40 32 32 30 26 22 21 21 22
11 16 15 17 11 11 14 13 12 22 21 24 23 15 12 14 19 12 9 10 20 23 22 23 24 30 37 35 30 23 21 27 19 24 23 29 35 33 29 32 31 26 22 24
10 14 11 21 16 16 18 14 16 18 19 20 20 6 20 9 9 7 11 8 12 22 25 26 25 24 26 29 29 29 26 21 26 21 25 26 26 33 39 31 31 32 26 25
10 13 18 18 6 10 7 5 11 12 6 13 9 20 7 9 10 12 13 12 13 23 25 25 26 27 24 24 26 27 25 28 26 19 8 8 9 17 24 33 30 35 29 26
9 11 14 22 24 13 3 5 6 6 11 5 14 11 7 11 11 15 16 15 14 17 21 25 27 26 27 32 27 25 26 27 20 19 14 7 6 8 4 5 19 28 26 24
8 7 16 15 17 7 30 11 4 7 11 12 6 6 14 14 13 20 19 18 17 21 21 22 22 22 23 26 21 28 28 28 26 20 15 14 12 11 12 9 8 9 13 19
4 6 10 16 12 4 5 2 5 10 2 3 1 11 11 7 15 20 20 17 20 21 20 20 20 20 22 22 26 25 31 32 27 23 22 21 19 18 14 9 10 11 12 14
5 6 12 11 5 11 6 2 4 6 4 3 4 10 8 10 12 17 14 10 17 18 18 19 19 19 22 24 27 27 34 35 33 24 23 26 26 23 19 17 14 12 12 13
7 10 8 7 3 5 2 3 7 5 5 10 5 7 11 4 8 13 14 14 17 18 17 16 15 17 21 26 25 24 27 29 25 22 23 21 20 20 20 20 18 16 16 15
8 7 8 6 7 5 1 3 7 11 10 9 9 7 10 8 9 9 10 13 19 18 17 17 17 20 19 20 28 27 28 29 27 28 25 24 22 22 23 21 20 19 18 16
5 4 6 10 9 7 6 7 11 10 11 10 11 11 15 10 12 12 10 13 15 18 21 23 22 22 21 22 22 20 18 17 18 15 16 17 18 18 18 18 18 18 19 20
10 8 9 9 7 8 9 9 9 5 9 11 9 8 12 12 12 14 16 18 18 22 23 25 25 23 22 21 19 17 15 15 15 17 18 19 19 21 20 20 20 21 21 22

GFSCGP_700_spd_114.txt.gz
Wind_Speed
16 17 21 19 18 15 14 6 8 10 14 9 21 1 29 36 34 29 26 26 25 23 18 18 21 18 14 15 19 14 12 13 12 12 11 11 10 6 7 7 9 8 10 6
12 20 18 19 16 3 12 8 12 8 7 9 9 20 37 41 32 28 28 28 29 25 28 21 20 15 12 17 17 14 14 13 14 12 10 12 9 11 10 7 7 6 8 7
20 14 18 20 17 13 18 8 6 8 15 11 5 4 28 36 38 37 32 27 26 22 28 21 21 16 14 14 17 12 15 16 13 14 12 15 12 8 5 5 7 5 6 7
17 13 16 19 18 19 12 2 3 9 16 3 10 4 6 34 39 36 35 26 32 29 21 19 25 18 15 11 18 18 17 17 16 16 12 10 10 8 7 7 7 7 5 7
16 15 12 19 19 13 8 7 3 13 6 12 13 7 6 29 45 32 26 35 21 22 27 27 20 21 26 16 13 19 18 16 15 15 15 11 10 11 6 7 6 5 4 6
16 11 12 13 15 13 7 9 6 6 17 7 16 7 14 23 38 38 36 46 33 36 25 24 25 17 23 19 13 15 18 18 16 14 13 14 13 10 10 5 3 6 8 8
15 12 9 13 15 15 11 12 6 4 10 4 17 13 12 11 25 39 35 36 34 30 28 29 30 24 21 26 18 13 17 17 17 16 17 17 14 10 9 7 8 7 4 7
15 16 16 15 19 14 13 14 8 3 3 1 6 3 7 16 15 24 28 34 32 27 33 36 27 32 25 23 27 16 18 19 18 18 17 17 15 13 12 11 8 5 3 6
10 19 11 18 17 14 14 14 17 8 3 9 2 15 12 15 20 18 34 41 38 37 40 29 29 26 23 20 20 25 19 19 18 16 17 16 16 15 14 8 8 11 11 12
6 14 19 14 13 17 16 9 15 7 3 5 7 9 6 18 19 22 22 33 35 37 33 22 31 27 22 21 28 23 19 20 19 17 15 14 16 14 13 10 9 11 12 12
9 11 6 13 15 16 18 18 13 18 13 5 8 4 6 10 18 23 21 25 31 38 34 27 31 27 23 22 27 31 18 16 19 16 15 14 14 15 15 14 11 13 13 9
10 9 11 14 13 17 19 20 21 18 16 19 21 7 4 2 7 18 22 21 22 29 32 38 25 26 32 24 30 23 30 17 14 11 11 9 13 15 14 15 15 14 13 13
6 8 13 15 12 12 16 21 20 22 21 23 13 7 10 4 7 11 15 23 22 21 31 40 38 23 28 35 30 30 23 28 22 12 6 13 17 10 11 12 15 16 16 15
8 9 12 7 12 10 14 13 22 21 22 22 20 15 16 15 20 17 23 19 21 27 26 36 38 42 40 45 31 27 21 25 19 16 18 19 16 19 18 17 16 15 17 18
7 12 12 9 11 13 19 18 15 24 21 25 16 4 14 17 14 15 18 21 22 21 33 33 41 38 39 26 27 25 26 26 27 23 20 21 23 25 27 26 23 19 16 19
9 13 15 17 11 12 17 20 20 23 24 22 22 14 12 15 18 16 15 21 24 28 31 28 30 35 43 43 35 33 25 30 32 26 16 26 32 35 32 31 32 29 24 21
10 14 9 16 8 8 13 11 16 14 15 15 18 6 7 15 11 18 11 22 24 23 25 26 26 24 31 38 36 36 32 25 15 19 26 18 21 17 22 33 37 39 29 28
14 11 10 15 17 11 3 9 6 9 12 2 3 10 8 6 10 18 9 16 16 14 21 26 22 19 16 18 27 31 30 28 24 28 22 21 24 24 20 23 27 33 25 31
10 10 13 3 16 19 7 8 7 13 14 18 7 10 2 11 16 13 13 14 12 13 14 23 25 23 22 22 22 24 26 27 28 27 24 17 12 8 9 7 17 26 31 34
10 5 11 9 8 1 9 10 4 7 4 13 11 12 3 8 13 12 13 14 10 12 14 20 24 25 25 25 26 28 27 27 27 24 21 20 13 10 9 5 5 12 19 13
11 10 14 19 4 2 8 2 14 16 9 8 9 10 8 8 12 15 15 12 7 14 14 14 15 15 16 18 21 21 22 26 24 23 23 19 19 16 13 10 7 10 9 8
6 7 11 9 5 1 10 3 4 5 12 10 7 9 4 10 14 16 15 10 12 13 13 13 13 13 14 16 19 23 25 21 26 28 26 25 23 19 18 15 10 11 12 13
3 5 8 5 5 2 5 8 5 3 3 6 10 16 13 4 9 9 13 12 11 12 15 16 15 15 16 18 18 20 24 23 29 30 28 26 22 21 23 18 18 16 16 16
5 6 8 6 3 5 4 2 3 5 8 3 3 4 7 12 11 13 10 9 10 11 15 15 16 14 14 17 18 19 23 29 27 34 34 34 29 29 24 22 24 22 19 17
6 6 3 7 11 9 6 5 3 6 10 11 12 12 14 13 12 11 11 10 7 12 14 14 15 14 14 14 15 19 26 28 29 32 29 34 31 33 31 28 21 19 19 18
6 10 9 6 8 9 9 14 12 3 5 7 9 14 9 15 10 11 12 13 12 13 13 14 16 18 16 16 17 20 21 23 24 24 25 28 28 21 20 18 17 18 20 21

GFSCGP_700_spd_117.txt.gz
Wind_Speed
10 17 21 22 16 14 19 5 8 6 5 5 4 20 30 33 33 29 30 29 26 25 18 16 17 14 7 11 12 14 15 16 14 12 15 13 12 11 11 10 12 10 8 9
12 18 20 14 13 12 6 6 9 7 10 6 10 23 13 31 35 34 34 32 28 25 19 19 19 13 12 13 17 14 18 15 15 14 14 14 13 12 12 10 11 8 7 7
16 4 11 14 20 14 14 4 8 7 15 8 3 9 33 27 39 29 35 33 31 28 26 21 24 19 13 12 14 14 17 18 15 14 13 11 12 10 11 10 9 10 7 5
17 12 17 11 16 18 5 11 10 10 17 2 5 3 4 30 46 36 34 31 32 28 28 23 24 22 10 9 12 15 17 17 16 13 11 11 12 10 10 9 10 9 7 6
14 11 12 20 12 17 10 9 7 11 14 2 14 4 10 28 46 43 36 33 37 30 26 21 27 19 11 8 6 11 15 16 16 15 12 11 10 10 9 9 10 9 6 8
16 11 9 7 13 13 16 13 10 8 10 3 15 16 16 24 42 48 40 39 39 30 30 23 27 19 11 14 10 12 15 16 15 14 16 13 11 10 7 8 9 8 8 8
11 11 8 15 11 12 6 12 1 2 2 2 10 15 12 18 22 49 49 47 36 41 32 29 28 23 19 16 17 10 15 15 14 14 13 12 12 9 9 7 6 5 7 10
10 11 9 10 20 13 6 12 15 3 1 3 8 4 5 16 14 39 32 48 38 31 37 37 35 29 22 24 17 15 8 16 18 16 15 15 14 12 12 10 8 8 7 9
7 17 17 15 14 16 9 21 17 7 6 3 3 10 10 6 5 32 36 37 43 35 34 35 36 27 23 20 19 17 8 10 16 17 16 15 13 13 10 10 10 9 10 5
2 8 7 16 16 19 11 10 6 5 5 3 9 9 14 9 11 18 37 39 42 45 40 34 29 29 22 24 25 22 15 6 16 17 17 17 16 14 14 12 9 5 7 5
5 6 14 20 12 9 14 13 10 8 7 6 4 8 5 15 11 20 25 40 39 41 38 40 36 35 21 23 26 21 24 9 13 19 17 17 16 15 13 13 10 7 7 7
3 8 19 14 7 9 13 13 13 15 14 8 2 3 8 16 15 20 20 20 33 43 38 32 31 20 24 26 27 22 21 17 13 16 18 18 17 16 16 16 15 12 11 11
8 2 10 13 9 3 4 7 15 17 20 26 6 8 12 16 23 18 6 11 15 34 34 36 37 32 36 31 35 32 21 15 21 16 14 17 15 13 15 15 15 14 13 13
12 9 8 9 4 9 14 9 10 13 16 17 22 13 19 21 15 14 16 13 17 23 31 37 39 34 30 31 46 41 21 21 14 16 20 15 13 13 11 12 14 14 13 16
4 10 10 10 8 9 9 11 16 17 22 19 15 6 18 15 13 11 16 17 18 23 26 39 42 33 35 26 31 28 26 26 29 23 24 18 15 17 17 18 16 19 16 16
6 7 12 11 13 9 11 9 9 18 21 12 13 15 20 18 18 19 17 19 22 26 33 35 41 36 35 26 30 22 18 30 27 25 27 16 19 24 26 23 24 28 24 22
10 11 9 9 11 13 7 21 10 8 11 19 10 10 20 22 19 21 17 23 11 24 34 37 32 31 28 35 31 33 28 18 17 15 18 21 22 19 20 18 19 25 30 29
12 11 11 11 8 1 4 9 10 5 13 10 7 7 8 9 13 12 20 12 12 19 24 30 33 37 25 27 31 32 27 22 28 26 23 21 19 22 24 26 25 25 27 35
9 9 10 4 2 7 10 7 6 13 7 15 11 9 2 7 11 18 21 25 21 17 18 17 19 24 20 20 22 28 34 36 33 31 30 26 20 23 20 16 12 14 22 21
9 7 6 11 1 4 5 7 5 3 3 5 11 9 3 4 9 13 12 11 6 8 16 18 21 24 23 20 18 16 17 21 25 26 27 27 23 19 14 7 5 7 11 15
13 7 5 9 3 1 7 7 8 6 7 5 9 15 5 12 11 12 11 10 5 7 11 14 20 21 23 22 19 19 21 24 26 27 28 27 23 20 15 12 8 6 8 11
6 6 5 7 4 2 4 2 4 5 3 6 14 17 9 8 2 6 7 13 14 12 12 15 18 15 18 18 19 20 20 21 21 23 25 25 26 23 21 19 14 13 12 12
3 3 3 2 2 5 2 1 4 3 3 0 8 7 7 5 2 3 7 8 16 15 15 17 15 13 14 15 16 16 19 24 22 19 24 27 28 26 22 20 18 16 14 13
3 3 2 4 5 18 10 7 3 8 8 7 11 11 12 6 6 3 12 15 15 16 17 17 15 17 17 18 17 16 18 19 23 22 23 27 26 24 24 23 19 20 21 19
9 9 4 1 4 4 9 10 9 11 14 12 15 12 12 13 10 8 11 12 13 17 16 15 14 12 12 12 10 10 14 15 20 25 26 24 29 30 27 26 22 23 24 22
3 8 8 7 11 13 12 12 12 7 14 16 15 11 7 7 8 11 11 11 11 10 10 12 11 10 7 8 11 11 15 19 18 25 22 25 26 29 27 30 29 33 27 26